<?xml version="1.0" encoding="UTF-8" standalone="no" ?>
<gpx xmlns="http://www.topografix.com/GPX/1/1" xmlns:xsi="http://www.w3.org/2001/XMLSchema-instance" xsi:schemaLocation="http://www.topografix.com/GPX/1/1 http://www.topografix.com/GPX/1/1/gpx.xsd" version="1.1" creator="VisuGPX - https://www.visugpx.com">
  <metadata>
    <name>Randonnée VTT la Perrarios</name>
    <desc><![CDATA[Randonnée VTT la Perrarios, Perrier, puy de dôme
parcours de 56 km]]></desc>
  </metadata>
  <trk>
    <name><![CDATA[2011-05-15-08-4]]></name>
    <trkseg>
      <trkpt lat="45.54564" lon="3.19692">
        <ele>430.6</ele>
        <time>2011-05-15T06:41:11Z</time>
      </trkpt>
      <trkpt lat="45.54448" lon="3.19606">
        <ele>430.6</ele>
        <time>2011-05-15T06:41:42Z</time>
      </trkpt>
      <trkpt lat="45.54345" lon="3.19532">
        <ele>430.6</ele>
        <time>2011-05-15T06:42:11Z</time>
      </trkpt>
      <trkpt lat="45.54356" lon="3.19443">
        <ele>430.6</ele>
        <time>2011-05-15T06:42:32Z</time>
      </trkpt>
      <trkpt lat="45.54371" lon="3.19327">
        <ele>430.6</ele>
        <time>2011-05-15T06:42:52Z</time>
      </trkpt>
      <trkpt lat="45.54389" lon="3.19253">
        <ele>431</ele>
        <time>2011-05-15T06:43:05Z</time>
      </trkpt>
      <trkpt lat="45.54399" lon="3.19233">
        <ele>432.6</ele>
        <time>2011-05-15T06:43:09Z</time>
      </trkpt>
      <trkpt lat="45.54452" lon="3.19111">
        <ele>432.6</ele>
        <time>2011-05-15T06:43:34Z</time>
      </trkpt>
      <trkpt lat="45.54515" lon="3.19021">
        <ele>432.6</ele>
        <time>2011-05-15T06:43:56Z</time>
      </trkpt>
      <trkpt lat="45.54565" lon="3.18913">
        <ele>432.6</ele>
        <time>2011-05-15T06:44:20Z</time>
      </trkpt>
      <trkpt lat="45.54585" lon="3.18867">
        <ele>433.8</ele>
        <time>2011-05-15T06:44:31Z</time>
      </trkpt>
      <trkpt lat="45.5459" lon="3.18825">
        <ele>434.8</ele>
        <time>2011-05-15T06:44:39Z</time>
      </trkpt>
      <trkpt lat="45.54623" lon="3.18735">
        <ele>434.8</ele>
        <time>2011-05-15T06:44:58Z</time>
      </trkpt>
      <trkpt lat="45.54638" lon="3.18681">
        <ele>434.8</ele>
        <time>2011-05-15T06:45:09Z</time>
      </trkpt>
      <trkpt lat="45.54656" lon="3.18575">
        <ele>434.8</ele>
        <time>2011-05-15T06:45:31Z</time>
      </trkpt>
      <trkpt lat="45.54682" lon="3.18538">
        <ele>436.4</ele>
        <time>2011-05-15T06:45:41Z</time>
      </trkpt>
      <trkpt lat="45.54683" lon="3.18481">
        <ele>437.8</ele>
        <time>2011-05-15T06:45:53Z</time>
      </trkpt>
      <trkpt lat="45.54683" lon="3.18455">
        <ele>439.6</ele>
        <time>2011-05-15T06:45:59Z</time>
      </trkpt>
      <trkpt lat="45.54683" lon="3.18438">
        <ele>441.2</ele>
        <time>2011-05-15T06:46:03Z</time>
      </trkpt>
      <trkpt lat="45.54693" lon="3.18344">
        <ele>441.2</ele>
        <time>2011-05-15T06:46:18Z</time>
      </trkpt>
      <trkpt lat="45.54711" lon="3.18298">
        <ele>441.2</ele>
        <time>2011-05-15T06:46:27Z</time>
      </trkpt>
      <trkpt lat="45.54743" lon="3.18223">
        <ele>441.2</ele>
        <time>2011-05-15T06:46:41Z</time>
      </trkpt>
      <trkpt lat="45.54741" lon="3.18148">
        <ele>441.2</ele>
        <time>2011-05-15T06:46:54Z</time>
      </trkpt>
      <trkpt lat="45.54721" lon="3.18106">
        <ele>441.2</ele>
        <time>2011-05-15T06:47:08Z</time>
      </trkpt>
      <trkpt lat="45.54661" lon="3.18106">
        <ele>441.2</ele>
        <time>2011-05-15T06:47:24Z</time>
      </trkpt>
      <trkpt lat="45.54643" lon="3.18105">
        <ele>442.8</ele>
        <time>2011-05-15T06:47:29Z</time>
      </trkpt>
      <trkpt lat="45.54585" lon="3.18105">
        <ele>443.2</ele>
        <time>2011-05-15T06:47:45Z</time>
      </trkpt>
      <trkpt lat="45.54559" lon="3.18103">
        <ele>445</ele>
        <time>2011-05-15T06:47:52Z</time>
      </trkpt>
      <trkpt lat="45.54503" lon="3.18112">
        <ele>445.8</ele>
        <time>2011-05-15T06:48:08Z</time>
      </trkpt>
      <trkpt lat="45.5449" lon="3.18116">
        <ele>447.4</ele>
        <time>2011-05-15T06:48:12Z</time>
      </trkpt>
      <trkpt lat="45.54457" lon="3.18114">
        <ele>447.4</ele>
        <time>2011-05-15T06:48:24Z</time>
      </trkpt>
      <trkpt lat="45.54465" lon="3.18091">
        <ele>449.2</ele>
        <time>2011-05-15T06:48:30Z</time>
      </trkpt>
      <trkpt lat="45.54482" lon="3.18044">
        <ele>449.6</ele>
        <time>2011-05-15T06:48:38Z</time>
      </trkpt>
      <trkpt lat="45.5449" lon="3.18002">
        <ele>448.8</ele>
        <time>2011-05-15T06:48:52Z</time>
      </trkpt>
      <trkpt lat="45.5449" lon="3.17995">
        <ele>447.6</ele>
        <time>2011-05-15T06:48:56Z</time>
      </trkpt>
      <trkpt lat="45.54472" lon="3.18">
        <ele>448.4</ele>
        <time>2011-05-15T06:49:06Z</time>
      </trkpt>
      <trkpt lat="45.54461" lon="3.18004">
        <ele>449.6</ele>
        <time>2011-05-15T06:49:13Z</time>
      </trkpt>
      <trkpt lat="45.54455" lon="3.18006">
        <ele>451.2</ele>
        <time>2011-05-15T06:49:17Z</time>
      </trkpt>
      <trkpt lat="45.54449" lon="3.18009">
        <ele>452.6</ele>
        <time>2011-05-15T06:49:23Z</time>
      </trkpt>
      <trkpt lat="45.54442" lon="3.18014">
        <ele>454.2</ele>
        <time>2011-05-15T06:49:29Z</time>
      </trkpt>
      <trkpt lat="45.54438" lon="3.18015">
        <ele>455.8</ele>
        <time>2011-05-15T06:49:33Z</time>
      </trkpt>
      <trkpt lat="45.54431" lon="3.18016">
        <ele>457.2</ele>
        <time>2011-05-15T06:49:39Z</time>
      </trkpt>
      <trkpt lat="45.54425" lon="3.18012">
        <ele>458.8</ele>
        <time>2011-05-15T06:49:47Z</time>
      </trkpt>
      <trkpt lat="45.54422" lon="3.18011">
        <ele>460</ele>
        <time>2011-05-15T06:49:52Z</time>
      </trkpt>
      <trkpt lat="45.54416" lon="3.18002">
        <ele>460.4</ele>
        <time>2011-05-15T06:50:03Z</time>
      </trkpt>
      <trkpt lat="45.54412" lon="3.17997">
        <ele>462.2</ele>
        <time>2011-05-15T06:50:07Z</time>
      </trkpt>
      <trkpt lat="45.54406" lon="3.17982">
        <ele>463.4</ele>
        <time>2011-05-15T06:50:14Z</time>
      </trkpt>
      <trkpt lat="45.54399" lon="3.17965">
        <ele>465.4</ele>
        <time>2011-05-15T06:50:22Z</time>
      </trkpt>
      <trkpt lat="45.54391" lon="3.17948">
        <ele>466.6</ele>
        <time>2011-05-15T06:50:30Z</time>
      </trkpt>
      <trkpt lat="45.54387" lon="3.17939">
        <ele>468.2</ele>
        <time>2011-05-15T06:50:34Z</time>
      </trkpt>
      <trkpt lat="45.54376" lon="3.17919">
        <ele>469.8</ele>
        <time>2011-05-15T06:50:43Z</time>
      </trkpt>
      <trkpt lat="45.54366" lon="3.179">
        <ele>471.2</ele>
        <time>2011-05-15T06:50:51Z</time>
      </trkpt>
      <trkpt lat="45.54362" lon="3.17891">
        <ele>472.4</ele>
        <time>2011-05-15T06:50:55Z</time>
      </trkpt>
      <trkpt lat="45.54352" lon="3.17869">
        <ele>474.2</ele>
        <time>2011-05-15T06:51:03Z</time>
      </trkpt>
      <trkpt lat="45.5434" lon="3.17842">
        <ele>475.4</ele>
        <time>2011-05-15T06:51:11Z</time>
      </trkpt>
      <trkpt lat="45.54328" lon="3.17811">
        <ele>476.8</ele>
        <time>2011-05-15T06:51:20Z</time>
      </trkpt>
      <trkpt lat="45.54321" lon="3.17793">
        <ele>478.4</ele>
        <time>2011-05-15T06:51:28Z</time>
      </trkpt>
      <trkpt lat="45.54315" lon="3.17776">
        <ele>479.6</ele>
        <time>2011-05-15T06:51:36Z</time>
      </trkpt>
      <trkpt lat="45.54311" lon="3.17766">
        <ele>481</ele>
        <time>2011-05-15T06:51:41Z</time>
      </trkpt>
      <trkpt lat="45.54305" lon="3.17749">
        <ele>482.6</ele>
        <time>2011-05-15T06:51:49Z</time>
      </trkpt>
      <trkpt lat="45.54296" lon="3.17726">
        <ele>483.8</ele>
        <time>2011-05-15T06:51:59Z</time>
      </trkpt>
      <trkpt lat="45.5429" lon="3.17706">
        <ele>485.2</ele>
        <time>2011-05-15T06:52:07Z</time>
      </trkpt>
      <trkpt lat="45.54287" lon="3.17689">
        <ele>486.8</ele>
        <time>2011-05-15T06:52:14Z</time>
      </trkpt>
      <trkpt lat="45.54285" lon="3.17673">
        <ele>487.6</ele>
        <time>2011-05-15T06:52:21Z</time>
      </trkpt>
      <trkpt lat="45.54285" lon="3.17661">
        <ele>489.4</ele>
        <time>2011-05-15T06:52:25Z</time>
      </trkpt>
      <trkpt lat="45.54283" lon="3.1763">
        <ele>490.6</ele>
        <time>2011-05-15T06:52:35Z</time>
      </trkpt>
      <trkpt lat="45.54279" lon="3.176">
        <ele>491.8</ele>
        <time>2011-05-15T06:52:46Z</time>
      </trkpt>
      <trkpt lat="45.54277" lon="3.1759">
        <ele>493.6</ele>
        <time>2011-05-15T06:52:50Z</time>
      </trkpt>
      <trkpt lat="45.54271" lon="3.17569">
        <ele>494.8</ele>
        <time>2011-05-15T06:52:59Z</time>
      </trkpt>
      <trkpt lat="45.54266" lon="3.17548">
        <ele>496.4</ele>
        <time>2011-05-15T06:53:08Z</time>
      </trkpt>
      <trkpt lat="45.54261" lon="3.17528">
        <ele>497.6</ele>
        <time>2011-05-15T06:53:16Z</time>
      </trkpt>
      <trkpt lat="45.54255" lon="3.17505">
        <ele>499.2</ele>
        <time>2011-05-15T06:53:23Z</time>
      </trkpt>
      <trkpt lat="45.54239" lon="3.17447">
        <ele>500</ele>
        <time>2011-05-15T06:53:39Z</time>
      </trkpt>
      <trkpt lat="45.54233" lon="3.17427">
        <ele>501.6</ele>
        <time>2011-05-15T06:53:43Z</time>
      </trkpt>
      <trkpt lat="45.54218" lon="3.17362">
        <ele>502.2</ele>
        <time>2011-05-15T06:53:57Z</time>
      </trkpt>
      <trkpt lat="45.54215" lon="3.17348">
        <ele>503.8</ele>
        <time>2011-05-15T06:54:01Z</time>
      </trkpt>
      <trkpt lat="45.54197" lon="3.17269">
        <ele>504.6</ele>
        <time>2011-05-15T06:54:21Z</time>
      </trkpt>
      <trkpt lat="45.54188" lon="3.17228">
        <ele>505.8</ele>
        <time>2011-05-15T06:54:34Z</time>
      </trkpt>
      <trkpt lat="45.54183" lon="3.17196">
        <ele>507</ele>
        <time>2011-05-15T06:54:46Z</time>
      </trkpt>
      <trkpt lat="45.54175" lon="3.17141">
        <ele>507.8</ele>
        <time>2011-05-15T06:55:03Z</time>
      </trkpt>
      <trkpt lat="45.54164" lon="3.17111">
        <ele>510</ele>
        <time>2011-05-15T06:55:12Z</time>
      </trkpt>
      <trkpt lat="45.54134" lon="3.17049">
        <ele>510.4</ele>
        <time>2011-05-15T06:55:31Z</time>
      </trkpt>
      <trkpt lat="45.54128" lon="3.17036">
        <ele>512.2</ele>
        <time>2011-05-15T06:55:35Z</time>
      </trkpt>
      <trkpt lat="45.54105" lon="3.16969">
        <ele>512.6</ele>
        <time>2011-05-15T06:55:54Z</time>
      </trkpt>
      <trkpt lat="45.54103" lon="3.16955">
        <ele>514.2</ele>
        <time>2011-05-15T06:55:58Z</time>
      </trkpt>
      <trkpt lat="45.54096" lon="3.1688">
        <ele>515</ele>
        <time>2011-05-15T06:56:17Z</time>
      </trkpt>
      <trkpt lat="45.541" lon="3.16851">
        <ele>516.2</ele>
        <time>2011-05-15T06:56:25Z</time>
      </trkpt>
      <trkpt lat="45.54114" lon="3.16769">
        <ele>516.2</ele>
        <time>2011-05-15T06:56:46Z</time>
      </trkpt>
      <trkpt lat="45.54108" lon="3.1674">
        <ele>516.2</ele>
        <time>2011-05-15T06:57:02Z</time>
      </trkpt>
      <trkpt lat="45.54097" lon="3.16731">
        <ele>517.8</ele>
        <time>2011-05-15T06:57:09Z</time>
      </trkpt>
      <trkpt lat="45.54097" lon="3.16721">
        <ele>518.2</ele>
        <time>2011-05-15T06:57:16Z</time>
      </trkpt>
      <trkpt lat="45.54106" lon="3.16717">
        <ele>519.8</ele>
        <time>2011-05-15T06:57:20Z</time>
      </trkpt>
      <trkpt lat="45.5411" lon="3.16672">
        <ele>520.4</ele>
        <time>2011-05-15T06:57:36Z</time>
      </trkpt>
      <trkpt lat="45.54101" lon="3.16629">
        <ele>521.6</ele>
        <time>2011-05-15T06:57:51Z</time>
      </trkpt>
      <trkpt lat="45.54095" lon="3.16604">
        <ele>522.4</ele>
        <time>2011-05-15T06:57:59Z</time>
      </trkpt>
      <trkpt lat="45.54088" lon="3.16583">
        <ele>524</ele>
        <time>2011-05-15T06:58:06Z</time>
      </trkpt>
      <trkpt lat="45.54075" lon="3.16538">
        <ele>524.8</ele>
        <time>2011-05-15T06:58:20Z</time>
      </trkpt>
      <trkpt lat="45.54074" lon="3.16526">
        <ele>526.4</ele>
        <time>2011-05-15T06:58:24Z</time>
      </trkpt>
      <trkpt lat="45.54075" lon="3.16489">
        <ele>527.6</ele>
        <time>2011-05-15T06:58:35Z</time>
      </trkpt>
      <trkpt lat="45.54074" lon="3.16464">
        <ele>528.8</ele>
        <time>2011-05-15T06:58:44Z</time>
      </trkpt>
      <trkpt lat="45.54073" lon="3.16453">
        <ele>530.4</ele>
        <time>2011-05-15T06:58:48Z</time>
      </trkpt>
      <trkpt lat="45.54072" lon="3.16432">
        <ele>532.2</ele>
        <time>2011-05-15T06:58:56Z</time>
      </trkpt>
      <trkpt lat="45.5407" lon="3.16408">
        <ele>533.8</ele>
        <time>2011-05-15T06:59:04Z</time>
      </trkpt>
      <trkpt lat="45.54069" lon="3.16385">
        <ele>535</ele>
        <time>2011-05-15T06:59:12Z</time>
      </trkpt>
      <trkpt lat="45.54069" lon="3.16374">
        <ele>536.8</ele>
        <time>2011-05-15T06:59:16Z</time>
      </trkpt>
      <trkpt lat="45.54065" lon="3.16351">
        <ele>538</ele>
        <time>2011-05-15T06:59:25Z</time>
      </trkpt>
      <trkpt lat="45.5406" lon="3.16331">
        <ele>539</ele>
        <time>2011-05-15T06:59:34Z</time>
      </trkpt>
      <trkpt lat="45.54055" lon="3.16319">
        <ele>540.6</ele>
        <time>2011-05-15T06:59:40Z</time>
      </trkpt>
      <trkpt lat="45.54053" lon="3.16301">
        <ele>542.4</ele>
        <time>2011-05-15T06:59:48Z</time>
      </trkpt>
      <trkpt lat="45.54051" lon="3.16284">
        <ele>544</ele>
        <time>2011-05-15T06:59:56Z</time>
      </trkpt>
      <trkpt lat="45.54046" lon="3.16272">
        <ele>545.2</ele>
        <time>2011-05-15T07:00:02Z</time>
      </trkpt>
      <trkpt lat="45.54041" lon="3.16262">
        <ele>547.2</ele>
        <time>2011-05-15T07:00:08Z</time>
      </trkpt>
      <trkpt lat="45.54035" lon="3.16248">
        <ele>548.2</ele>
        <time>2011-05-15T07:00:16Z</time>
      </trkpt>
      <trkpt lat="45.5403" lon="3.16237">
        <ele>549.4</ele>
        <time>2011-05-15T07:00:23Z</time>
      </trkpt>
      <trkpt lat="45.54023" lon="3.16223">
        <ele>551.2</ele>
        <time>2011-05-15T07:00:31Z</time>
      </trkpt>
      <trkpt lat="45.54019" lon="3.1621">
        <ele>552</ele>
        <time>2011-05-15T07:00:39Z</time>
      </trkpt>
      <trkpt lat="45.54017" lon="3.16202">
        <ele>553.6</ele>
        <time>2011-05-15T07:00:43Z</time>
      </trkpt>
      <trkpt lat="45.54014" lon="3.16182">
        <ele>554.4</ele>
        <time>2011-05-15T07:00:53Z</time>
      </trkpt>
      <trkpt lat="45.5401" lon="3.16171">
        <ele>555.6</ele>
        <time>2011-05-15T07:00:59Z</time>
      </trkpt>
      <trkpt lat="45.54006" lon="3.16159">
        <ele>557.2</ele>
        <time>2011-05-15T07:01:06Z</time>
      </trkpt>
      <trkpt lat="45.54001" lon="3.16145">
        <ele>559</ele>
        <time>2011-05-15T07:01:14Z</time>
      </trkpt>
      <trkpt lat="45.53993" lon="3.16121">
        <ele>560.2</ele>
        <time>2011-05-15T07:01:25Z</time>
      </trkpt>
      <trkpt lat="45.53991" lon="3.16109">
        <ele>561.8</ele>
        <time>2011-05-15T07:01:29Z</time>
      </trkpt>
      <trkpt lat="45.5396" lon="3.16036">
        <ele>561.8</ele>
        <time>2011-05-15T07:01:54Z</time>
      </trkpt>
      <trkpt lat="45.53951" lon="3.16017">
        <ele>563.6</ele>
        <time>2011-05-15T07:02:00Z</time>
      </trkpt>
      <trkpt lat="45.53915" lon="3.15936">
        <ele>564.4</ele>
        <time>2011-05-15T07:02:24Z</time>
      </trkpt>
      <trkpt lat="45.5391" lon="3.15923">
        <ele>566</ele>
        <time>2011-05-15T07:02:28Z</time>
      </trkpt>
      <trkpt lat="45.53898" lon="3.15888">
        <ele>567.4</ele>
        <time>2011-05-15T07:02:40Z</time>
      </trkpt>
      <trkpt lat="45.53883" lon="3.1585">
        <ele>568.6</ele>
        <time>2011-05-15T07:02:53Z</time>
      </trkpt>
      <trkpt lat="45.53879" lon="3.1584">
        <ele>570.2</ele>
        <time>2011-05-15T07:02:57Z</time>
      </trkpt>
      <trkpt lat="45.53867" lon="3.15811">
        <ele>572</ele>
        <time>2011-05-15T07:03:07Z</time>
      </trkpt>
      <trkpt lat="45.5386" lon="3.15783">
        <ele>573.4</ele>
        <time>2011-05-15T07:03:16Z</time>
      </trkpt>
      <trkpt lat="45.5386" lon="3.15761">
        <ele>574.6</ele>
        <time>2011-05-15T07:03:23Z</time>
      </trkpt>
      <trkpt lat="45.53859" lon="3.15729">
        <ele>576.2</ele>
        <time>2011-05-15T07:03:33Z</time>
      </trkpt>
      <trkpt lat="45.53861" lon="3.15712">
        <ele>577.4</ele>
        <time>2011-05-15T07:03:40Z</time>
      </trkpt>
      <trkpt lat="45.53862" lon="3.15702">
        <ele>578.6</ele>
        <time>2011-05-15T07:03:44Z</time>
      </trkpt>
      <trkpt lat="45.53862" lon="3.15682">
        <ele>580.6</ele>
        <time>2011-05-15T07:03:52Z</time>
      </trkpt>
      <trkpt lat="45.53863" lon="3.15655">
        <ele>582</ele>
        <time>2011-05-15T07:04:03Z</time>
      </trkpt>
      <trkpt lat="45.53863" lon="3.15642">
        <ele>582.8</ele>
        <time>2011-05-15T07:04:09Z</time>
      </trkpt>
      <trkpt lat="45.53861" lon="3.15623">
        <ele>584.4</ele>
        <time>2011-05-15T07:04:16Z</time>
      </trkpt>
      <trkpt lat="45.53855" lon="3.15601">
        <ele>584.8</ele>
        <time>2011-05-15T07:04:23Z</time>
      </trkpt>
      <trkpt lat="45.53796" lon="3.15521">
        <ele>584.8</ele>
        <time>2011-05-15T07:04:48Z</time>
      </trkpt>
      <trkpt lat="45.53743" lon="3.15466">
        <ele>584.4</ele>
        <time>2011-05-15T07:05:05Z</time>
      </trkpt>
      <trkpt lat="45.53729" lon="3.15465">
        <ele>582.8</ele>
        <time>2011-05-15T07:05:09Z</time>
      </trkpt>
      <trkpt lat="45.53708" lon="3.15477">
        <ele>581.2</ele>
        <time>2011-05-15T07:05:14Z</time>
      </trkpt>
      <trkpt lat="45.53681" lon="3.15496">
        <ele>580.8</ele>
        <time>2011-05-15T07:05:22Z</time>
      </trkpt>
      <trkpt lat="45.53658" lon="3.15487">
        <ele>579</ele>
        <time>2011-05-15T07:05:29Z</time>
      </trkpt>
      <trkpt lat="45.53628" lon="3.1545">
        <ele>578.6</ele>
        <time>2011-05-15T07:05:41Z</time>
      </trkpt>
      <trkpt lat="45.536" lon="3.15398">
        <ele>579</ele>
        <time>2011-05-15T07:06:01Z</time>
      </trkpt>
      <trkpt lat="45.53593" lon="3.15388">
        <ele>580.8</ele>
        <time>2011-05-15T07:06:05Z</time>
      </trkpt>
      <trkpt lat="45.53578" lon="3.15359">
        <ele>582</ele>
        <time>2011-05-15T07:06:15Z</time>
      </trkpt>
      <trkpt lat="45.53568" lon="3.15348">
        <ele>583</ele>
        <time>2011-05-15T07:06:19Z</time>
      </trkpt>
      <trkpt lat="45.53559" lon="3.15332">
        <ele>584.2</ele>
        <time>2011-05-15T07:06:24Z</time>
      </trkpt>
      <trkpt lat="45.53539" lon="3.15299">
        <ele>585.4</ele>
        <time>2011-05-15T07:06:36Z</time>
      </trkpt>
      <trkpt lat="45.53531" lon="3.15289">
        <ele>587</ele>
        <time>2011-05-15T07:06:40Z</time>
      </trkpt>
      <trkpt lat="45.53518" lon="3.1527">
        <ele>588.4</ele>
        <time>2011-05-15T07:06:47Z</time>
      </trkpt>
      <trkpt lat="45.53505" lon="3.15278">
        <ele>589.2</ele>
        <time>2011-05-15T07:06:55Z</time>
      </trkpt>
      <trkpt lat="45.53457" lon="3.15278">
        <ele>589.2</ele>
        <time>2011-05-15T07:07:17Z</time>
      </trkpt>
      <trkpt lat="45.53415" lon="3.15256">
        <ele>589.6</ele>
        <time>2011-05-15T07:07:36Z</time>
      </trkpt>
      <trkpt lat="45.53409" lon="3.15248">
        <ele>591.4</ele>
        <time>2011-05-15T07:07:40Z</time>
      </trkpt>
      <trkpt lat="45.53365" lon="3.15233">
        <ele>591.4</ele>
        <time>2011-05-15T07:07:56Z</time>
      </trkpt>
      <trkpt lat="45.53329" lon="3.15236">
        <ele>590</ele>
        <time>2011-05-15T07:08:05Z</time>
      </trkpt>
      <trkpt lat="45.533" lon="3.1522">
        <ele>589</ele>
        <time>2011-05-15T07:08:14Z</time>
      </trkpt>
      <trkpt lat="45.53265" lon="3.15189">
        <ele>589</ele>
        <time>2011-05-15T07:08:27Z</time>
      </trkpt>
      <trkpt lat="45.53262" lon="3.15187">
        <ele>589</ele>
        <time>2011-05-15T07:08:57Z</time>
      </trkpt>
      <trkpt lat="45.53258" lon="3.15162">
        <ele>589</ele>
        <time>2011-05-15T07:09:19Z</time>
      </trkpt>
      <trkpt lat="45.53244" lon="3.15125">
        <ele>589.4</ele>
        <time>2011-05-15T07:09:31Z</time>
      </trkpt>
      <trkpt lat="45.53238" lon="3.15112">
        <ele>591</ele>
        <time>2011-05-15T07:09:35Z</time>
      </trkpt>
      <trkpt lat="45.53225" lon="3.15081">
        <ele>591.8</ele>
        <time>2011-05-15T07:09:45Z</time>
      </trkpt>
      <trkpt lat="45.53221" lon="3.1507">
        <ele>593.2</ele>
        <time>2011-05-15T07:09:49Z</time>
      </trkpt>
      <trkpt lat="45.53214" lon="3.15048">
        <ele>595</ele>
        <time>2011-05-15T07:09:58Z</time>
      </trkpt>
      <trkpt lat="45.53204" lon="3.15028">
        <ele>596.2</ele>
        <time>2011-05-15T07:10:08Z</time>
      </trkpt>
      <trkpt lat="45.53199" lon="3.15013">
        <ele>597.6</ele>
        <time>2011-05-15T07:10:14Z</time>
      </trkpt>
      <trkpt lat="45.53189" lon="3.14986">
        <ele>599.2</ele>
        <time>2011-05-15T07:10:24Z</time>
      </trkpt>
      <trkpt lat="45.53167" lon="3.1494">
        <ele>600</ele>
        <time>2011-05-15T07:10:41Z</time>
      </trkpt>
      <trkpt lat="45.53162" lon="3.14929">
        <ele>601.6</ele>
        <time>2011-05-15T07:10:45Z</time>
      </trkpt>
      <trkpt lat="45.53149" lon="3.14898">
        <ele>602.8</ele>
        <time>2011-05-15T07:10:58Z</time>
      </trkpt>
      <trkpt lat="45.53145" lon="3.14886">
        <ele>603.6</ele>
        <time>2011-05-15T07:11:03Z</time>
      </trkpt>
      <trkpt lat="45.53139" lon="3.14868">
        <ele>605.4</ele>
        <time>2011-05-15T07:11:10Z</time>
      </trkpt>
      <trkpt lat="45.53117" lon="3.14842">
        <ele>606.6</ele>
        <time>2011-05-15T07:11:24Z</time>
      </trkpt>
      <trkpt lat="45.53106" lon="3.14836">
        <ele>607.8</ele>
        <time>2011-05-15T07:11:30Z</time>
      </trkpt>
      <trkpt lat="45.53069" lon="3.14813">
        <ele>608.6</ele>
        <time>2011-05-15T07:11:47Z</time>
      </trkpt>
      <trkpt lat="45.53056" lon="3.14797">
        <ele>609.8</ele>
        <time>2011-05-15T07:11:54Z</time>
      </trkpt>
      <trkpt lat="45.53051" lon="3.14778">
        <ele>610.6</ele>
        <time>2011-05-15T07:12:02Z</time>
      </trkpt>
      <trkpt lat="45.53052" lon="3.14764">
        <ele>611.8</ele>
        <time>2011-05-15T07:12:07Z</time>
      </trkpt>
      <trkpt lat="45.53054" lon="3.14745">
        <ele>613.6</ele>
        <time>2011-05-15T07:12:14Z</time>
      </trkpt>
      <trkpt lat="45.53057" lon="3.14721">
        <ele>614.8</ele>
        <time>2011-05-15T07:12:24Z</time>
      </trkpt>
      <trkpt lat="45.53058" lon="3.147">
        <ele>616</ele>
        <time>2011-05-15T07:12:32Z</time>
      </trkpt>
      <trkpt lat="45.53056" lon="3.14679">
        <ele>617.4</ele>
        <time>2011-05-15T07:12:39Z</time>
      </trkpt>
      <trkpt lat="45.53052" lon="3.14639">
        <ele>618.2</ele>
        <time>2011-05-15T07:12:51Z</time>
      </trkpt>
      <trkpt lat="45.53048" lon="3.14617">
        <ele>619</ele>
        <time>2011-05-15T07:12:58Z</time>
      </trkpt>
      <trkpt lat="45.53047" lon="3.14601">
        <ele>620.2</ele>
        <time>2011-05-15T07:13:03Z</time>
      </trkpt>
      <trkpt lat="45.53048" lon="3.14543">
        <ele>621.4</ele>
        <time>2011-05-15T07:13:20Z</time>
      </trkpt>
      <trkpt lat="45.53047" lon="3.14513">
        <ele>622.6</ele>
        <time>2011-05-15T07:13:30Z</time>
      </trkpt>
      <trkpt lat="45.53048" lon="3.14499">
        <ele>624.2</ele>
        <time>2011-05-15T07:13:34Z</time>
      </trkpt>
      <trkpt lat="45.53054" lon="3.14467">
        <ele>625.2</ele>
        <time>2011-05-15T07:13:45Z</time>
      </trkpt>
      <trkpt lat="45.53062" lon="3.14442">
        <ele>626.4</ele>
        <time>2011-05-15T07:13:53Z</time>
      </trkpt>
      <trkpt lat="45.5307" lon="3.14417">
        <ele>627.6</ele>
        <time>2011-05-15T07:14:01Z</time>
      </trkpt>
      <trkpt lat="45.53081" lon="3.14388">
        <ele>628.6</ele>
        <time>2011-05-15T07:14:10Z</time>
      </trkpt>
      <trkpt lat="45.53086" lon="3.1434">
        <ele>629.8</ele>
        <time>2011-05-15T07:14:22Z</time>
      </trkpt>
      <trkpt lat="45.53085" lon="3.14286">
        <ele>631</ele>
        <time>2011-05-15T07:14:35Z</time>
      </trkpt>
      <trkpt lat="45.53083" lon="3.14274">
        <ele>632.6</ele>
        <time>2011-05-15T07:14:39Z</time>
      </trkpt>
      <trkpt lat="45.53078" lon="3.14243">
        <ele>634</ele>
        <time>2011-05-15T07:14:50Z</time>
      </trkpt>
      <trkpt lat="45.53074" lon="3.14224">
        <ele>635.6</ele>
        <time>2011-05-15T07:14:58Z</time>
      </trkpt>
      <trkpt lat="45.53069" lon="3.14202">
        <ele>637.4</ele>
        <time>2011-05-15T07:15:08Z</time>
      </trkpt>
      <trkpt lat="45.53066" lon="3.14193">
        <ele>639</ele>
        <time>2011-05-15T07:15:12Z</time>
      </trkpt>
      <trkpt lat="45.53061" lon="3.14176">
        <ele>640.4</ele>
        <time>2011-05-15T07:15:20Z</time>
      </trkpt>
      <trkpt lat="45.53055" lon="3.14159">
        <ele>641.6</ele>
        <time>2011-05-15T07:15:28Z</time>
      </trkpt>
      <trkpt lat="45.53053" lon="3.1415">
        <ele>643.2</ele>
        <time>2011-05-15T07:15:32Z</time>
      </trkpt>
      <trkpt lat="45.53047" lon="3.14123">
        <ele>644.8</ele>
        <time>2011-05-15T07:15:43Z</time>
      </trkpt>
      <trkpt lat="45.53043" lon="3.14097">
        <ele>646</ele>
        <time>2011-05-15T07:15:51Z</time>
      </trkpt>
      <trkpt lat="45.53038" lon="3.14057">
        <ele>647.2</ele>
        <time>2011-05-15T07:16:01Z</time>
      </trkpt>
      <trkpt lat="45.53033" lon="3.13953">
        <ele>647.2</ele>
        <time>2011-05-15T07:16:28Z</time>
      </trkpt>
      <trkpt lat="45.53037" lon="3.13956">
        <ele>647.2</ele>
        <time>2011-05-15T07:16:48Z</time>
      </trkpt>
      <trkpt lat="45.53094" lon="3.13964">
        <ele>646.4</ele>
        <time>2011-05-15T07:17:02Z</time>
      </trkpt>
      <trkpt lat="45.53114" lon="3.13958">
        <ele>644.8</ele>
        <time>2011-05-15T07:17:06Z</time>
      </trkpt>
      <trkpt lat="45.53137" lon="3.13952">
        <ele>643.2</ele>
        <time>2011-05-15T07:17:10Z</time>
      </trkpt>
      <trkpt lat="45.53173" lon="3.13951">
        <ele>642.2</ele>
        <time>2011-05-15T07:17:15Z</time>
      </trkpt>
      <trkpt lat="45.53197" lon="3.13953">
        <ele>639.8</ele>
        <time>2011-05-15T07:17:19Z</time>
      </trkpt>
      <trkpt lat="45.53219" lon="3.13944">
        <ele>636.8</ele>
        <time>2011-05-15T07:17:23Z</time>
      </trkpt>
      <trkpt lat="45.53246" lon="3.1393">
        <ele>634.8</ele>
        <time>2011-05-15T07:17:28Z</time>
      </trkpt>
      <trkpt lat="45.53277" lon="3.13914">
        <ele>633</ele>
        <time>2011-05-15T07:17:33Z</time>
      </trkpt>
      <trkpt lat="45.53314" lon="3.13899">
        <ele>631.4</ele>
        <time>2011-05-15T07:17:39Z</time>
      </trkpt>
      <trkpt lat="45.5334" lon="3.13895">
        <ele>629.6</ele>
        <time>2011-05-15T07:17:43Z</time>
      </trkpt>
      <trkpt lat="45.53372" lon="3.13886">
        <ele>627.8</ele>
        <time>2011-05-15T07:17:49Z</time>
      </trkpt>
      <trkpt lat="45.53395" lon="3.1386">
        <ele>627.4</ele>
        <time>2011-05-15T07:17:56Z</time>
      </trkpt>
      <trkpt lat="45.53448" lon="3.13807">
        <ele>628.2</ele>
        <time>2011-05-15T07:18:16Z</time>
      </trkpt>
      <trkpt lat="45.53454" lon="3.13801">
        <ele>629.4</ele>
        <time>2011-05-15T07:18:20Z</time>
      </trkpt>
      <trkpt lat="45.53465" lon="3.13792">
        <ele>630.8</ele>
        <time>2011-05-15T07:18:27Z</time>
      </trkpt>
      <trkpt lat="45.53478" lon="3.13774">
        <ele>632.4</ele>
        <time>2011-05-15T07:18:36Z</time>
      </trkpt>
      <trkpt lat="45.53484" lon="3.13768">
        <ele>633.8</ele>
        <time>2011-05-15T07:18:40Z</time>
      </trkpt>
      <trkpt lat="45.53502" lon="3.1376">
        <ele>635.4</ele>
        <time>2011-05-15T07:18:47Z</time>
      </trkpt>
      <trkpt lat="45.53565" lon="3.13729">
        <ele>635.8</ele>
        <time>2011-05-15T07:19:04Z</time>
      </trkpt>
      <trkpt lat="45.53626" lon="3.13674">
        <ele>635.8</ele>
        <time>2011-05-15T07:19:22Z</time>
      </trkpt>
      <trkpt lat="45.53635" lon="3.13643">
        <ele>635.8</ele>
        <time>2011-05-15T07:19:31Z</time>
      </trkpt>
      <trkpt lat="45.53655" lon="3.13607">
        <ele>636.6</ele>
        <time>2011-05-15T07:19:47Z</time>
      </trkpt>
      <trkpt lat="45.5366" lon="3.13598">
        <ele>638</ele>
        <time>2011-05-15T07:19:51Z</time>
      </trkpt>
      <trkpt lat="45.53671" lon="3.13578">
        <ele>639.6</ele>
        <time>2011-05-15T07:20:00Z</time>
      </trkpt>
      <trkpt lat="45.53694" lon="3.13529">
        <ele>640</ele>
        <time>2011-05-15T07:20:15Z</time>
      </trkpt>
      <trkpt lat="45.53671" lon="3.13505">
        <ele>640.4</ele>
        <time>2011-05-15T07:20:34Z</time>
      </trkpt>
      <trkpt lat="45.53665" lon="3.13501">
        <ele>642</ele>
        <time>2011-05-15T07:20:38Z</time>
      </trkpt>
      <trkpt lat="45.53654" lon="3.13494">
        <ele>643.6</ele>
        <time>2011-05-15T07:20:46Z</time>
      </trkpt>
      <trkpt lat="45.53641" lon="3.13487">
        <ele>644.8</ele>
        <time>2011-05-15T07:20:55Z</time>
      </trkpt>
      <trkpt lat="45.53633" lon="3.1348">
        <ele>646.2</ele>
        <time>2011-05-15T07:21:02Z</time>
      </trkpt>
      <trkpt lat="45.53623" lon="3.13474">
        <ele>647.8</ele>
        <time>2011-05-15T07:21:08Z</time>
      </trkpt>
      <trkpt lat="45.53609" lon="3.13467">
        <ele>648.6</ele>
        <time>2011-05-15T07:21:17Z</time>
      </trkpt>
      <trkpt lat="45.53596" lon="3.13459">
        <ele>650.4</ele>
        <time>2011-05-15T07:21:27Z</time>
      </trkpt>
      <trkpt lat="45.53593" lon="3.13461">
        <ele>652</ele>
        <time>2011-05-15T07:21:31Z</time>
      </trkpt>
      <trkpt lat="45.53579" lon="3.13472">
        <ele>652.4</ele>
        <time>2011-05-15T07:21:41Z</time>
      </trkpt>
      <trkpt lat="45.53556" lon="3.13465">
        <ele>652.8</ele>
        <time>2011-05-15T07:21:52Z</time>
      </trkpt>
      <trkpt lat="45.53549" lon="3.13468">
        <ele>654.4</ele>
        <time>2011-05-15T07:21:56Z</time>
      </trkpt>
      <trkpt lat="45.53518" lon="3.13471">
        <ele>655.4</ele>
        <time>2011-05-15T07:22:11Z</time>
      </trkpt>
      <trkpt lat="45.535" lon="3.13469">
        <ele>656.6</ele>
        <time>2011-05-15T07:22:20Z</time>
      </trkpt>
      <trkpt lat="45.53485" lon="3.13471">
        <ele>658.2</ele>
        <time>2011-05-15T07:22:28Z</time>
      </trkpt>
      <trkpt lat="45.53465" lon="3.13472">
        <ele>659</ele>
        <time>2011-05-15T07:22:41Z</time>
      </trkpt>
      <trkpt lat="45.53461" lon="3.1347">
        <ele>660.6</ele>
        <time>2011-05-15T07:22:45Z</time>
      </trkpt>
      <trkpt lat="45.53455" lon="3.13465">
        <ele>662</ele>
        <time>2011-05-15T07:22:56Z</time>
      </trkpt>
      <trkpt lat="45.53452" lon="3.13459">
        <ele>662.8</ele>
        <time>2011-05-15T07:23:01Z</time>
      </trkpt>
      <trkpt lat="45.53457" lon="3.13454">
        <ele>662.8</ele>
        <time>2011-05-15T07:23:12Z</time>
      </trkpt>
      <trkpt lat="45.5347" lon="3.13433">
        <ele>663.6</ele>
        <time>2011-05-15T07:23:21Z</time>
      </trkpt>
      <trkpt lat="45.53471" lon="3.1342">
        <ele>664.8</ele>
        <time>2011-05-15T07:23:25Z</time>
      </trkpt>
      <trkpt lat="45.53475" lon="3.13402">
        <ele>666.4</ele>
        <time>2011-05-15T07:23:31Z</time>
      </trkpt>
      <trkpt lat="45.53496" lon="3.13376">
        <ele>667.4</ele>
        <time>2011-05-15T07:23:43Z</time>
      </trkpt>
      <trkpt lat="45.53504" lon="3.13367">
        <ele>669</ele>
        <time>2011-05-15T07:23:47Z</time>
      </trkpt>
      <trkpt lat="45.5355" lon="3.13323">
        <ele>668.6</ele>
        <time>2011-05-15T07:24:03Z</time>
      </trkpt>
      <trkpt lat="45.53565" lon="3.13313">
        <ele>666.8</ele>
        <time>2011-05-15T07:24:07Z</time>
      </trkpt>
      <trkpt lat="45.53586" lon="3.13304">
        <ele>664.6</ele>
        <time>2011-05-15T07:24:14Z</time>
      </trkpt>
      <trkpt lat="45.53592" lon="3.13277">
        <ele>664.6</ele>
        <time>2011-05-15T07:24:23Z</time>
      </trkpt>
      <trkpt lat="45.53598" lon="3.13235">
        <ele>666</ele>
        <time>2011-05-15T07:24:32Z</time>
      </trkpt>
      <trkpt lat="45.53604" lon="3.13203">
        <ele>667.2</ele>
        <time>2011-05-15T07:24:39Z</time>
      </trkpt>
      <trkpt lat="45.53608" lon="3.13184">
        <ele>668.8</ele>
        <time>2011-05-15T07:24:43Z</time>
      </trkpt>
      <trkpt lat="45.53615" lon="3.13135">
        <ele>670.2</ele>
        <time>2011-05-15T07:24:55Z</time>
      </trkpt>
      <trkpt lat="45.53629" lon="3.13083">
        <ele>671</ele>
        <time>2011-05-15T07:25:07Z</time>
      </trkpt>
      <trkpt lat="45.53636" lon="3.13056">
        <ele>672.2</ele>
        <time>2011-05-15T07:25:15Z</time>
      </trkpt>
      <trkpt lat="45.53623" lon="3.13016">
        <ele>673</ele>
        <time>2011-05-15T07:25:26Z</time>
      </trkpt>
      <trkpt lat="45.5362" lon="3.13002">
        <ele>674.8</ele>
        <time>2011-05-15T07:25:30Z</time>
      </trkpt>
      <trkpt lat="45.53619" lon="3.12965">
        <ele>675.2</ele>
        <time>2011-05-15T07:25:41Z</time>
      </trkpt>
      <trkpt lat="45.53616" lon="3.12959">
        <ele>673.4</ele>
        <time>2011-05-15T07:25:45Z</time>
      </trkpt>
      <trkpt lat="45.53606" lon="3.12961">
        <ele>674</ele>
        <time>2011-05-15T07:25:55Z</time>
      </trkpt>
      <trkpt lat="45.53604" lon="3.12961">
        <ele>675.2</ele>
        <time>2011-05-15T07:25:59Z</time>
      </trkpt>
      <trkpt lat="45.53598" lon="3.12959">
        <ele>676</ele>
        <time>2011-05-15T07:26:08Z</time>
      </trkpt>
      <trkpt lat="45.53595" lon="3.12959">
        <ele>677.4</ele>
        <time>2011-05-15T07:26:12Z</time>
      </trkpt>
      <trkpt lat="45.53586" lon="3.12958">
        <ele>679</ele>
        <time>2011-05-15T07:26:20Z</time>
      </trkpt>
      <trkpt lat="45.53576" lon="3.1296">
        <ele>680.2</ele>
        <time>2011-05-15T07:26:30Z</time>
      </trkpt>
      <trkpt lat="45.5357" lon="3.12958">
        <ele>681.4</ele>
        <time>2011-05-15T07:26:36Z</time>
      </trkpt>
      <trkpt lat="45.53559" lon="3.12955">
        <ele>682.4</ele>
        <time>2011-05-15T07:26:45Z</time>
      </trkpt>
      <trkpt lat="45.53554" lon="3.12949">
        <ele>683.6</ele>
        <time>2011-05-15T07:26:49Z</time>
      </trkpt>
      <trkpt lat="45.53538" lon="3.1292">
        <ele>684.4</ele>
        <time>2011-05-15T07:27:04Z</time>
      </trkpt>
      <trkpt lat="45.53534" lon="3.12905">
        <ele>686.4</ele>
        <time>2011-05-15T07:27:12Z</time>
      </trkpt>
      <trkpt lat="45.53529" lon="3.12894">
        <ele>687.8</ele>
        <time>2011-05-15T07:27:18Z</time>
      </trkpt>
      <trkpt lat="45.53526" lon="3.12886">
        <ele>689.6</ele>
        <time>2011-05-15T07:27:22Z</time>
      </trkpt>
      <trkpt lat="45.53521" lon="3.12873">
        <ele>690.4</ele>
        <time>2011-05-15T07:27:29Z</time>
      </trkpt>
      <trkpt lat="45.53518" lon="3.12867">
        <ele>692</ele>
        <time>2011-05-15T07:27:33Z</time>
      </trkpt>
      <trkpt lat="45.53513" lon="3.1285">
        <ele>693.2</ele>
        <time>2011-05-15T07:27:41Z</time>
      </trkpt>
      <trkpt lat="45.53508" lon="3.12839">
        <ele>694.2</ele>
        <time>2011-05-15T07:27:46Z</time>
      </trkpt>
      <trkpt lat="45.53502" lon="3.12824">
        <ele>695.8</ele>
        <time>2011-05-15T07:27:52Z</time>
      </trkpt>
      <trkpt lat="45.5349" lon="3.12793">
        <ele>696.6</ele>
        <time>2011-05-15T07:28:04Z</time>
      </trkpt>
      <trkpt lat="45.53487" lon="3.12781">
        <ele>698.2</ele>
        <time>2011-05-15T07:28:08Z</time>
      </trkpt>
      <trkpt lat="45.53478" lon="3.12749">
        <ele>698.2</ele>
        <time>2011-05-15T07:28:19Z</time>
      </trkpt>
      <trkpt lat="45.53474" lon="3.12737">
        <ele>699.8</ele>
        <time>2011-05-15T07:28:25Z</time>
      </trkpt>
      <trkpt lat="45.53468" lon="3.12726">
        <ele>700.6</ele>
        <time>2011-05-15T07:28:32Z</time>
      </trkpt>
      <trkpt lat="45.53467" lon="3.12719">
        <ele>702.2</ele>
        <time>2011-05-15T07:28:36Z</time>
      </trkpt>
      <trkpt lat="45.53461" lon="3.12706">
        <ele>703.2</ele>
        <time>2011-05-15T07:28:43Z</time>
      </trkpt>
      <trkpt lat="45.53457" lon="3.12695">
        <ele>704.8</ele>
        <time>2011-05-15T07:28:50Z</time>
      </trkpt>
      <trkpt lat="45.53454" lon="3.12689">
        <ele>706.6</ele>
        <time>2011-05-15T07:28:54Z</time>
      </trkpt>
      <trkpt lat="45.53448" lon="3.12673">
        <ele>708</ele>
        <time>2011-05-15T07:29:02Z</time>
      </trkpt>
      <trkpt lat="45.53443" lon="3.12649">
        <ele>709.2</ele>
        <time>2011-05-15T07:29:11Z</time>
      </trkpt>
      <trkpt lat="45.53438" lon="3.12638">
        <ele>711</ele>
        <time>2011-05-15T07:29:15Z</time>
      </trkpt>
      <trkpt lat="45.53408" lon="3.12575">
        <ele>711</ele>
        <time>2011-05-15T07:29:31Z</time>
      </trkpt>
      <trkpt lat="45.53418" lon="3.12541">
        <ele>711</ele>
        <time>2011-05-15T07:29:41Z</time>
      </trkpt>
      <trkpt lat="45.53444" lon="3.12514">
        <ele>709.6</ele>
        <time>2011-05-15T07:29:49Z</time>
      </trkpt>
      <trkpt lat="45.5346" lon="3.12499">
        <ele>707.2</ele>
        <time>2011-05-15T07:29:53Z</time>
      </trkpt>
      <trkpt lat="45.53473" lon="3.12485">
        <ele>704.8</ele>
        <time>2011-05-15T07:29:57Z</time>
      </trkpt>
      <trkpt lat="45.53485" lon="3.12467">
        <ele>701.6</ele>
        <time>2011-05-15T07:30:01Z</time>
      </trkpt>
      <trkpt lat="45.53497" lon="3.12447">
        <ele>698.8</ele>
        <time>2011-05-15T07:30:05Z</time>
      </trkpt>
      <trkpt lat="45.53506" lon="3.12432">
        <ele>695.6</ele>
        <time>2011-05-15T07:30:09Z</time>
      </trkpt>
      <trkpt lat="45.53512" lon="3.12411">
        <ele>692.4</ele>
        <time>2011-05-15T07:30:13Z</time>
      </trkpt>
      <trkpt lat="45.53523" lon="3.12384">
        <ele>689.4</ele>
        <time>2011-05-15T07:30:17Z</time>
      </trkpt>
      <trkpt lat="45.53535" lon="3.1236">
        <ele>687</ele>
        <time>2011-05-15T07:30:21Z</time>
      </trkpt>
      <trkpt lat="45.53544" lon="3.1234">
        <ele>683.8</ele>
        <time>2011-05-15T07:30:25Z</time>
      </trkpt>
      <trkpt lat="45.53549" lon="3.12322">
        <ele>681.4</ele>
        <time>2011-05-15T07:30:29Z</time>
      </trkpt>
      <trkpt lat="45.53566" lon="3.12302">
        <ele>679.2</ele>
        <time>2011-05-15T07:30:34Z</time>
      </trkpt>
      <trkpt lat="45.53593" lon="3.12283">
        <ele>677.2</ele>
        <time>2011-05-15T07:30:38Z</time>
      </trkpt>
      <trkpt lat="45.53617" lon="3.12262">
        <ele>674.2</ele>
        <time>2011-05-15T07:30:42Z</time>
      </trkpt>
      <trkpt lat="45.5363" lon="3.12242">
        <ele>670.4</ele>
        <time>2011-05-15T07:30:46Z</time>
      </trkpt>
      <trkpt lat="45.53642" lon="3.12214">
        <ele>665.8</ele>
        <time>2011-05-15T07:30:50Z</time>
      </trkpt>
      <trkpt lat="45.53662" lon="3.12179">
        <ele>662.4</ele>
        <time>2011-05-15T07:30:54Z</time>
      </trkpt>
      <trkpt lat="45.53687" lon="3.12153">
        <ele>658.6</ele>
        <time>2011-05-15T07:30:58Z</time>
      </trkpt>
      <trkpt lat="45.53713" lon="3.12126">
        <ele>654.6</ele>
        <time>2011-05-15T07:31:02Z</time>
      </trkpt>
      <trkpt lat="45.53739" lon="3.12097">
        <ele>650.6</ele>
        <time>2011-05-15T07:31:06Z</time>
      </trkpt>
      <trkpt lat="45.53765" lon="3.12068">
        <ele>646.6</ele>
        <time>2011-05-15T07:31:10Z</time>
      </trkpt>
      <trkpt lat="45.53791" lon="3.12038">
        <ele>641.6</ele>
        <time>2011-05-15T07:31:14Z</time>
      </trkpt>
      <trkpt lat="45.53818" lon="3.12006">
        <ele>637.4</ele>
        <time>2011-05-15T07:31:18Z</time>
      </trkpt>
      <trkpt lat="45.53845" lon="3.11976">
        <ele>633.8</ele>
        <time>2011-05-15T07:31:22Z</time>
      </trkpt>
      <trkpt lat="45.53865" lon="3.11951">
        <ele>629</ele>
        <time>2011-05-15T07:31:26Z</time>
      </trkpt>
      <trkpt lat="45.5387" lon="3.11929">
        <ele>624.8</ele>
        <time>2011-05-15T07:31:30Z</time>
      </trkpt>
      <trkpt lat="45.53861" lon="3.1191">
        <ele>621.4</ele>
        <time>2011-05-15T07:31:34Z</time>
      </trkpt>
      <trkpt lat="45.53821" lon="3.11876">
        <ele>620.6</ele>
        <time>2011-05-15T07:31:48Z</time>
      </trkpt>
      <trkpt lat="45.53791" lon="3.11868">
        <ele>622.2</ele>
        <time>2011-05-15T07:31:58Z</time>
      </trkpt>
      <trkpt lat="45.53775" lon="3.11865">
        <ele>623.4</ele>
        <time>2011-05-15T07:32:05Z</time>
      </trkpt>
      <trkpt lat="45.53767" lon="3.11861">
        <ele>624.6</ele>
        <time>2011-05-15T07:32:09Z</time>
      </trkpt>
      <trkpt lat="45.53752" lon="3.11847">
        <ele>625.6</ele>
        <time>2011-05-15T07:32:17Z</time>
      </trkpt>
      <trkpt lat="45.53732" lon="3.11826">
        <ele>626.8</ele>
        <time>2011-05-15T07:32:27Z</time>
      </trkpt>
      <trkpt lat="45.53695" lon="3.11787">
        <ele>627.6</ele>
        <time>2011-05-15T07:32:43Z</time>
      </trkpt>
      <trkpt lat="45.53686" lon="3.11777">
        <ele>628.8</ele>
        <time>2011-05-15T07:32:47Z</time>
      </trkpt>
      <trkpt lat="45.5366" lon="3.11749">
        <ele>630</ele>
        <time>2011-05-15T07:33:01Z</time>
      </trkpt>
      <trkpt lat="45.53646" lon="3.11737">
        <ele>631.4</ele>
        <time>2011-05-15T07:33:10Z</time>
      </trkpt>
      <trkpt lat="45.53639" lon="3.11731">
        <ele>633</ele>
        <time>2011-05-15T07:33:14Z</time>
      </trkpt>
      <trkpt lat="45.53621" lon="3.11715">
        <ele>634.2</ele>
        <time>2011-05-15T07:33:26Z</time>
      </trkpt>
      <trkpt lat="45.53605" lon="3.11701">
        <ele>635.6</ele>
        <time>2011-05-15T07:33:37Z</time>
      </trkpt>
      <trkpt lat="45.536" lon="3.11696">
        <ele>637.2</ele>
        <time>2011-05-15T07:33:41Z</time>
      </trkpt>
      <trkpt lat="45.53585" lon="3.11681">
        <ele>638.4</ele>
        <time>2011-05-15T07:33:52Z</time>
      </trkpt>
      <trkpt lat="45.53573" lon="3.11671">
        <ele>639.2</ele>
        <time>2011-05-15T07:34:02Z</time>
      </trkpt>
      <trkpt lat="45.53565" lon="3.11666">
        <ele>639.2</ele>
        <time>2011-05-15T07:34:12Z</time>
      </trkpt>
      <trkpt lat="45.53563" lon="3.11663">
        <ele>640.8</ele>
        <time>2011-05-15T07:34:16Z</time>
      </trkpt>
      <trkpt lat="45.53555" lon="3.11656">
        <ele>641.2</ele>
        <time>2011-05-15T07:34:27Z</time>
      </trkpt>
      <trkpt lat="45.53546" lon="3.11646">
        <ele>641.2</ele>
        <time>2011-05-15T07:34:48Z</time>
      </trkpt>
      <trkpt lat="45.53542" lon="3.11642">
        <ele>642.4</ele>
        <time>2011-05-15T07:34:53Z</time>
      </trkpt>
      <trkpt lat="45.53537" lon="3.11637">
        <ele>643.4</ele>
        <time>2011-05-15T07:35:00Z</time>
      </trkpt>
      <trkpt lat="45.53533" lon="3.1163">
        <ele>643.4</ele>
        <time>2011-05-15T07:35:14Z</time>
      </trkpt>
      <trkpt lat="45.53523" lon="3.1162">
        <ele>644.6</ele>
        <time>2011-05-15T07:35:24Z</time>
      </trkpt>
      <trkpt lat="45.53513" lon="3.11608">
        <ele>645.4</ele>
        <time>2011-05-15T07:35:34Z</time>
      </trkpt>
      <trkpt lat="45.53511" lon="3.11603">
        <ele>646.6</ele>
        <time>2011-05-15T07:35:39Z</time>
      </trkpt>
      <trkpt lat="45.53502" lon="3.11592">
        <ele>647.4</ele>
        <time>2011-05-15T07:35:55Z</time>
      </trkpt>
      <trkpt lat="45.53489" lon="3.11577">
        <ele>648.6</ele>
        <time>2011-05-15T07:36:05Z</time>
      </trkpt>
      <trkpt lat="45.53474" lon="3.11559">
        <ele>649.4</ele>
        <time>2011-05-15T07:36:14Z</time>
      </trkpt>
      <trkpt lat="45.53431" lon="3.1152">
        <ele>649.4</ele>
        <time>2011-05-15T07:36:36Z</time>
      </trkpt>
      <trkpt lat="45.53386" lon="3.11471">
        <ele>649.8</ele>
        <time>2011-05-15T07:37:00Z</time>
      </trkpt>
      <trkpt lat="45.53379" lon="3.11464">
        <ele>651.4</ele>
        <time>2011-05-15T07:37:04Z</time>
      </trkpt>
      <trkpt lat="45.53348" lon="3.11436">
        <ele>651.8</ele>
        <time>2011-05-15T07:37:21Z</time>
      </trkpt>
      <trkpt lat="45.53342" lon="3.11432">
        <ele>653.6</ele>
        <time>2011-05-15T07:37:25Z</time>
      </trkpt>
      <trkpt lat="45.5333" lon="3.11424">
        <ele>655.4</ele>
        <time>2011-05-15T07:37:34Z</time>
      </trkpt>
      <trkpt lat="45.53322" lon="3.11418">
        <ele>656.6</ele>
        <time>2011-05-15T07:37:44Z</time>
      </trkpt>
      <trkpt lat="45.53322" lon="3.11418">
        <ele>658</ele>
        <time>2011-05-15T07:37:54Z</time>
      </trkpt>
      <trkpt lat="45.53314" lon="3.11407">
        <ele>658.4</ele>
        <time>2011-05-15T07:38:21Z</time>
      </trkpt>
      <trkpt lat="45.53315" lon="3.11408">
        <ele>660</ele>
        <time>2011-05-15T07:38:25Z</time>
      </trkpt>
      <trkpt lat="45.533" lon="3.11394">
        <ele>660</ele>
        <time>2011-05-15T07:38:42Z</time>
      </trkpt>
      <trkpt lat="45.53295" lon="3.11392">
        <ele>660</ele>
        <time>2011-05-15T07:39:07Z</time>
      </trkpt>
      <trkpt lat="45.5329" lon="3.11387">
        <ele>661.2</ele>
        <time>2011-05-15T07:39:11Z</time>
      </trkpt>
      <trkpt lat="45.53286" lon="3.11383">
        <ele>662</ele>
        <time>2011-05-15T07:39:15Z</time>
      </trkpt>
      <trkpt lat="45.53275" lon="3.11373">
        <ele>662</ele>
        <time>2011-05-15T07:39:25Z</time>
      </trkpt>
      <trkpt lat="45.53273" lon="3.11371">
        <ele>663.8</ele>
        <time>2011-05-15T07:39:30Z</time>
      </trkpt>
      <trkpt lat="45.53268" lon="3.11368">
        <ele>664.2</ele>
        <time>2011-05-15T07:39:48Z</time>
      </trkpt>
      <trkpt lat="45.53253" lon="3.11356">
        <ele>665.4</ele>
        <time>2011-05-15T07:40:00Z</time>
      </trkpt>
      <trkpt lat="45.53234" lon="3.11338">
        <ele>667.2</ele>
        <time>2011-05-15T07:40:16Z</time>
      </trkpt>
      <trkpt lat="45.53226" lon="3.11332">
        <ele>668.4</ele>
        <time>2011-05-15T07:40:23Z</time>
      </trkpt>
      <trkpt lat="45.5322" lon="3.11324">
        <ele>670.2</ele>
        <time>2011-05-15T07:40:30Z</time>
      </trkpt>
      <trkpt lat="45.5321" lon="3.11315">
        <ele>671.8</ele>
        <time>2011-05-15T07:40:38Z</time>
      </trkpt>
      <trkpt lat="45.53202" lon="3.11308">
        <ele>673.4</ele>
        <time>2011-05-15T07:40:45Z</time>
      </trkpt>
      <trkpt lat="45.53199" lon="3.11304">
        <ele>674.6</ele>
        <time>2011-05-15T07:40:49Z</time>
      </trkpt>
      <trkpt lat="45.53191" lon="3.11295">
        <ele>676.4</ele>
        <time>2011-05-15T07:40:56Z</time>
      </trkpt>
      <trkpt lat="45.53181" lon="3.11288">
        <ele>677.6</ele>
        <time>2011-05-15T07:41:04Z</time>
      </trkpt>
      <trkpt lat="45.53175" lon="3.11272">
        <ele>679.4</ele>
        <time>2011-05-15T07:41:13Z</time>
      </trkpt>
      <trkpt lat="45.53171" lon="3.11265">
        <ele>681.2</ele>
        <time>2011-05-15T07:41:17Z</time>
      </trkpt>
      <trkpt lat="45.53156" lon="3.11233">
        <ele>681.2</ele>
        <time>2011-05-15T07:41:33Z</time>
      </trkpt>
      <trkpt lat="45.53151" lon="3.11225">
        <ele>682.8</ele>
        <time>2011-05-15T07:41:37Z</time>
      </trkpt>
      <trkpt lat="45.53139" lon="3.11202">
        <ele>684</ele>
        <time>2011-05-15T07:41:49Z</time>
      </trkpt>
      <trkpt lat="45.53131" lon="3.1119">
        <ele>685.4</ele>
        <time>2011-05-15T07:41:55Z</time>
      </trkpt>
      <trkpt lat="45.53114" lon="3.11164">
        <ele>686.6</ele>
        <time>2011-05-15T07:42:05Z</time>
      </trkpt>
      <trkpt lat="45.53093" lon="3.1112">
        <ele>687.4</ele>
        <time>2011-05-15T07:42:19Z</time>
      </trkpt>
      <trkpt lat="45.53075" lon="3.11077">
        <ele>688.6</ele>
        <time>2011-05-15T07:42:32Z</time>
      </trkpt>
      <trkpt lat="45.53059" lon="3.11044">
        <ele>689.4</ele>
        <time>2011-05-15T07:42:43Z</time>
      </trkpt>
      <trkpt lat="45.53036" lon="3.10999">
        <ele>690.2</ele>
        <time>2011-05-15T07:42:59Z</time>
      </trkpt>
      <trkpt lat="45.5303" lon="3.1099">
        <ele>691.6</ele>
        <time>2011-05-15T07:43:03Z</time>
      </trkpt>
      <trkpt lat="45.53011" lon="3.11003">
        <ele>692</ele>
        <time>2011-05-15T07:43:13Z</time>
      </trkpt>
      <trkpt lat="45.53006" lon="3.11005">
        <ele>693.8</ele>
        <time>2011-05-15T07:43:17Z</time>
      </trkpt>
      <trkpt lat="45.52991" lon="3.11011">
        <ele>695</ele>
        <time>2011-05-15T07:43:28Z</time>
      </trkpt>
      <trkpt lat="45.52979" lon="3.11014">
        <ele>696.2</ele>
        <time>2011-05-15T07:43:36Z</time>
      </trkpt>
      <trkpt lat="45.52972" lon="3.11015">
        <ele>697.8</ele>
        <time>2011-05-15T07:43:40Z</time>
      </trkpt>
      <trkpt lat="45.52953" lon="3.10992">
        <ele>697.8</ele>
        <time>2011-05-15T07:43:53Z</time>
      </trkpt>
      <trkpt lat="45.52946" lon="3.10987">
        <ele>699.4</ele>
        <time>2011-05-15T07:43:57Z</time>
      </trkpt>
      <trkpt lat="45.5293" lon="3.10992">
        <ele>700.4</ele>
        <time>2011-05-15T07:44:08Z</time>
      </trkpt>
      <trkpt lat="45.52923" lon="3.10995">
        <ele>702</ele>
        <time>2011-05-15T07:44:12Z</time>
      </trkpt>
      <trkpt lat="45.52912" lon="3.10994">
        <ele>703.2</ele>
        <time>2011-05-15T07:44:20Z</time>
      </trkpt>
      <trkpt lat="45.52903" lon="3.10987">
        <ele>704.4</ele>
        <time>2011-05-15T07:44:28Z</time>
      </trkpt>
      <trkpt lat="45.52898" lon="3.10983">
        <ele>706</ele>
        <time>2011-05-15T07:44:32Z</time>
      </trkpt>
      <trkpt lat="45.5289" lon="3.10972">
        <ele>707.8</ele>
        <time>2011-05-15T07:44:40Z</time>
      </trkpt>
      <trkpt lat="45.52887" lon="3.10968">
        <ele>708.6</ele>
        <time>2011-05-15T07:44:44Z</time>
      </trkpt>
      <trkpt lat="45.52883" lon="3.10961">
        <ele>710.4</ele>
        <time>2011-05-15T07:44:48Z</time>
      </trkpt>
      <trkpt lat="45.52878" lon="3.1095">
        <ele>712</ele>
        <time>2011-05-15T07:44:54Z</time>
      </trkpt>
      <trkpt lat="45.52853" lon="3.10891">
        <ele>712.4</ele>
        <time>2011-05-15T07:45:10Z</time>
      </trkpt>
      <trkpt lat="45.52828" lon="3.10848">
        <ele>712.4</ele>
        <time>2011-05-15T07:45:19Z</time>
      </trkpt>
      <trkpt lat="45.5281" lon="3.10821">
        <ele>710.8</ele>
        <time>2011-05-15T07:45:24Z</time>
      </trkpt>
      <trkpt lat="45.52792" lon="3.10781">
        <ele>710.4</ele>
        <time>2011-05-15T07:45:34Z</time>
      </trkpt>
      <trkpt lat="45.52758" lon="3.10708">
        <ele>710.4</ele>
        <time>2011-05-15T07:45:55Z</time>
      </trkpt>
      <trkpt lat="45.52748" lon="3.10676">
        <ele>711.6</ele>
        <time>2011-05-15T07:46:03Z</time>
      </trkpt>
      <trkpt lat="45.52736" lon="3.10637">
        <ele>712.4</ele>
        <time>2011-05-15T07:46:13Z</time>
      </trkpt>
      <trkpt lat="45.52728" lon="3.10608">
        <ele>714</ele>
        <time>2011-05-15T07:46:20Z</time>
      </trkpt>
      <trkpt lat="45.52708" lon="3.1057">
        <ele>715.2</ele>
        <time>2011-05-15T07:46:31Z</time>
      </trkpt>
      <trkpt lat="45.52686" lon="3.10532">
        <ele>716.6</ele>
        <time>2011-05-15T07:46:41Z</time>
      </trkpt>
      <trkpt lat="45.52645" lon="3.10458">
        <ele>716.6</ele>
        <time>2011-05-15T07:46:58Z</time>
      </trkpt>
      <trkpt lat="45.52603" lon="3.1038">
        <ele>716.6</ele>
        <time>2011-05-15T07:47:13Z</time>
      </trkpt>
      <trkpt lat="45.5258" lon="3.10307">
        <ele>716.6</ele>
        <time>2011-05-15T07:47:28Z</time>
      </trkpt>
      <trkpt lat="45.52613" lon="3.1023">
        <ele>716</ele>
        <time>2011-05-15T07:47:38Z</time>
      </trkpt>
      <trkpt lat="45.52629" lon="3.10196">
        <ele>713</ele>
        <time>2011-05-15T07:47:42Z</time>
      </trkpt>
      <trkpt lat="45.52646" lon="3.10167">
        <ele>709.6</ele>
        <time>2011-05-15T07:47:46Z</time>
      </trkpt>
      <trkpt lat="45.52664" lon="3.10135">
        <ele>705.2</ele>
        <time>2011-05-15T07:47:50Z</time>
      </trkpt>
      <trkpt lat="45.52683" lon="3.10099">
        <ele>701</ele>
        <time>2011-05-15T07:47:54Z</time>
      </trkpt>
      <trkpt lat="45.52702" lon="3.10061">
        <ele>697</ele>
        <time>2011-05-15T07:47:58Z</time>
      </trkpt>
      <trkpt lat="45.52716" lon="3.10029">
        <ele>693</ele>
        <time>2011-05-15T07:48:02Z</time>
      </trkpt>
      <trkpt lat="45.52726" lon="3.10008">
        <ele>688.4</ele>
        <time>2011-05-15T07:48:06Z</time>
      </trkpt>
      <trkpt lat="45.5274" lon="3.09965">
        <ele>688.8</ele>
        <time>2011-05-15T07:48:25Z</time>
      </trkpt>
      <trkpt lat="45.52741" lon="3.09957">
        <ele>690.4</ele>
        <time>2011-05-15T07:48:29Z</time>
      </trkpt>
      <trkpt lat="45.52741" lon="3.09943">
        <ele>692</ele>
        <time>2011-05-15T07:48:36Z</time>
      </trkpt>
      <trkpt lat="45.52742" lon="3.09928">
        <ele>693.4</ele>
        <time>2011-05-15T07:48:43Z</time>
      </trkpt>
      <trkpt lat="45.52743" lon="3.09915">
        <ele>694.6</ele>
        <time>2011-05-15T07:48:50Z</time>
      </trkpt>
      <trkpt lat="45.52744" lon="3.09904">
        <ele>696.6</ele>
        <time>2011-05-15T07:48:55Z</time>
      </trkpt>
      <trkpt lat="45.52746" lon="3.09885">
        <ele>697.8</ele>
        <time>2011-05-15T07:49:04Z</time>
      </trkpt>
      <trkpt lat="45.52747" lon="3.09865">
        <ele>699.2</ele>
        <time>2011-05-15T07:49:14Z</time>
      </trkpt>
      <trkpt lat="45.52749" lon="3.09857">
        <ele>700.8</ele>
        <time>2011-05-15T07:49:18Z</time>
      </trkpt>
      <trkpt lat="45.52754" lon="3.09839">
        <ele>702</ele>
        <time>2011-05-15T07:49:27Z</time>
      </trkpt>
      <trkpt lat="45.52761" lon="3.09818">
        <ele>703.4</ele>
        <time>2011-05-15T07:49:37Z</time>
      </trkpt>
      <trkpt lat="45.52761" lon="3.09808">
        <ele>705</ele>
        <time>2011-05-15T07:49:41Z</time>
      </trkpt>
      <trkpt lat="45.52757" lon="3.09788">
        <ele>706.8</ele>
        <time>2011-05-15T07:49:50Z</time>
      </trkpt>
      <trkpt lat="45.52762" lon="3.09765">
        <ele>708.2</ele>
        <time>2011-05-15T07:50:00Z</time>
      </trkpt>
      <trkpt lat="45.52765" lon="3.09757">
        <ele>709.4</ele>
        <time>2011-05-15T07:50:04Z</time>
      </trkpt>
      <trkpt lat="45.52775" lon="3.09743">
        <ele>711</ele>
        <time>2011-05-15T07:50:13Z</time>
      </trkpt>
      <trkpt lat="45.52786" lon="3.09733">
        <ele>712.8</ele>
        <time>2011-05-15T07:50:22Z</time>
      </trkpt>
      <trkpt lat="45.52798" lon="3.09729">
        <ele>714</ele>
        <time>2011-05-15T07:50:31Z</time>
      </trkpt>
      <trkpt lat="45.52806" lon="3.09727">
        <ele>715.6</ele>
        <time>2011-05-15T07:50:37Z</time>
      </trkpt>
      <trkpt lat="45.52815" lon="3.09726">
        <ele>717.2</ele>
        <time>2011-05-15T07:50:43Z</time>
      </trkpt>
      <trkpt lat="45.52826" lon="3.09726">
        <ele>718.4</ele>
        <time>2011-05-15T07:50:52Z</time>
      </trkpt>
      <trkpt lat="45.52835" lon="3.09726">
        <ele>719.6</ele>
        <time>2011-05-15T07:50:59Z</time>
      </trkpt>
      <trkpt lat="45.52841" lon="3.09726">
        <ele>721.4</ele>
        <time>2011-05-15T07:51:03Z</time>
      </trkpt>
      <trkpt lat="45.52853" lon="3.09732">
        <ele>722.6</ele>
        <time>2011-05-15T07:51:12Z</time>
      </trkpt>
      <trkpt lat="45.52862" lon="3.09731">
        <ele>723.8</ele>
        <time>2011-05-15T07:51:19Z</time>
      </trkpt>
      <trkpt lat="45.52864" lon="3.09724">
        <ele>725.8</ele>
        <time>2011-05-15T07:51:23Z</time>
      </trkpt>
      <trkpt lat="45.52863" lon="3.09717">
        <ele>726.6</ele>
        <time>2011-05-15T07:51:30Z</time>
      </trkpt>
      <trkpt lat="45.52866" lon="3.09728">
        <ele>727.8</ele>
        <time>2011-05-15T07:51:34Z</time>
      </trkpt>
      <trkpt lat="45.52875" lon="3.09719">
        <ele>727.8</ele>
        <time>2011-05-15T07:51:41Z</time>
      </trkpt>
      <trkpt lat="45.52875" lon="3.09703">
        <ele>729.2</ele>
        <time>2011-05-15T07:51:50Z</time>
      </trkpt>
      <trkpt lat="45.52868" lon="3.09686">
        <ele>730.8</ele>
        <time>2011-05-15T07:52:00Z</time>
      </trkpt>
      <trkpt lat="45.52864" lon="3.09678">
        <ele>732.2</ele>
        <time>2011-05-15T07:52:05Z</time>
      </trkpt>
      <trkpt lat="45.5286" lon="3.09666">
        <ele>734.4</ele>
        <time>2011-05-15T07:52:12Z</time>
      </trkpt>
      <trkpt lat="45.52856" lon="3.09648">
        <ele>735.6</ele>
        <time>2011-05-15T07:52:22Z</time>
      </trkpt>
      <trkpt lat="45.52853" lon="3.0963">
        <ele>737</ele>
        <time>2011-05-15T07:52:32Z</time>
      </trkpt>
      <trkpt lat="45.52852" lon="3.09622">
        <ele>739.2</ele>
        <time>2011-05-15T07:52:36Z</time>
      </trkpt>
      <trkpt lat="45.52853" lon="3.096">
        <ele>740.4</ele>
        <time>2011-05-15T07:52:47Z</time>
      </trkpt>
      <trkpt lat="45.52859" lon="3.09591">
        <ele>741.2</ele>
        <time>2011-05-15T07:52:53Z</time>
      </trkpt>
      <trkpt lat="45.52865" lon="3.09588">
        <ele>742.8</ele>
        <time>2011-05-15T07:52:58Z</time>
      </trkpt>
      <trkpt lat="45.52873" lon="3.09583">
        <ele>744.2</ele>
        <time>2011-05-15T07:53:05Z</time>
      </trkpt>
      <trkpt lat="45.5288" lon="3.09579">
        <ele>745.4</ele>
        <time>2011-05-15T07:53:11Z</time>
      </trkpt>
      <trkpt lat="45.52887" lon="3.09576">
        <ele>747.2</ele>
        <time>2011-05-15T07:53:16Z</time>
      </trkpt>
      <trkpt lat="45.52896" lon="3.09569">
        <ele>748.8</ele>
        <time>2011-05-15T07:53:24Z</time>
      </trkpt>
      <trkpt lat="45.52904" lon="3.09565">
        <ele>750.6</ele>
        <time>2011-05-15T07:53:30Z</time>
      </trkpt>
      <trkpt lat="45.52911" lon="3.09567">
        <ele>751.8</ele>
        <time>2011-05-15T07:53:35Z</time>
      </trkpt>
      <trkpt lat="45.52914" lon="3.09577">
        <ele>753</ele>
        <time>2011-05-15T07:53:40Z</time>
      </trkpt>
      <trkpt lat="45.52922" lon="3.09594">
        <ele>754.2</ele>
        <time>2011-05-15T07:53:49Z</time>
      </trkpt>
      <trkpt lat="45.52931" lon="3.09603">
        <ele>756</ele>
        <time>2011-05-15T07:53:54Z</time>
      </trkpt>
      <trkpt lat="45.52952" lon="3.09616">
        <ele>757.8</ele>
        <time>2011-05-15T07:54:05Z</time>
      </trkpt>
      <trkpt lat="45.52972" lon="3.09628">
        <ele>759.4</ele>
        <time>2011-05-15T07:54:16Z</time>
      </trkpt>
      <trkpt lat="45.53" lon="3.09651">
        <ele>760.8</ele>
        <time>2011-05-15T07:54:29Z</time>
      </trkpt>
      <trkpt lat="45.53013" lon="3.09666">
        <ele>762.4</ele>
        <time>2011-05-15T07:54:33Z</time>
      </trkpt>
      <trkpt lat="45.53071" lon="3.09756">
        <ele>761.6</ele>
        <time>2011-05-15T07:54:47Z</time>
      </trkpt>
      <trkpt lat="45.53094" lon="3.09783">
        <ele>760.2</ele>
        <time>2011-05-15T07:54:52Z</time>
      </trkpt>
      <trkpt lat="45.5314" lon="3.09822">
        <ele>759</ele>
        <time>2011-05-15T07:55:01Z</time>
      </trkpt>
      <trkpt lat="45.53174" lon="3.09855">
        <ele>758.6</ele>
        <time>2011-05-15T07:55:09Z</time>
      </trkpt>
      <trkpt lat="45.53191" lon="3.09867">
        <ele>760.2</ele>
        <time>2011-05-15T07:55:13Z</time>
      </trkpt>
      <trkpt lat="45.53217" lon="3.09875">
        <ele>760.2</ele>
        <time>2011-05-15T07:55:19Z</time>
      </trkpt>
      <trkpt lat="45.53254" lon="3.09892">
        <ele>759.4</ele>
        <time>2011-05-15T07:55:25Z</time>
      </trkpt>
      <trkpt lat="45.53283" lon="3.0991">
        <ele>756.4</ele>
        <time>2011-05-15T07:55:29Z</time>
      </trkpt>
      <trkpt lat="45.53309" lon="3.09932">
        <ele>754.4</ele>
        <time>2011-05-15T07:55:33Z</time>
      </trkpt>
      <trkpt lat="45.53349" lon="3.09991">
        <ele>753</ele>
        <time>2011-05-15T07:55:42Z</time>
      </trkpt>
      <trkpt lat="45.53373" lon="3.10022">
        <ele>751.4</ele>
        <time>2011-05-15T07:55:46Z</time>
      </trkpt>
      <trkpt lat="45.53398" lon="3.10055">
        <ele>749</ele>
        <time>2011-05-15T07:55:50Z</time>
      </trkpt>
      <trkpt lat="45.53418" lon="3.10085">
        <ele>746.2</ele>
        <time>2011-05-15T07:55:54Z</time>
      </trkpt>
      <trkpt lat="45.53464" lon="3.10108">
        <ele>745.8</ele>
        <time>2011-05-15T07:56:02Z</time>
      </trkpt>
      <trkpt lat="45.53489" lon="3.10102">
        <ele>744</ele>
        <time>2011-05-15T07:56:06Z</time>
      </trkpt>
      <trkpt lat="45.53562" lon="3.10123">
        <ele>744</ele>
        <time>2011-05-15T07:56:24Z</time>
      </trkpt>
      <trkpt lat="45.53629" lon="3.10181">
        <ele>744</ele>
        <time>2011-05-15T07:56:41Z</time>
      </trkpt>
      <trkpt lat="45.53692" lon="3.10219">
        <ele>744.8</ele>
        <time>2011-05-15T07:57:00Z</time>
      </trkpt>
      <trkpt lat="45.53709" lon="3.10222">
        <ele>746.2</ele>
        <time>2011-05-15T07:57:05Z</time>
      </trkpt>
      <trkpt lat="45.53745" lon="3.1026">
        <ele>747</ele>
        <time>2011-05-15T07:57:19Z</time>
      </trkpt>
      <trkpt lat="45.53757" lon="3.10278">
        <ele>748.2</ele>
        <time>2011-05-15T07:57:23Z</time>
      </trkpt>
      <trkpt lat="45.53818" lon="3.10294">
        <ele>746.8</ele>
        <time>2011-05-15T07:57:33Z</time>
      </trkpt>
      <trkpt lat="45.53861" lon="3.10308">
        <ele>745.8</ele>
        <time>2011-05-15T07:57:40Z</time>
      </trkpt>
      <trkpt lat="45.53889" lon="3.10316">
        <ele>743.6</ele>
        <time>2011-05-15T07:57:44Z</time>
      </trkpt>
      <trkpt lat="45.5392" lon="3.10331">
        <ele>741.6</ele>
        <time>2011-05-15T07:57:48Z</time>
      </trkpt>
      <trkpt lat="45.53944" lon="3.10339">
        <ele>739.4</ele>
        <time>2011-05-15T07:57:52Z</time>
      </trkpt>
      <trkpt lat="45.53974" lon="3.1034">
        <ele>738.4</ele>
        <time>2011-05-15T07:57:59Z</time>
      </trkpt>
      <trkpt lat="45.53989" lon="3.10347">
        <ele>740</ele>
        <time>2011-05-15T07:58:03Z</time>
      </trkpt>
      <trkpt lat="45.54049" lon="3.10385">
        <ele>740.4</ele>
        <time>2011-05-15T07:58:14Z</time>
      </trkpt>
      <trkpt lat="45.54074" lon="3.10392">
        <ele>738.6</ele>
        <time>2011-05-15T07:58:18Z</time>
      </trkpt>
      <trkpt lat="45.5409" lon="3.10392">
        <ele>735.4</ele>
        <time>2011-05-15T07:58:22Z</time>
      </trkpt>
      <trkpt lat="45.54097" lon="3.10394">
        <ele>730.6</ele>
        <time>2011-05-15T07:58:26Z</time>
      </trkpt>
      <trkpt lat="45.54103" lon="3.10407">
        <ele>727</ele>
        <time>2011-05-15T07:58:30Z</time>
      </trkpt>
      <trkpt lat="45.5411" lon="3.10427">
        <ele>725.2</ele>
        <time>2011-05-15T07:58:34Z</time>
      </trkpt>
      <trkpt lat="45.54116" lon="3.10447">
        <ele>722.4</ele>
        <time>2011-05-15T07:58:38Z</time>
      </trkpt>
      <trkpt lat="45.54113" lon="3.10469">
        <ele>719</ele>
        <time>2011-05-15T07:58:42Z</time>
      </trkpt>
      <trkpt lat="45.54092" lon="3.10482">
        <ele>715.8</ele>
        <time>2011-05-15T07:58:46Z</time>
      </trkpt>
      <trkpt lat="45.54068" lon="3.10496">
        <ele>713.6</ele>
        <time>2011-05-15T07:58:50Z</time>
      </trkpt>
      <trkpt lat="45.54043" lon="3.10508">
        <ele>712</ele>
        <time>2011-05-15T07:58:54Z</time>
      </trkpt>
      <trkpt lat="45.54028" lon="3.10516">
        <ele>710</ele>
        <time>2011-05-15T07:58:58Z</time>
      </trkpt>
      <trkpt lat="45.54018" lon="3.10545">
        <ele>707.6</ele>
        <time>2011-05-15T07:59:02Z</time>
      </trkpt>
      <trkpt lat="45.54009" lon="3.10582">
        <ele>706.2</ele>
        <time>2011-05-15T07:59:06Z</time>
      </trkpt>
      <trkpt lat="45.54001" lon="3.10617">
        <ele>705</ele>
        <time>2011-05-15T07:59:10Z</time>
      </trkpt>
      <trkpt lat="45.53994" lon="3.1065">
        <ele>702</ele>
        <time>2011-05-15T07:59:15Z</time>
      </trkpt>
      <trkpt lat="45.53989" lon="3.10677">
        <ele>698</ele>
        <time>2011-05-15T07:59:19Z</time>
      </trkpt>
      <trkpt lat="45.53996" lon="3.10698">
        <ele>694</ele>
        <time>2011-05-15T07:59:23Z</time>
      </trkpt>
      <trkpt lat="45.54016" lon="3.10724">
        <ele>690</ele>
        <time>2011-05-15T07:59:27Z</time>
      </trkpt>
      <trkpt lat="45.54043" lon="3.10749">
        <ele>686.2</ele>
        <time>2011-05-15T07:59:31Z</time>
      </trkpt>
      <trkpt lat="45.54066" lon="3.10776">
        <ele>683.2</ele>
        <time>2011-05-15T07:59:35Z</time>
      </trkpt>
      <trkpt lat="45.54087" lon="3.10803">
        <ele>680.6</ele>
        <time>2011-05-15T07:59:39Z</time>
      </trkpt>
      <trkpt lat="45.54099" lon="3.10828">
        <ele>678.8</ele>
        <time>2011-05-15T07:59:43Z</time>
      </trkpt>
      <trkpt lat="45.54134" lon="3.10911">
        <ele>678.8</ele>
        <time>2011-05-15T08:00:02Z</time>
      </trkpt>
      <trkpt lat="45.54193" lon="3.10971">
        <ele>678.4</ele>
        <time>2011-05-15T08:00:21Z</time>
      </trkpt>
      <trkpt lat="45.54215" lon="3.10982">
        <ele>676.8</ele>
        <time>2011-05-15T08:00:25Z</time>
      </trkpt>
      <trkpt lat="45.54242" lon="3.11001">
        <ele>675</ele>
        <time>2011-05-15T08:00:30Z</time>
      </trkpt>
      <trkpt lat="45.54264" lon="3.11011">
        <ele>673.6</ele>
        <time>2011-05-15T08:00:34Z</time>
      </trkpt>
      <trkpt lat="45.54288" lon="3.11014">
        <ele>670.8</ele>
        <time>2011-05-15T08:00:38Z</time>
      </trkpt>
      <trkpt lat="45.54315" lon="3.11018">
        <ele>667.6</ele>
        <time>2011-05-15T08:00:42Z</time>
      </trkpt>
      <trkpt lat="45.54335" lon="3.11022">
        <ele>661.8</ele>
        <time>2011-05-15T08:00:46Z</time>
      </trkpt>
      <trkpt lat="45.54349" lon="3.11026">
        <ele>656</ele>
        <time>2011-05-15T08:00:50Z</time>
      </trkpt>
      <trkpt lat="45.54371" lon="3.11029">
        <ele>650.8</ele>
        <time>2011-05-15T08:00:54Z</time>
      </trkpt>
      <trkpt lat="45.54395" lon="3.11032">
        <ele>647.2</ele>
        <time>2011-05-15T08:00:58Z</time>
      </trkpt>
      <trkpt lat="45.54412" lon="3.11037">
        <ele>643.2</ele>
        <time>2011-05-15T08:01:02Z</time>
      </trkpt>
      <trkpt lat="45.54432" lon="3.11038">
        <ele>639.6</ele>
        <time>2011-05-15T08:01:06Z</time>
      </trkpt>
      <trkpt lat="45.5445" lon="3.11039">
        <ele>635.8</ele>
        <time>2011-05-15T08:01:10Z</time>
      </trkpt>
      <trkpt lat="45.54465" lon="3.11027">
        <ele>631.2</ele>
        <time>2011-05-15T08:01:14Z</time>
      </trkpt>
      <trkpt lat="45.54475" lon="3.11001">
        <ele>626.8</ele>
        <time>2011-05-15T08:01:18Z</time>
      </trkpt>
      <trkpt lat="45.54486" lon="3.10973">
        <ele>625.2</ele>
        <time>2011-05-15T08:01:23Z</time>
      </trkpt>
      <trkpt lat="45.54497" lon="3.10952">
        <ele>624</ele>
        <time>2011-05-15T08:01:27Z</time>
      </trkpt>
      <trkpt lat="45.54512" lon="3.10898">
        <ele>624</ele>
        <time>2011-05-15T08:01:40Z</time>
      </trkpt>
      <trkpt lat="45.54513" lon="3.10803">
        <ele>624</ele>
        <time>2011-05-15T08:02:03Z</time>
      </trkpt>
      <trkpt lat="45.54509" lon="3.10722">
        <ele>622.8</ele>
        <time>2011-05-15T08:02:18Z</time>
      </trkpt>
      <trkpt lat="45.54506" lon="3.10688">
        <ele>621.6</ele>
        <time>2011-05-15T08:02:22Z</time>
      </trkpt>
      <trkpt lat="45.54504" lon="3.10657">
        <ele>619.8</ele>
        <time>2011-05-15T08:02:26Z</time>
      </trkpt>
      <trkpt lat="45.54517" lon="3.10649">
        <ele>617.2</ele>
        <time>2011-05-15T08:02:30Z</time>
      </trkpt>
      <trkpt lat="45.54538" lon="3.10655">
        <ele>615</ele>
        <time>2011-05-15T08:02:34Z</time>
      </trkpt>
      <trkpt lat="45.54556" lon="3.10665">
        <ele>612</ele>
        <time>2011-05-15T08:02:38Z</time>
      </trkpt>
      <trkpt lat="45.54574" lon="3.10689">
        <ele>609.6</ele>
        <time>2011-05-15T08:02:42Z</time>
      </trkpt>
      <trkpt lat="45.54591" lon="3.10714">
        <ele>607.6</ele>
        <time>2011-05-15T08:02:46Z</time>
      </trkpt>
      <trkpt lat="45.54608" lon="3.10734">
        <ele>606</ele>
        <time>2011-05-15T08:02:50Z</time>
      </trkpt>
      <trkpt lat="45.54633" lon="3.10745">
        <ele>604</ele>
        <time>2011-05-15T08:02:54Z</time>
      </trkpt>
      <trkpt lat="45.54658" lon="3.10748">
        <ele>600.2</ele>
        <time>2011-05-15T08:02:58Z</time>
      </trkpt>
      <trkpt lat="45.54689" lon="3.10751">
        <ele>596.8</ele>
        <time>2011-05-15T08:03:02Z</time>
      </trkpt>
      <trkpt lat="45.54718" lon="3.10757">
        <ele>593</ele>
        <time>2011-05-15T08:03:06Z</time>
      </trkpt>
      <trkpt lat="45.54745" lon="3.10761">
        <ele>588.8</ele>
        <time>2011-05-15T08:03:10Z</time>
      </trkpt>
      <trkpt lat="45.54773" lon="3.10765">
        <ele>584.8</ele>
        <time>2011-05-15T08:03:14Z</time>
      </trkpt>
      <trkpt lat="45.548" lon="3.1077">
        <ele>581.8</ele>
        <time>2011-05-15T08:03:18Z</time>
      </trkpt>
      <trkpt lat="45.54827" lon="3.10777">
        <ele>578.4</ele>
        <time>2011-05-15T08:03:22Z</time>
      </trkpt>
      <trkpt lat="45.54839" lon="3.10785">
        <ele>574.8</ele>
        <time>2011-05-15T08:03:26Z</time>
      </trkpt>
      <trkpt lat="45.54841" lon="3.10793">
        <ele>571.6</ele>
        <time>2011-05-15T08:03:30Z</time>
      </trkpt>
      <trkpt lat="45.54841" lon="3.10793">
        <ele>570.8</ele>
        <time>2011-05-15T08:04:16Z</time>
      </trkpt>
      <trkpt lat="45.54841" lon="3.10793">
        <ele>570.8</ele>
        <time>2011-05-15T08:05:17Z</time>
      </trkpt>
      <trkpt lat="45.54841" lon="3.10792">
        <ele>570.8</ele>
        <time>2011-05-15T08:06:17Z</time>
      </trkpt>
      <trkpt lat="45.54841" lon="3.10792">
        <ele>570.8</ele>
        <time>2011-05-15T08:07:14Z</time>
      </trkpt>
      <trkpt lat="45.54841" lon="3.10791">
        <ele>570.8</ele>
        <time>2011-05-15T08:08:13Z</time>
      </trkpt>
      <trkpt lat="45.54843" lon="3.1079">
        <ele>570.8</ele>
        <time>2011-05-15T08:08:33Z</time>
      </trkpt>
      <trkpt lat="45.54842" lon="3.1078">
        <ele>570.4</ele>
        <time>2011-05-15T08:08:46Z</time>
      </trkpt>
      <trkpt lat="45.54842" lon="3.1078">
        <ele>568.8</ele>
        <time>2011-05-15T08:08:50Z</time>
      </trkpt>
      <trkpt lat="45.54842" lon="3.1078">
        <ele>568.8</ele>
        <time>2011-05-15T08:09:32Z</time>
      </trkpt>
      <trkpt lat="45.54843" lon="3.10781">
        <ele>568.8</ele>
        <time>2011-05-15T08:09:55Z</time>
      </trkpt>
      <trkpt lat="45.54852" lon="3.10794">
        <ele>568.8</ele>
        <time>2011-05-15T08:10:19Z</time>
      </trkpt>
      <trkpt lat="45.54853" lon="3.10792">
        <ele>568.8</ele>
        <time>2011-05-15T08:10:37Z</time>
      </trkpt>
      <trkpt lat="45.54861" lon="3.10784">
        <ele>568.8</ele>
        <time>2011-05-15T08:10:48Z</time>
      </trkpt>
      <trkpt lat="45.54874" lon="3.10765">
        <ele>568.8</ele>
        <time>2011-05-15T08:11:12Z</time>
      </trkpt>
      <trkpt lat="45.54876" lon="3.10762">
        <ele>567</ele>
        <time>2011-05-15T08:11:16Z</time>
      </trkpt>
      <trkpt lat="45.54881" lon="3.1074">
        <ele>566.6</ele>
        <time>2011-05-15T08:11:22Z</time>
      </trkpt>
      <trkpt lat="45.54875" lon="3.10711">
        <ele>565.2</ele>
        <time>2011-05-15T08:11:27Z</time>
      </trkpt>
      <trkpt lat="45.54865" lon="3.10693">
        <ele>563.4</ele>
        <time>2011-05-15T08:11:31Z</time>
      </trkpt>
      <trkpt lat="45.54849" lon="3.10656">
        <ele>562</ele>
        <time>2011-05-15T08:11:37Z</time>
      </trkpt>
      <trkpt lat="45.54846" lon="3.10621">
        <ele>560.2</ele>
        <time>2011-05-15T08:11:41Z</time>
      </trkpt>
      <trkpt lat="45.5484" lon="3.10584">
        <ele>559.8</ele>
        <time>2011-05-15T08:11:46Z</time>
      </trkpt>
      <trkpt lat="45.54835" lon="3.10482">
        <ele>559.8</ele>
        <time>2011-05-15T08:12:04Z</time>
      </trkpt>
      <trkpt lat="45.54828" lon="3.10435">
        <ele>559</ele>
        <time>2011-05-15T08:12:10Z</time>
      </trkpt>
      <trkpt lat="45.54819" lon="3.104">
        <ele>557.8</ele>
        <time>2011-05-15T08:12:14Z</time>
      </trkpt>
      <trkpt lat="45.54829" lon="3.10305">
        <ele>557.8</ele>
        <time>2011-05-15T08:12:26Z</time>
      </trkpt>
      <trkpt lat="45.54819" lon="3.10242">
        <ele>559</ele>
        <time>2011-05-15T08:12:39Z</time>
      </trkpt>
      <trkpt lat="45.54813" lon="3.1022">
        <ele>560.2</ele>
        <time>2011-05-15T08:12:45Z</time>
      </trkpt>
      <trkpt lat="45.54812" lon="3.10206">
        <ele>562</ele>
        <time>2011-05-15T08:12:49Z</time>
      </trkpt>
      <trkpt lat="45.54812" lon="3.10188">
        <ele>563.6</ele>
        <time>2011-05-15T08:12:55Z</time>
      </trkpt>
      <trkpt lat="45.54807" lon="3.10162">
        <ele>564.8</ele>
        <time>2011-05-15T08:13:02Z</time>
      </trkpt>
      <trkpt lat="45.54805" lon="3.10142">
        <ele>566</ele>
        <time>2011-05-15T08:13:07Z</time>
      </trkpt>
      <trkpt lat="45.54804" lon="3.10115">
        <ele>568.2</ele>
        <time>2011-05-15T08:13:14Z</time>
      </trkpt>
      <trkpt lat="45.54801" lon="3.1009">
        <ele>569.4</ele>
        <time>2011-05-15T08:13:21Z</time>
      </trkpt>
      <trkpt lat="45.5479" lon="3.10057">
        <ele>570.6</ele>
        <time>2011-05-15T08:13:30Z</time>
      </trkpt>
      <trkpt lat="45.54784" lon="3.10044">
        <ele>572.4</ele>
        <time>2011-05-15T08:13:34Z</time>
      </trkpt>
      <trkpt lat="45.5477" lon="3.10024">
        <ele>573.8</ele>
        <time>2011-05-15T08:13:41Z</time>
      </trkpt>
      <trkpt lat="45.54756" lon="3.0999">
        <ele>575.4</ele>
        <time>2011-05-15T08:13:51Z</time>
      </trkpt>
      <trkpt lat="45.54752" lon="3.0997">
        <ele>576.8</ele>
        <time>2011-05-15T08:13:57Z</time>
      </trkpt>
      <trkpt lat="45.54744" lon="3.09942">
        <ele>578.8</ele>
        <time>2011-05-15T08:14:05Z</time>
      </trkpt>
      <trkpt lat="45.54738" lon="3.09915">
        <ele>580.4</ele>
        <time>2011-05-15T08:14:13Z</time>
      </trkpt>
      <trkpt lat="45.54736" lon="3.09887">
        <ele>582</ele>
        <time>2011-05-15T08:14:21Z</time>
      </trkpt>
      <trkpt lat="45.54734" lon="3.09871">
        <ele>583.2</ele>
        <time>2011-05-15T08:14:27Z</time>
      </trkpt>
      <trkpt lat="45.54732" lon="3.09866">
        <ele>585</ele>
        <time>2011-05-15T08:14:31Z</time>
      </trkpt>
      <trkpt lat="45.54732" lon="3.09865">
        <ele>585</ele>
        <time>2011-05-15T08:15:09Z</time>
      </trkpt>
      <trkpt lat="45.54741" lon="3.098">
        <ele>585</ele>
        <time>2011-05-15T08:15:35Z</time>
      </trkpt>
      <trkpt lat="45.5473" lon="3.09735">
        <ele>585</ele>
        <time>2011-05-15T08:15:46Z</time>
      </trkpt>
      <trkpt lat="45.54712" lon="3.0965">
        <ele>585</ele>
        <time>2011-05-15T08:15:59Z</time>
      </trkpt>
      <trkpt lat="45.5468" lon="3.09566">
        <ele>585</ele>
        <time>2011-05-15T08:16:14Z</time>
      </trkpt>
      <trkpt lat="45.5466" lon="3.09485">
        <ele>585.8</ele>
        <time>2011-05-15T08:16:33Z</time>
      </trkpt>
      <trkpt lat="45.54658" lon="3.09465">
        <ele>587.4</ele>
        <time>2011-05-15T08:16:39Z</time>
      </trkpt>
      <trkpt lat="45.54659" lon="3.09451">
        <ele>589.2</ele>
        <time>2011-05-15T08:16:43Z</time>
      </trkpt>
      <trkpt lat="45.54676" lon="3.09406">
        <ele>589.2</ele>
        <time>2011-05-15T08:16:58Z</time>
      </trkpt>
      <trkpt lat="45.54706" lon="3.09425">
        <ele>587.8</ele>
        <time>2011-05-15T08:17:05Z</time>
      </trkpt>
      <trkpt lat="45.5472" lon="3.09436">
        <ele>585.2</ele>
        <time>2011-05-15T08:17:09Z</time>
      </trkpt>
      <trkpt lat="45.5473" lon="3.09446">
        <ele>582.2</ele>
        <time>2011-05-15T08:17:13Z</time>
      </trkpt>
      <trkpt lat="45.54739" lon="3.09457">
        <ele>579.2</ele>
        <time>2011-05-15T08:17:17Z</time>
      </trkpt>
      <trkpt lat="45.54752" lon="3.09473">
        <ele>575.4</ele>
        <time>2011-05-15T08:17:21Z</time>
      </trkpt>
      <trkpt lat="45.54758" lon="3.09487">
        <ele>572.4</ele>
        <time>2011-05-15T08:17:25Z</time>
      </trkpt>
      <trkpt lat="45.54751" lon="3.09498">
        <ele>569.8</ele>
        <time>2011-05-15T08:17:31Z</time>
      </trkpt>
      <trkpt lat="45.54757" lon="3.09544">
        <ele>569.8</ele>
        <time>2011-05-15T08:17:44Z</time>
      </trkpt>
      <trkpt lat="45.54782" lon="3.09587">
        <ele>568.6</ele>
        <time>2011-05-15T08:17:55Z</time>
      </trkpt>
      <trkpt lat="45.54799" lon="3.09621">
        <ele>567.2</ele>
        <time>2011-05-15T08:18:03Z</time>
      </trkpt>
      <trkpt lat="45.54803" lon="3.09637">
        <ele>565.4</ele>
        <time>2011-05-15T08:18:07Z</time>
      </trkpt>
      <trkpt lat="45.54814" lon="3.09675">
        <ele>564.6</ele>
        <time>2011-05-15T08:18:13Z</time>
      </trkpt>
      <trkpt lat="45.54819" lon="3.09695">
        <ele>562.6</ele>
        <time>2011-05-15T08:18:17Z</time>
      </trkpt>
      <trkpt lat="45.54832" lon="3.09722">
        <ele>561</ele>
        <time>2011-05-15T08:18:22Z</time>
      </trkpt>
      <trkpt lat="45.54847" lon="3.09747">
        <ele>559.4</ele>
        <time>2011-05-15T08:18:26Z</time>
      </trkpt>
      <trkpt lat="45.54857" lon="3.09768">
        <ele>557.2</ele>
        <time>2011-05-15T08:18:30Z</time>
      </trkpt>
      <trkpt lat="45.54865" lon="3.09786">
        <ele>553.8</ele>
        <time>2011-05-15T08:18:34Z</time>
      </trkpt>
      <trkpt lat="45.54875" lon="3.09805">
        <ele>551.2</ele>
        <time>2011-05-15T08:18:38Z</time>
      </trkpt>
      <trkpt lat="45.54884" lon="3.09825">
        <ele>547.8</ele>
        <time>2011-05-15T08:18:42Z</time>
      </trkpt>
      <trkpt lat="45.5489" lon="3.09849">
        <ele>544.4</ele>
        <time>2011-05-15T08:18:46Z</time>
      </trkpt>
      <trkpt lat="45.54893" lon="3.0987">
        <ele>540.6</ele>
        <time>2011-05-15T08:18:50Z</time>
      </trkpt>
      <trkpt lat="45.54895" lon="3.09891">
        <ele>536.8</ele>
        <time>2011-05-15T08:18:54Z</time>
      </trkpt>
      <trkpt lat="45.54903" lon="3.09915">
        <ele>532.8</ele>
        <time>2011-05-15T08:18:58Z</time>
      </trkpt>
      <trkpt lat="45.54912" lon="3.09935">
        <ele>530.4</ele>
        <time>2011-05-15T08:19:02Z</time>
      </trkpt>
      <trkpt lat="45.54925" lon="3.09959">
        <ele>527.8</ele>
        <time>2011-05-15T08:19:06Z</time>
      </trkpt>
      <trkpt lat="45.54931" lon="3.09985">
        <ele>525.4</ele>
        <time>2011-05-15T08:19:10Z</time>
      </trkpt>
      <trkpt lat="45.54939" lon="3.10044">
        <ele>524.8</ele>
        <time>2011-05-15T08:19:18Z</time>
      </trkpt>
      <trkpt lat="45.54937" lon="3.10081">
        <ele>523.2</ele>
        <time>2011-05-15T08:19:22Z</time>
      </trkpt>
      <trkpt lat="45.54938" lon="3.1012">
        <ele>521.8</ele>
        <time>2011-05-15T08:19:26Z</time>
      </trkpt>
      <trkpt lat="45.54941" lon="3.10201">
        <ele>520.4</ele>
        <time>2011-05-15T08:19:34Z</time>
      </trkpt>
      <trkpt lat="45.54947" lon="3.10253">
        <ele>518.6</ele>
        <time>2011-05-15T08:19:39Z</time>
      </trkpt>
      <trkpt lat="45.54965" lon="3.10343">
        <ele>516.2</ele>
        <time>2011-05-15T08:19:48Z</time>
      </trkpt>
      <trkpt lat="45.54974" lon="3.10454">
        <ele>515.6</ele>
        <time>2011-05-15T08:20:00Z</time>
      </trkpt>
      <trkpt lat="45.54994" lon="3.10492">
        <ele>514.8</ele>
        <time>2011-05-15T08:20:06Z</time>
      </trkpt>
      <trkpt lat="45.55017" lon="3.10508">
        <ele>513.6</ele>
        <time>2011-05-15T08:20:10Z</time>
      </trkpt>
      <trkpt lat="45.55036" lon="3.10549">
        <ele>511.4</ele>
        <time>2011-05-15T08:20:15Z</time>
      </trkpt>
      <trkpt lat="45.55048" lon="3.10578">
        <ele>508.8</ele>
        <time>2011-05-15T08:20:19Z</time>
      </trkpt>
      <trkpt lat="45.55061" lon="3.1059">
        <ele>505.8</ele>
        <time>2011-05-15T08:20:23Z</time>
      </trkpt>
      <trkpt lat="45.55083" lon="3.10587">
        <ele>503.4</ele>
        <time>2011-05-15T08:20:27Z</time>
      </trkpt>
      <trkpt lat="45.55092" lon="3.10586">
        <ele>501.4</ele>
        <time>2011-05-15T08:20:31Z</time>
      </trkpt>
      <trkpt lat="45.55093" lon="3.1059">
        <ele>499.6</ele>
        <time>2011-05-15T08:20:35Z</time>
      </trkpt>
      <trkpt lat="45.55099" lon="3.10656">
        <ele>498.8</ele>
        <time>2011-05-15T08:20:48Z</time>
      </trkpt>
      <trkpt lat="45.55102" lon="3.10689">
        <ele>497.6</ele>
        <time>2011-05-15T08:20:54Z</time>
      </trkpt>
      <trkpt lat="45.55119" lon="3.10691">
        <ele>497.6</ele>
        <time>2011-05-15T08:21:10Z</time>
      </trkpt>
      <trkpt lat="45.55142" lon="3.10669">
        <ele>498.4</ele>
        <time>2011-05-15T08:21:21Z</time>
      </trkpt>
      <trkpt lat="45.55159" lon="3.10652">
        <ele>500</ele>
        <time>2011-05-15T08:21:29Z</time>
      </trkpt>
      <trkpt lat="45.55166" lon="3.10642">
        <ele>501.8</ele>
        <time>2011-05-15T08:21:33Z</time>
      </trkpt>
      <trkpt lat="45.55179" lon="3.10614">
        <ele>503</ele>
        <time>2011-05-15T08:21:43Z</time>
      </trkpt>
      <trkpt lat="45.55188" lon="3.10584">
        <ele>504.2</ele>
        <time>2011-05-15T08:21:53Z</time>
      </trkpt>
      <trkpt lat="45.55193" lon="3.10575">
        <ele>506</ele>
        <time>2011-05-15T08:21:57Z</time>
      </trkpt>
      <trkpt lat="45.55217" lon="3.10558">
        <ele>507.2</ele>
        <time>2011-05-15T08:22:09Z</time>
      </trkpt>
      <trkpt lat="45.55232" lon="3.1057">
        <ele>508.8</ele>
        <time>2011-05-15T08:22:16Z</time>
      </trkpt>
      <trkpt lat="45.55246" lon="3.10579">
        <ele>510</ele>
        <time>2011-05-15T08:22:22Z</time>
      </trkpt>
      <trkpt lat="45.55263" lon="3.10574">
        <ele>511.8</ele>
        <time>2011-05-15T08:22:29Z</time>
      </trkpt>
      <trkpt lat="45.55278" lon="3.10551">
        <ele>513</ele>
        <time>2011-05-15T08:22:37Z</time>
      </trkpt>
      <trkpt lat="45.55285" lon="3.10536">
        <ele>514.2</ele>
        <time>2011-05-15T08:22:42Z</time>
      </trkpt>
      <trkpt lat="45.55298" lon="3.10519">
        <ele>515.8</ele>
        <time>2011-05-15T08:22:49Z</time>
      </trkpt>
      <trkpt lat="45.55314" lon="3.10502">
        <ele>517</ele>
        <time>2011-05-15T08:22:58Z</time>
      </trkpt>
      <trkpt lat="45.55328" lon="3.10484">
        <ele>518.6</ele>
        <time>2011-05-15T08:23:06Z</time>
      </trkpt>
      <trkpt lat="45.55334" lon="3.10474">
        <ele>520.2</ele>
        <time>2011-05-15T08:23:10Z</time>
      </trkpt>
      <trkpt lat="45.55343" lon="3.10449">
        <ele>521.6</ele>
        <time>2011-05-15T08:23:18Z</time>
      </trkpt>
      <trkpt lat="45.55357" lon="3.10427">
        <ele>522.4</ele>
        <time>2011-05-15T08:23:27Z</time>
      </trkpt>
      <trkpt lat="45.55371" lon="3.10425">
        <ele>524</ele>
        <time>2011-05-15T08:23:33Z</time>
      </trkpt>
      <trkpt lat="45.55388" lon="3.10426">
        <ele>525.6</ele>
        <time>2011-05-15T08:23:41Z</time>
      </trkpt>
      <trkpt lat="45.55404" lon="3.10419">
        <ele>526.8</ele>
        <time>2011-05-15T08:23:48Z</time>
      </trkpt>
      <trkpt lat="45.55412" lon="3.10413">
        <ele>528.6</ele>
        <time>2011-05-15T08:23:52Z</time>
      </trkpt>
      <trkpt lat="45.55426" lon="3.10397">
        <ele>530.2</ele>
        <time>2011-05-15T08:24:00Z</time>
      </trkpt>
      <trkpt lat="45.55447" lon="3.10383">
        <ele>531.4</ele>
        <time>2011-05-15T08:24:11Z</time>
      </trkpt>
      <trkpt lat="45.5546" lon="3.10381">
        <ele>532.6</ele>
        <time>2011-05-15T08:24:16Z</time>
      </trkpt>
      <trkpt lat="45.55473" lon="3.10384">
        <ele>534</ele>
        <time>2011-05-15T08:24:22Z</time>
      </trkpt>
      <trkpt lat="45.55496" lon="3.1039">
        <ele>534.8</ele>
        <time>2011-05-15T08:24:32Z</time>
      </trkpt>
      <trkpt lat="45.55504" lon="3.10392">
        <ele>536.4</ele>
        <time>2011-05-15T08:24:36Z</time>
      </trkpt>
      <trkpt lat="45.5551" lon="3.10377">
        <ele>536.8</ele>
        <time>2011-05-15T08:24:45Z</time>
      </trkpt>
      <trkpt lat="45.55506" lon="3.10371">
        <ele>538.6</ele>
        <time>2011-05-15T08:24:49Z</time>
      </trkpt>
      <trkpt lat="45.55497" lon="3.10363">
        <ele>539.8</ele>
        <time>2011-05-15T08:24:57Z</time>
      </trkpt>
      <trkpt lat="45.55489" lon="3.10357">
        <ele>541.2</ele>
        <time>2011-05-15T08:25:03Z</time>
      </trkpt>
      <trkpt lat="45.55481" lon="3.10355">
        <ele>542.4</ele>
        <time>2011-05-15T08:25:09Z</time>
      </trkpt>
      <trkpt lat="45.55471" lon="3.10356">
        <ele>543.8</ele>
        <time>2011-05-15T08:25:17Z</time>
      </trkpt>
      <trkpt lat="45.55466" lon="3.10357">
        <ele>545.6</ele>
        <time>2011-05-15T08:25:21Z</time>
      </trkpt>
      <trkpt lat="45.55451" lon="3.10353">
        <ele>547.2</ele>
        <time>2011-05-15T08:25:29Z</time>
      </trkpt>
      <trkpt lat="45.55411" lon="3.10365">
        <ele>548</ele>
        <time>2011-05-15T08:25:46Z</time>
      </trkpt>
      <trkpt lat="45.55404" lon="3.10374">
        <ele>550</ele>
        <time>2011-05-15T08:25:50Z</time>
      </trkpt>
      <trkpt lat="45.55378" lon="3.10364">
        <ele>550</ele>
        <time>2011-05-15T08:26:00Z</time>
      </trkpt>
      <trkpt lat="45.55355" lon="3.10369">
        <ele>551.2</ele>
        <time>2011-05-15T08:26:08Z</time>
      </trkpt>
      <trkpt lat="45.55329" lon="3.10384">
        <ele>552</ele>
        <time>2011-05-15T08:26:19Z</time>
      </trkpt>
      <trkpt lat="45.5532" lon="3.10393">
        <ele>553.6</ele>
        <time>2011-05-15T08:26:26Z</time>
      </trkpt>
      <trkpt lat="45.55316" lon="3.10399">
        <ele>555</ele>
        <time>2011-05-15T08:26:31Z</time>
      </trkpt>
      <trkpt lat="45.55311" lon="3.10404">
        <ele>556.2</ele>
        <time>2011-05-15T08:26:36Z</time>
      </trkpt>
      <trkpt lat="45.55302" lon="3.10407">
        <ele>558</ele>
        <time>2011-05-15T08:26:42Z</time>
      </trkpt>
      <trkpt lat="45.55293" lon="3.10406">
        <ele>559.6</ele>
        <time>2011-05-15T08:26:50Z</time>
      </trkpt>
      <trkpt lat="45.55283" lon="3.10399">
        <ele>560.8</ele>
        <time>2011-05-15T08:26:59Z</time>
      </trkpt>
      <trkpt lat="45.5528" lon="3.10392">
        <ele>562.6</ele>
        <time>2011-05-15T08:27:03Z</time>
      </trkpt>
      <trkpt lat="45.55278" lon="3.10376">
        <ele>564.6</ele>
        <time>2011-05-15T08:27:13Z</time>
      </trkpt>
      <trkpt lat="45.55277" lon="3.10362">
        <ele>566</ele>
        <time>2011-05-15T08:27:20Z</time>
      </trkpt>
      <trkpt lat="45.55283" lon="3.10348">
        <ele>567.2</ele>
        <time>2011-05-15T08:27:29Z</time>
      </trkpt>
      <trkpt lat="45.55287" lon="3.10342">
        <ele>569</ele>
        <time>2011-05-15T08:27:33Z</time>
      </trkpt>
      <trkpt lat="45.55294" lon="3.10333">
        <ele>570.2</ele>
        <time>2011-05-15T08:27:41Z</time>
      </trkpt>
      <trkpt lat="45.55301" lon="3.10326">
        <ele>571.4</ele>
        <time>2011-05-15T08:27:48Z</time>
      </trkpt>
      <trkpt lat="45.55305" lon="3.10324">
        <ele>573</ele>
        <time>2011-05-15T08:27:52Z</time>
      </trkpt>
      <trkpt lat="45.55311" lon="3.10321">
        <ele>574.2</ele>
        <time>2011-05-15T08:27:58Z</time>
      </trkpt>
      <trkpt lat="45.55314" lon="3.10316">
        <ele>575.6</ele>
        <time>2011-05-15T08:28:03Z</time>
      </trkpt>
      <trkpt lat="45.55316" lon="3.1031">
        <ele>577.2</ele>
        <time>2011-05-15T08:28:07Z</time>
      </trkpt>
      <trkpt lat="45.55316" lon="3.10299">
        <ele>578</ele>
        <time>2011-05-15T08:28:15Z</time>
      </trkpt>
      <trkpt lat="45.55316" lon="3.10288">
        <ele>579.2</ele>
        <time>2011-05-15T08:28:23Z</time>
      </trkpt>
      <trkpt lat="45.55318" lon="3.10282">
        <ele>581.4</ele>
        <time>2011-05-15T08:28:28Z</time>
      </trkpt>
      <trkpt lat="45.5532" lon="3.10272">
        <ele>582.6</ele>
        <time>2011-05-15T08:28:35Z</time>
      </trkpt>
      <trkpt lat="45.55323" lon="3.10264">
        <ele>584.4</ele>
        <time>2011-05-15T08:28:41Z</time>
      </trkpt>
      <trkpt lat="45.55327" lon="3.10254">
        <ele>586</ele>
        <time>2011-05-15T08:28:49Z</time>
      </trkpt>
      <trkpt lat="45.55329" lon="3.10245">
        <ele>587.8</ele>
        <time>2011-05-15T08:28:55Z</time>
      </trkpt>
      <trkpt lat="45.55331" lon="3.10238">
        <ele>589</ele>
        <time>2011-05-15T08:29:00Z</time>
      </trkpt>
      <trkpt lat="45.55332" lon="3.10226">
        <ele>590.2</ele>
        <time>2011-05-15T08:29:09Z</time>
      </trkpt>
      <trkpt lat="45.55333" lon="3.10219">
        <ele>592</ele>
        <time>2011-05-15T08:29:13Z</time>
      </trkpt>
      <trkpt lat="45.55332" lon="3.10202">
        <ele>592.8</ele>
        <time>2011-05-15T08:29:22Z</time>
      </trkpt>
      <trkpt lat="45.55334" lon="3.1019">
        <ele>594.2</ele>
        <time>2011-05-15T08:29:28Z</time>
      </trkpt>
      <trkpt lat="45.5535" lon="3.10128">
        <ele>594.2</ele>
        <time>2011-05-15T08:29:49Z</time>
      </trkpt>
      <trkpt lat="45.55367" lon="3.10081">
        <ele>595</ele>
        <time>2011-05-15T08:30:07Z</time>
      </trkpt>
      <trkpt lat="45.55371" lon="3.1007">
        <ele>596.2</ele>
        <time>2011-05-15T08:30:13Z</time>
      </trkpt>
      <trkpt lat="45.55377" lon="3.10054">
        <ele>597.6</ele>
        <time>2011-05-15T08:30:23Z</time>
      </trkpt>
      <trkpt lat="45.5538" lon="3.10039">
        <ele>598.8</ele>
        <time>2011-05-15T08:30:32Z</time>
      </trkpt>
      <trkpt lat="45.55381" lon="3.10031">
        <ele>600.6</ele>
        <time>2011-05-15T08:30:36Z</time>
      </trkpt>
      <trkpt lat="45.5538" lon="3.09996">
        <ele>601.4</ele>
        <time>2011-05-15T08:30:51Z</time>
      </trkpt>
      <trkpt lat="45.5538" lon="3.09986">
        <ele>602.6</ele>
        <time>2011-05-15T08:30:56Z</time>
      </trkpt>
      <trkpt lat="45.55383" lon="3.09973">
        <ele>604</ele>
        <time>2011-05-15T08:31:04Z</time>
      </trkpt>
      <trkpt lat="45.55389" lon="3.09965">
        <ele>605.8</ele>
        <time>2011-05-15T08:31:11Z</time>
      </trkpt>
      <trkpt lat="45.55396" lon="3.09955">
        <ele>607</ele>
        <time>2011-05-15T08:31:18Z</time>
      </trkpt>
      <trkpt lat="45.55402" lon="3.09947">
        <ele>608.8</ele>
        <time>2011-05-15T08:31:23Z</time>
      </trkpt>
      <trkpt lat="45.55429" lon="3.09927">
        <ele>610</ele>
        <time>2011-05-15T08:31:39Z</time>
      </trkpt>
      <trkpt lat="45.55441" lon="3.09918">
        <ele>611.2</ele>
        <time>2011-05-15T08:31:44Z</time>
      </trkpt>
      <trkpt lat="45.55484" lon="3.09851">
        <ele>611.2</ele>
        <time>2011-05-15T08:32:03Z</time>
      </trkpt>
      <trkpt lat="45.55513" lon="3.09783">
        <ele>611.6</ele>
        <time>2011-05-15T08:32:29Z</time>
      </trkpt>
      <trkpt lat="45.55517" lon="3.09775">
        <ele>613.4</ele>
        <time>2011-05-15T08:32:33Z</time>
      </trkpt>
      <trkpt lat="45.55528" lon="3.0976">
        <ele>614.6</ele>
        <time>2011-05-15T08:32:42Z</time>
      </trkpt>
      <trkpt lat="45.55544" lon="3.09754">
        <ele>616</ele>
        <time>2011-05-15T08:32:49Z</time>
      </trkpt>
      <trkpt lat="45.55555" lon="3.09752">
        <ele>617.6</ele>
        <time>2011-05-15T08:32:53Z</time>
      </trkpt>
      <trkpt lat="45.55605" lon="3.09736">
        <ele>617.2</ele>
        <time>2011-05-15T08:33:04Z</time>
      </trkpt>
      <trkpt lat="45.55626" lon="3.09724">
        <ele>615.6</ele>
        <time>2011-05-15T08:33:08Z</time>
      </trkpt>
      <trkpt lat="45.55643" lon="3.09716">
        <ele>615.6</ele>
        <time>2011-05-15T08:33:19Z</time>
      </trkpt>
      <trkpt lat="45.55644" lon="3.09713">
        <ele>615.6</ele>
        <time>2011-05-15T08:33:33Z</time>
      </trkpt>
      <trkpt lat="45.55661" lon="3.09705">
        <ele>616.4</ele>
        <time>2011-05-15T08:33:49Z</time>
      </trkpt>
      <trkpt lat="45.55667" lon="3.09702">
        <ele>617.8</ele>
        <time>2011-05-15T08:33:53Z</time>
      </trkpt>
      <trkpt lat="45.55679" lon="3.09699">
        <ele>619.6</ele>
        <time>2011-05-15T08:34:00Z</time>
      </trkpt>
      <trkpt lat="45.55696" lon="3.09697">
        <ele>621.2</ele>
        <time>2011-05-15T08:34:08Z</time>
      </trkpt>
      <trkpt lat="45.55733" lon="3.09693">
        <ele>622</ele>
        <time>2011-05-15T08:34:18Z</time>
      </trkpt>
      <trkpt lat="45.55783" lon="3.09668">
        <ele>621.2</ele>
        <time>2011-05-15T08:34:28Z</time>
      </trkpt>
      <trkpt lat="45.55818" lon="3.0964">
        <ele>619.4</ele>
        <time>2011-05-15T08:34:37Z</time>
      </trkpt>
      <trkpt lat="45.55831" lon="3.09615">
        <ele>617.8</ele>
        <time>2011-05-15T08:34:41Z</time>
      </trkpt>
      <trkpt lat="45.55868" lon="3.09516">
        <ele>617.8</ele>
        <time>2011-05-15T08:35:01Z</time>
      </trkpt>
      <trkpt lat="45.55883" lon="3.09484">
        <ele>616</ele>
        <time>2011-05-15T08:35:05Z</time>
      </trkpt>
      <trkpt lat="45.55894" lon="3.09454">
        <ele>614</ele>
        <time>2011-05-15T08:35:09Z</time>
      </trkpt>
      <trkpt lat="45.55921" lon="3.09409">
        <ele>613.4</ele>
        <time>2011-05-15T08:35:19Z</time>
      </trkpt>
      <trkpt lat="45.55956" lon="3.09368">
        <ele>611.4</ele>
        <time>2011-05-15T08:35:27Z</time>
      </trkpt>
      <trkpt lat="45.56001" lon="3.09313">
        <ele>611</ele>
        <time>2011-05-15T08:35:40Z</time>
      </trkpt>
      <trkpt lat="45.56016" lon="3.09295">
        <ele>609.2</ele>
        <time>2011-05-15T08:35:44Z</time>
      </trkpt>
      <trkpt lat="45.56035" lon="3.09275">
        <ele>610.2</ele>
        <time>2011-05-15T08:35:55Z</time>
      </trkpt>
      <trkpt lat="45.56044" lon="3.09271">
        <ele>611.4</ele>
        <time>2011-05-15T08:36:02Z</time>
      </trkpt>
      <trkpt lat="45.56048" lon="3.09268">
        <ele>613.2</ele>
        <time>2011-05-15T08:36:06Z</time>
      </trkpt>
      <trkpt lat="45.56056" lon="3.09262">
        <ele>614.4</ele>
        <time>2011-05-15T08:36:13Z</time>
      </trkpt>
      <trkpt lat="45.56063" lon="3.09257">
        <ele>616.2</ele>
        <time>2011-05-15T08:36:20Z</time>
      </trkpt>
      <trkpt lat="45.56068" lon="3.09254">
        <ele>617.8</ele>
        <time>2011-05-15T08:36:24Z</time>
      </trkpt>
      <trkpt lat="45.56078" lon="3.09249">
        <ele>619.2</ele>
        <time>2011-05-15T08:36:33Z</time>
      </trkpt>
      <trkpt lat="45.56092" lon="3.09244">
        <ele>620.4</ele>
        <time>2011-05-15T08:36:43Z</time>
      </trkpt>
      <trkpt lat="45.56097" lon="3.09245">
        <ele>622</ele>
        <time>2011-05-15T08:36:47Z</time>
      </trkpt>
      <trkpt lat="45.56107" lon="3.09234">
        <ele>622.8</ele>
        <time>2011-05-15T08:36:56Z</time>
      </trkpt>
      <trkpt lat="45.56104" lon="3.09223">
        <ele>624.2</ele>
        <time>2011-05-15T08:37:00Z</time>
      </trkpt>
      <trkpt lat="45.56088" lon="3.09182">
        <ele>625</ele>
        <time>2011-05-15T08:37:17Z</time>
      </trkpt>
      <trkpt lat="45.5608" lon="3.09174">
        <ele>626.4</ele>
        <time>2011-05-15T08:37:21Z</time>
      </trkpt>
      <trkpt lat="45.56039" lon="3.09151">
        <ele>627.2</ele>
        <time>2011-05-15T08:37:36Z</time>
      </trkpt>
      <trkpt lat="45.56021" lon="3.0915">
        <ele>628.4</ele>
        <time>2011-05-15T08:37:42Z</time>
      </trkpt>
      <trkpt lat="45.55992" lon="3.09138">
        <ele>629.6</ele>
        <time>2011-05-15T08:37:53Z</time>
      </trkpt>
      <trkpt lat="45.55967" lon="3.09108">
        <ele>630.8</ele>
        <time>2011-05-15T08:38:05Z</time>
      </trkpt>
      <trkpt lat="45.55958" lon="3.09104">
        <ele>632.6</ele>
        <time>2011-05-15T08:38:09Z</time>
      </trkpt>
      <trkpt lat="45.55928" lon="3.09088">
        <ele>633.8</ele>
        <time>2011-05-15T08:38:22Z</time>
      </trkpt>
      <trkpt lat="45.55898" lon="3.09062">
        <ele>634.6</ele>
        <time>2011-05-15T08:38:36Z</time>
      </trkpt>
      <trkpt lat="45.55882" lon="3.09051">
        <ele>636.2</ele>
        <time>2011-05-15T08:38:43Z</time>
      </trkpt>
      <trkpt lat="45.55853" lon="3.09041">
        <ele>637.4</ele>
        <time>2011-05-15T08:38:56Z</time>
      </trkpt>
      <trkpt lat="45.55845" lon="3.09038">
        <ele>638.8</ele>
        <time>2011-05-15T08:39:00Z</time>
      </trkpt>
      <trkpt lat="45.55817" lon="3.09026">
        <ele>640</ele>
        <time>2011-05-15T08:39:13Z</time>
      </trkpt>
      <trkpt lat="45.55794" lon="3.09013">
        <ele>640.8</ele>
        <time>2011-05-15T08:39:25Z</time>
      </trkpt>
      <trkpt lat="45.55779" lon="3.09004">
        <ele>642.8</ele>
        <time>2011-05-15T08:39:33Z</time>
      </trkpt>
      <trkpt lat="45.55748" lon="3.08945">
        <ele>643.2</ele>
        <time>2011-05-15T08:39:55Z</time>
      </trkpt>
      <trkpt lat="45.55746" lon="3.08927">
        <ele>644.8</ele>
        <time>2011-05-15T08:40:01Z</time>
      </trkpt>
      <trkpt lat="45.55723" lon="3.08888">
        <ele>646</ele>
        <time>2011-05-15T08:40:18Z</time>
      </trkpt>
      <trkpt lat="45.55702" lon="3.08864">
        <ele>646.8</ele>
        <time>2011-05-15T08:40:31Z</time>
      </trkpt>
      <trkpt lat="45.55694" lon="3.08855">
        <ele>648.6</ele>
        <time>2011-05-15T08:40:36Z</time>
      </trkpt>
      <trkpt lat="45.55673" lon="3.08828">
        <ele>649.4</ele>
        <time>2011-05-15T08:40:50Z</time>
      </trkpt>
      <trkpt lat="45.5567" lon="3.08819">
        <ele>651</ele>
        <time>2011-05-15T08:40:54Z</time>
      </trkpt>
      <trkpt lat="45.5566" lon="3.08793">
        <ele>651.8</ele>
        <time>2011-05-15T08:41:05Z</time>
      </trkpt>
      <trkpt lat="45.55648" lon="3.08768">
        <ele>653.2</ele>
        <time>2011-05-15T08:41:14Z</time>
      </trkpt>
      <trkpt lat="45.55633" lon="3.08741">
        <ele>654.6</ele>
        <time>2011-05-15T08:41:26Z</time>
      </trkpt>
      <trkpt lat="45.55613" lon="3.08717">
        <ele>655.4</ele>
        <time>2011-05-15T08:41:40Z</time>
      </trkpt>
      <trkpt lat="45.55566" lon="3.08754">
        <ele>655.4</ele>
        <time>2011-05-15T08:42:01Z</time>
      </trkpt>
      <trkpt lat="45.55549" lon="3.08752">
        <ele>657</ele>
        <time>2011-05-15T08:42:07Z</time>
      </trkpt>
      <trkpt lat="45.5551" lon="3.08744">
        <ele>657.4</ele>
        <time>2011-05-15T08:42:22Z</time>
      </trkpt>
      <trkpt lat="45.55499" lon="3.08743">
        <ele>659.6</ele>
        <time>2011-05-15T08:42:27Z</time>
      </trkpt>
      <trkpt lat="45.55473" lon="3.08742">
        <ele>660.4</ele>
        <time>2011-05-15T08:42:38Z</time>
      </trkpt>
      <trkpt lat="45.5545" lon="3.0874">
        <ele>661.6</ele>
        <time>2011-05-15T08:42:48Z</time>
      </trkpt>
      <trkpt lat="45.55429" lon="3.08731">
        <ele>663</ele>
        <time>2011-05-15T08:42:58Z</time>
      </trkpt>
      <trkpt lat="45.55412" lon="3.08698">
        <ele>664.2</ele>
        <time>2011-05-15T08:43:13Z</time>
      </trkpt>
      <trkpt lat="45.5541" lon="3.08682">
        <ele>665.8</ele>
        <time>2011-05-15T08:43:19Z</time>
      </trkpt>
      <trkpt lat="45.55403" lon="3.08658">
        <ele>667.6</ele>
        <time>2011-05-15T08:43:28Z</time>
      </trkpt>
      <trkpt lat="45.55384" lon="3.08615">
        <ele>668</ele>
        <time>2011-05-15T08:43:47Z</time>
      </trkpt>
      <trkpt lat="45.55378" lon="3.08607">
        <ele>669.6</ele>
        <time>2011-05-15T08:43:51Z</time>
      </trkpt>
      <trkpt lat="45.55359" lon="3.08577">
        <ele>670.6</ele>
        <time>2011-05-15T08:44:07Z</time>
      </trkpt>
      <trkpt lat="45.55352" lon="3.0857">
        <ele>672.2</ele>
        <time>2011-05-15T08:44:11Z</time>
      </trkpt>
      <trkpt lat="45.55327" lon="3.08549">
        <ele>673</ele>
        <time>2011-05-15T08:44:28Z</time>
      </trkpt>
      <trkpt lat="45.55306" lon="3.08524">
        <ele>674.2</ele>
        <time>2011-05-15T08:44:41Z</time>
      </trkpt>
      <trkpt lat="45.55293" lon="3.08499">
        <ele>675.6</ele>
        <time>2011-05-15T08:44:51Z</time>
      </trkpt>
      <trkpt lat="45.5528" lon="3.08479">
        <ele>676.4</ele>
        <time>2011-05-15T08:45:00Z</time>
      </trkpt>
      <trkpt lat="45.55238" lon="3.08453">
        <ele>676.8</ele>
        <time>2011-05-15T08:45:21Z</time>
      </trkpt>
      <trkpt lat="45.55228" lon="3.08453">
        <ele>678.6</ele>
        <time>2011-05-15T08:45:25Z</time>
      </trkpt>
      <trkpt lat="45.55178" lon="3.0846">
        <ele>678.6</ele>
        <time>2011-05-15T08:45:50Z</time>
      </trkpt>
      <trkpt lat="45.55167" lon="3.08458">
        <ele>680.2</ele>
        <time>2011-05-15T08:45:55Z</time>
      </trkpt>
      <trkpt lat="45.55126" lon="3.08438">
        <ele>680.6</ele>
        <time>2011-05-15T08:46:17Z</time>
      </trkpt>
      <trkpt lat="45.55117" lon="3.08426">
        <ele>682.4</ele>
        <time>2011-05-15T08:46:25Z</time>
      </trkpt>
      <trkpt lat="45.5511" lon="3.08413">
        <ele>682.8</ele>
        <time>2011-05-15T08:46:32Z</time>
      </trkpt>
      <trkpt lat="45.55102" lon="3.08396">
        <ele>683.2</ele>
        <time>2011-05-15T08:46:40Z</time>
      </trkpt>
      <trkpt lat="45.55098" lon="3.08388">
        <ele>684.8</ele>
        <time>2011-05-15T08:46:44Z</time>
      </trkpt>
      <trkpt lat="45.55081" lon="3.08357">
        <ele>685.6</ele>
        <time>2011-05-15T08:47:00Z</time>
      </trkpt>
      <trkpt lat="45.55073" lon="3.08346">
        <ele>686.8</ele>
        <time>2011-05-15T08:47:06Z</time>
      </trkpt>
      <trkpt lat="45.55048" lon="3.08309">
        <ele>687.6</ele>
        <time>2011-05-15T08:47:24Z</time>
      </trkpt>
      <trkpt lat="45.5504" lon="3.08298">
        <ele>688.8</ele>
        <time>2011-05-15T08:47:30Z</time>
      </trkpt>
      <trkpt lat="45.55024" lon="3.08265">
        <ele>690</ele>
        <time>2011-05-15T08:47:45Z</time>
      </trkpt>
      <trkpt lat="45.55026" lon="3.0823">
        <ele>691</ele>
        <time>2011-05-15T08:47:58Z</time>
      </trkpt>
      <trkpt lat="45.55046" lon="3.08192">
        <ele>692.6</ele>
        <time>2011-05-15T08:48:15Z</time>
      </trkpt>
      <trkpt lat="45.5507" lon="3.08142">
        <ele>693</ele>
        <time>2011-05-15T08:48:37Z</time>
      </trkpt>
      <trkpt lat="45.55099" lon="3.08098">
        <ele>693</ele>
        <time>2011-05-15T08:49:02Z</time>
      </trkpt>
      <trkpt lat="45.55089" lon="3.08058">
        <ele>693</ele>
        <time>2011-05-15T08:49:23Z</time>
      </trkpt>
      <trkpt lat="45.55084" lon="3.08053">
        <ele>693</ele>
        <time>2011-05-15T08:49:32Z</time>
      </trkpt>
      <trkpt lat="45.5507" lon="3.08041">
        <ele>693</ele>
        <time>2011-05-15T08:49:49Z</time>
      </trkpt>
      <trkpt lat="45.55063" lon="3.0803">
        <ele>695</ele>
        <time>2011-05-15T08:49:54Z</time>
      </trkpt>
      <trkpt lat="45.55028" lon="3.07979">
        <ele>695</ele>
        <time>2011-05-15T08:50:19Z</time>
      </trkpt>
      <trkpt lat="45.55025" lon="3.07935">
        <ele>695.8</ele>
        <time>2011-05-15T08:50:36Z</time>
      </trkpt>
      <trkpt lat="45.55034" lon="3.07914">
        <ele>697</ele>
        <time>2011-05-15T08:50:44Z</time>
      </trkpt>
      <trkpt lat="45.55052" lon="3.07883">
        <ele>698.4</ele>
        <time>2011-05-15T08:50:57Z</time>
      </trkpt>
      <trkpt lat="45.55063" lon="3.07837">
        <ele>699.2</ele>
        <time>2011-05-15T08:51:12Z</time>
      </trkpt>
      <trkpt lat="45.5506" lon="3.07813">
        <ele>700.8</ele>
        <time>2011-05-15T08:51:19Z</time>
      </trkpt>
      <trkpt lat="45.55049" lon="3.0776">
        <ele>701.2</ele>
        <time>2011-05-15T08:51:36Z</time>
      </trkpt>
      <trkpt lat="45.5504" lon="3.07722">
        <ele>702.4</ele>
        <time>2011-05-15T08:51:46Z</time>
      </trkpt>
      <trkpt lat="45.55031" lon="3.07689">
        <ele>703.2</ele>
        <time>2011-05-15T08:51:55Z</time>
      </trkpt>
      <trkpt lat="45.55001" lon="3.07595">
        <ele>703.2</ele>
        <time>2011-05-15T08:52:19Z</time>
      </trkpt>
      <trkpt lat="45.55009" lon="3.07555">
        <ele>704.6</ele>
        <time>2011-05-15T08:52:29Z</time>
      </trkpt>
      <trkpt lat="45.55018" lon="3.07536">
        <ele>705.4</ele>
        <time>2011-05-15T08:52:35Z</time>
      </trkpt>
      <trkpt lat="45.55034" lon="3.07501">
        <ele>706.2</ele>
        <time>2011-05-15T08:52:47Z</time>
      </trkpt>
      <trkpt lat="45.55033" lon="3.07486">
        <ele>707.4</ele>
        <time>2011-05-15T08:52:51Z</time>
      </trkpt>
      <trkpt lat="45.55023" lon="3.07414">
        <ele>708.6</ele>
        <time>2011-05-15T08:53:11Z</time>
      </trkpt>
      <trkpt lat="45.55015" lon="3.07357">
        <ele>709.6</ele>
        <time>2011-05-15T08:53:28Z</time>
      </trkpt>
      <trkpt lat="45.5501" lon="3.07332">
        <ele>711.8</ele>
        <time>2011-05-15T08:53:35Z</time>
      </trkpt>
      <trkpt lat="45.55007" lon="3.07297">
        <ele>712.2</ele>
        <time>2011-05-15T08:53:47Z</time>
      </trkpt>
      <trkpt lat="45.55006" lon="3.07283">
        <ele>713.8</ele>
        <time>2011-05-15T08:53:51Z</time>
      </trkpt>
      <trkpt lat="45.5499" lon="3.07207">
        <ele>713.8</ele>
        <time>2011-05-15T08:54:10Z</time>
      </trkpt>
      <trkpt lat="45.55006" lon="3.07183">
        <ele>715</ele>
        <time>2011-05-15T08:54:20Z</time>
      </trkpt>
      <trkpt lat="45.55014" lon="3.07156">
        <ele>715.8</ele>
        <time>2011-05-15T08:54:29Z</time>
      </trkpt>
      <trkpt lat="45.55016" lon="3.07119">
        <ele>717.2</ele>
        <time>2011-05-15T08:54:41Z</time>
      </trkpt>
      <trkpt lat="45.55003" lon="3.07053">
        <ele>718</ele>
        <time>2011-05-15T08:54:55Z</time>
      </trkpt>
      <trkpt lat="45.54954" lon="3.06949">
        <ele>718</ele>
        <time>2011-05-15T08:55:20Z</time>
      </trkpt>
      <trkpt lat="45.5494" lon="3.06911">
        <ele>716.8</ele>
        <time>2011-05-15T08:55:26Z</time>
      </trkpt>
      <trkpt lat="45.54934" lon="3.06884">
        <ele>713.6</ele>
        <time>2011-05-15T08:55:30Z</time>
      </trkpt>
      <trkpt lat="45.54933" lon="3.06853">
        <ele>710.2</ele>
        <time>2011-05-15T08:55:34Z</time>
      </trkpt>
      <trkpt lat="45.54932" lon="3.06821">
        <ele>708</ele>
        <time>2011-05-15T08:55:38Z</time>
      </trkpt>
      <trkpt lat="45.5493" lon="3.06792">
        <ele>705.8</ele>
        <time>2011-05-15T08:55:42Z</time>
      </trkpt>
      <trkpt lat="45.54922" lon="3.06762">
        <ele>703</ele>
        <time>2011-05-15T08:55:46Z</time>
      </trkpt>
      <trkpt lat="45.54908" lon="3.0674">
        <ele>700.2</ele>
        <time>2011-05-15T08:55:50Z</time>
      </trkpt>
      <trkpt lat="45.54894" lon="3.0671">
        <ele>697.8</ele>
        <time>2011-05-15T08:55:54Z</time>
      </trkpt>
      <trkpt lat="45.54883" lon="3.06671">
        <ele>695.8</ele>
        <time>2011-05-15T08:55:58Z</time>
      </trkpt>
      <trkpt lat="45.54868" lon="3.0664">
        <ele>693.2</ele>
        <time>2011-05-15T08:56:02Z</time>
      </trkpt>
      <trkpt lat="45.54848" lon="3.06615">
        <ele>689.4</ele>
        <time>2011-05-15T08:56:06Z</time>
      </trkpt>
      <trkpt lat="45.54831" lon="3.06591">
        <ele>686.6</ele>
        <time>2011-05-15T08:56:10Z</time>
      </trkpt>
      <trkpt lat="45.54817" lon="3.0656">
        <ele>683.8</ele>
        <time>2011-05-15T08:56:14Z</time>
      </trkpt>
      <trkpt lat="45.5481" lon="3.06523">
        <ele>681.8</ele>
        <time>2011-05-15T08:56:18Z</time>
      </trkpt>
      <trkpt lat="45.54807" lon="3.06478">
        <ele>680</ele>
        <time>2011-05-15T08:56:23Z</time>
      </trkpt>
      <trkpt lat="45.54801" lon="3.06447">
        <ele>676.6</ele>
        <time>2011-05-15T08:56:27Z</time>
      </trkpt>
      <trkpt lat="45.54792" lon="3.06414">
        <ele>674</ele>
        <time>2011-05-15T08:56:31Z</time>
      </trkpt>
      <trkpt lat="45.54785" lon="3.06382">
        <ele>671.6</ele>
        <time>2011-05-15T08:56:35Z</time>
      </trkpt>
      <trkpt lat="45.5478" lon="3.06351">
        <ele>668.6</ele>
        <time>2011-05-15T08:56:39Z</time>
      </trkpt>
      <trkpt lat="45.5478" lon="3.06312">
        <ele>665.8</ele>
        <time>2011-05-15T08:56:43Z</time>
      </trkpt>
      <trkpt lat="45.5479" lon="3.06274">
        <ele>662.8</ele>
        <time>2011-05-15T08:56:47Z</time>
      </trkpt>
      <trkpt lat="45.54798" lon="3.06238">
        <ele>660.2</ele>
        <time>2011-05-15T08:56:51Z</time>
      </trkpt>
      <trkpt lat="45.54804" lon="3.06197">
        <ele>657.2</ele>
        <time>2011-05-15T08:56:55Z</time>
      </trkpt>
      <trkpt lat="45.54808" lon="3.06153">
        <ele>655</ele>
        <time>2011-05-15T08:56:59Z</time>
      </trkpt>
      <trkpt lat="45.5481" lon="3.0612">
        <ele>652.6</ele>
        <time>2011-05-15T08:57:03Z</time>
      </trkpt>
      <trkpt lat="45.5481" lon="3.06097">
        <ele>649.2</ele>
        <time>2011-05-15T08:57:07Z</time>
      </trkpt>
      <trkpt lat="45.54799" lon="3.06076">
        <ele>647</ele>
        <time>2011-05-15T08:57:11Z</time>
      </trkpt>
      <trkpt lat="45.54782" lon="3.06062">
        <ele>644.8</ele>
        <time>2011-05-15T08:57:15Z</time>
      </trkpt>
      <trkpt lat="45.54771" lon="3.06052">
        <ele>640.8</ele>
        <time>2011-05-15T08:57:19Z</time>
      </trkpt>
      <trkpt lat="45.54762" lon="3.06041">
        <ele>637.4</ele>
        <time>2011-05-15T08:57:23Z</time>
      </trkpt>
      <trkpt lat="45.54757" lon="3.06022">
        <ele>634.4</ele>
        <time>2011-05-15T08:57:27Z</time>
      </trkpt>
      <trkpt lat="45.54747" lon="3.05992">
        <ele>632.2</ele>
        <time>2011-05-15T08:57:31Z</time>
      </trkpt>
      <trkpt lat="45.54739" lon="3.05941">
        <ele>630.6</ele>
        <time>2011-05-15T08:57:36Z</time>
      </trkpt>
      <trkpt lat="45.54731" lon="3.05902">
        <ele>628.2</ele>
        <time>2011-05-15T08:57:40Z</time>
      </trkpt>
      <trkpt lat="45.54716" lon="3.05866">
        <ele>624</ele>
        <time>2011-05-15T08:57:44Z</time>
      </trkpt>
      <trkpt lat="45.54703" lon="3.05838">
        <ele>619.6</ele>
        <time>2011-05-15T08:57:48Z</time>
      </trkpt>
      <trkpt lat="45.54686" lon="3.05805">
        <ele>615.2</ele>
        <time>2011-05-15T08:57:52Z</time>
      </trkpt>
      <trkpt lat="45.54669" lon="3.05764">
        <ele>611.8</ele>
        <time>2011-05-15T08:57:56Z</time>
      </trkpt>
      <trkpt lat="45.54649" lon="3.05736">
        <ele>609.2</ele>
        <time>2011-05-15T08:58:00Z</time>
      </trkpt>
      <trkpt lat="45.54632" lon="3.05688">
        <ele>608</ele>
        <time>2011-05-15T08:58:07Z</time>
      </trkpt>
      <trkpt lat="45.54591" lon="3.05596">
        <ele>607.2</ele>
        <time>2011-05-15T08:58:21Z</time>
      </trkpt>
      <trkpt lat="45.54556" lon="3.05504">
        <ele>607.2</ele>
        <time>2011-05-15T08:58:37Z</time>
      </trkpt>
      <trkpt lat="45.54525" lon="3.05467">
        <ele>605.4</ele>
        <time>2011-05-15T08:58:43Z</time>
      </trkpt>
      <trkpt lat="45.54482" lon="3.05426">
        <ele>604</ele>
        <time>2011-05-15T08:58:50Z</time>
      </trkpt>
      <trkpt lat="45.54459" lon="3.05403">
        <ele>601.2</ele>
        <time>2011-05-15T08:58:54Z</time>
      </trkpt>
      <trkpt lat="45.54434" lon="3.05377">
        <ele>598.6</ele>
        <time>2011-05-15T08:58:58Z</time>
      </trkpt>
      <trkpt lat="45.54397" lon="3.05331">
        <ele>598.2</ele>
        <time>2011-05-15T08:59:05Z</time>
      </trkpt>
      <trkpt lat="45.54339" lon="3.05249">
        <ele>598.2</ele>
        <time>2011-05-15T08:59:22Z</time>
      </trkpt>
      <trkpt lat="45.54324" lon="3.05224">
        <ele>600</ele>
        <time>2011-05-15T08:59:30Z</time>
      </trkpt>
      <trkpt lat="45.54308" lon="3.05182">
        <ele>600.4</ele>
        <time>2011-05-15T08:59:39Z</time>
      </trkpt>
      <trkpt lat="45.5432" lon="3.051">
        <ele>599.8</ele>
        <time>2011-05-15T08:59:50Z</time>
      </trkpt>
      <trkpt lat="45.54329" lon="3.05057">
        <ele>598</ele>
        <time>2011-05-15T08:59:54Z</time>
      </trkpt>
      <trkpt lat="45.54327" lon="3.05001">
        <ele>596.2</ele>
        <time>2011-05-15T08:59:59Z</time>
      </trkpt>
      <trkpt lat="45.54313" lon="3.04934">
        <ele>594.4</ele>
        <time>2011-05-15T09:00:05Z</time>
      </trkpt>
      <trkpt lat="45.54302" lon="3.04908">
        <ele>591.2</ele>
        <time>2011-05-15T09:00:09Z</time>
      </trkpt>
      <trkpt lat="45.54282" lon="3.04895">
        <ele>587.8</ele>
        <time>2011-05-15T09:00:13Z</time>
      </trkpt>
      <trkpt lat="45.54252" lon="3.04886">
        <ele>585.8</ele>
        <time>2011-05-15T09:00:17Z</time>
      </trkpt>
      <trkpt lat="45.54217" lon="3.04874">
        <ele>583.2</ele>
        <time>2011-05-15T09:00:21Z</time>
      </trkpt>
      <trkpt lat="45.54178" lon="3.04866">
        <ele>579.6</ele>
        <time>2011-05-15T09:00:25Z</time>
      </trkpt>
      <trkpt lat="45.54149" lon="3.0487">
        <ele>573.4</ele>
        <time>2011-05-15T09:00:29Z</time>
      </trkpt>
      <trkpt lat="45.54131" lon="3.04875">
        <ele>568</ele>
        <time>2011-05-15T09:00:33Z</time>
      </trkpt>
      <trkpt lat="45.54121" lon="3.04866">
        <ele>562.8</ele>
        <time>2011-05-15T09:00:37Z</time>
      </trkpt>
      <trkpt lat="45.54106" lon="3.04835">
        <ele>561</ele>
        <time>2011-05-15T09:00:43Z</time>
      </trkpt>
      <trkpt lat="45.54035" lon="3.0468">
        <ele>561</ele>
        <time>2011-05-15T09:01:11Z</time>
      </trkpt>
      <trkpt lat="45.54027" lon="3.04628">
        <ele>561</ele>
        <time>2011-05-15T09:01:19Z</time>
      </trkpt>
      <trkpt lat="45.54006" lon="3.0454">
        <ele>561</ele>
        <time>2011-05-15T09:01:38Z</time>
      </trkpt>
      <trkpt lat="45.54006" lon="3.04539">
        <ele>561</ele>
        <time>2011-05-15T09:02:11Z</time>
      </trkpt>
      <trkpt lat="45.54002" lon="3.04538">
        <ele>561</ele>
        <time>2011-05-15T09:02:41Z</time>
      </trkpt>
      <trkpt lat="45.54002" lon="3.04539">
        <ele>561</ele>
        <time>2011-05-15T09:03:19Z</time>
      </trkpt>
      <trkpt lat="45.54006" lon="3.04523">
        <ele>561</ele>
        <time>2011-05-15T09:03:32Z</time>
      </trkpt>
      <trkpt lat="45.53988" lon="3.04466">
        <ele>561</ele>
        <time>2011-05-15T09:03:44Z</time>
      </trkpt>
      <trkpt lat="45.53974" lon="3.04434">
        <ele>561</ele>
        <time>2011-05-15T09:03:53Z</time>
      </trkpt>
      <trkpt lat="45.53932" lon="3.04356">
        <ele>561</ele>
        <time>2011-05-15T09:04:12Z</time>
      </trkpt>
      <trkpt lat="45.53909" lon="3.04332">
        <ele>562.2</ele>
        <time>2011-05-15T09:04:20Z</time>
      </trkpt>
      <trkpt lat="45.53886" lon="3.04292">
        <ele>563</ele>
        <time>2011-05-15T09:04:31Z</time>
      </trkpt>
      <trkpt lat="45.53879" lon="3.04273">
        <ele>564.8</ele>
        <time>2011-05-15T09:04:37Z</time>
      </trkpt>
      <trkpt lat="45.53857" lon="3.04246">
        <ele>566</ele>
        <time>2011-05-15T09:04:47Z</time>
      </trkpt>
      <trkpt lat="45.5384" lon="3.04226">
        <ele>567.2</ele>
        <time>2011-05-15T09:04:54Z</time>
      </trkpt>
      <trkpt lat="45.53819" lon="3.04205">
        <ele>568.4</ele>
        <time>2011-05-15T09:05:05Z</time>
      </trkpt>
      <trkpt lat="45.53807" lon="3.04194">
        <ele>570.2</ele>
        <time>2011-05-15T09:05:13Z</time>
      </trkpt>
      <trkpt lat="45.53793" lon="3.04192">
        <ele>571.4</ele>
        <time>2011-05-15T09:05:20Z</time>
      </trkpt>
      <trkpt lat="45.53753" lon="3.04184">
        <ele>570.6</ele>
        <time>2011-05-15T09:05:31Z</time>
      </trkpt>
      <trkpt lat="45.53734" lon="3.04182">
        <ele>568.4</ele>
        <time>2011-05-15T09:05:38Z</time>
      </trkpt>
      <trkpt lat="45.53723" lon="3.04181">
        <ele>567.2</ele>
        <time>2011-05-15T09:05:43Z</time>
      </trkpt>
      <trkpt lat="45.537" lon="3.04174">
        <ele>567.2</ele>
        <time>2011-05-15T09:05:57Z</time>
      </trkpt>
      <trkpt lat="45.53653" lon="3.0416">
        <ele>567.2</ele>
        <time>2011-05-15T09:06:16Z</time>
      </trkpt>
      <trkpt lat="45.53594" lon="3.04163">
        <ele>567.2</ele>
        <time>2011-05-15T09:06:35Z</time>
      </trkpt>
      <trkpt lat="45.5357" lon="3.0416">
        <ele>568.8</ele>
        <time>2011-05-15T09:06:46Z</time>
      </trkpt>
      <trkpt lat="45.53544" lon="3.04163">
        <ele>569.2</ele>
        <time>2011-05-15T09:06:56Z</time>
      </trkpt>
      <trkpt lat="45.53523" lon="3.04158">
        <ele>569.2</ele>
        <time>2011-05-15T09:07:08Z</time>
      </trkpt>
      <trkpt lat="45.53517" lon="3.04158">
        <ele>569.2</ele>
        <time>2011-05-15T09:07:21Z</time>
      </trkpt>
      <trkpt lat="45.53497" lon="3.04168">
        <ele>569.2</ele>
        <time>2011-05-15T09:07:40Z</time>
      </trkpt>
      <trkpt lat="45.53486" lon="3.04164">
        <ele>570.6</ele>
        <time>2011-05-15T09:07:45Z</time>
      </trkpt>
      <trkpt lat="45.53475" lon="3.04154">
        <ele>571.4</ele>
        <time>2011-05-15T09:07:52Z</time>
      </trkpt>
      <trkpt lat="45.53463" lon="3.04151">
        <ele>573</ele>
        <time>2011-05-15T09:07:59Z</time>
      </trkpt>
      <trkpt lat="45.53454" lon="3.04152">
        <ele>573.8</ele>
        <time>2011-05-15T09:08:04Z</time>
      </trkpt>
      <trkpt lat="45.53446" lon="3.04155">
        <ele>575.6</ele>
        <time>2011-05-15T09:08:08Z</time>
      </trkpt>
      <trkpt lat="45.53429" lon="3.04163">
        <ele>576.8</ele>
        <time>2011-05-15T09:08:17Z</time>
      </trkpt>
      <trkpt lat="45.5341" lon="3.04163">
        <ele>577.6</ele>
        <time>2011-05-15T09:08:27Z</time>
      </trkpt>
      <trkpt lat="45.53404" lon="3.04165">
        <ele>579.2</ele>
        <time>2011-05-15T09:08:31Z</time>
      </trkpt>
      <trkpt lat="45.53392" lon="3.04167">
        <ele>580.6</ele>
        <time>2011-05-15T09:08:39Z</time>
      </trkpt>
      <trkpt lat="45.53376" lon="3.04173">
        <ele>581.8</ele>
        <time>2011-05-15T09:08:47Z</time>
      </trkpt>
      <trkpt lat="45.5336" lon="3.04169">
        <ele>581.8</ele>
        <time>2011-05-15T09:08:56Z</time>
      </trkpt>
      <trkpt lat="45.53343" lon="3.04187">
        <ele>580.4</ele>
        <time>2011-05-15T09:09:06Z</time>
      </trkpt>
      <trkpt lat="45.53339" lon="3.04189">
        <ele>579.4</ele>
        <time>2011-05-15T09:09:10Z</time>
      </trkpt>
      <trkpt lat="45.53302" lon="3.04218">
        <ele>578.6</ele>
        <time>2011-05-15T09:09:24Z</time>
      </trkpt>
      <trkpt lat="45.53284" lon="3.0423">
        <ele>577.4</ele>
        <time>2011-05-15T09:09:32Z</time>
      </trkpt>
      <trkpt lat="45.5326" lon="3.0423">
        <ele>578.8</ele>
        <time>2011-05-15T09:09:42Z</time>
      </trkpt>
      <trkpt lat="45.53226" lon="3.04225">
        <ele>579.6</ele>
        <time>2011-05-15T09:09:55Z</time>
      </trkpt>
      <trkpt lat="45.53187" lon="3.04223">
        <ele>580.8</ele>
        <time>2011-05-15T09:10:08Z</time>
      </trkpt>
      <trkpt lat="45.53152" lon="3.04226">
        <ele>581.6</ele>
        <time>2011-05-15T09:10:19Z</time>
      </trkpt>
      <trkpt lat="45.53132" lon="3.04239">
        <ele>581.6</ele>
        <time>2011-05-15T09:10:34Z</time>
      </trkpt>
      <trkpt lat="45.53131" lon="3.04241">
        <ele>584</ele>
        <time>2011-05-15T09:10:53Z</time>
      </trkpt>
      <trkpt lat="45.53107" lon="3.0423">
        <ele>584.6</ele>
        <time>2011-05-15T09:11:04Z</time>
      </trkpt>
      <trkpt lat="45.53082" lon="3.04185">
        <ele>586</ele>
        <time>2011-05-15T09:11:18Z</time>
      </trkpt>
      <trkpt lat="45.53079" lon="3.04151">
        <ele>586.8</ele>
        <time>2011-05-15T09:11:27Z</time>
      </trkpt>
      <trkpt lat="45.53081" lon="3.04129">
        <ele>588.4</ele>
        <time>2011-05-15T09:11:33Z</time>
      </trkpt>
      <trkpt lat="45.5309" lon="3.04099">
        <ele>590</ele>
        <time>2011-05-15T09:11:41Z</time>
      </trkpt>
      <trkpt lat="45.53109" lon="3.04056">
        <ele>591.6</ele>
        <time>2011-05-15T09:11:54Z</time>
      </trkpt>
      <trkpt lat="45.53122" lon="3.04026">
        <ele>593</ele>
        <time>2011-05-15T09:12:02Z</time>
      </trkpt>
      <trkpt lat="45.53128" lon="3.04012">
        <ele>594.6</ele>
        <time>2011-05-15T09:12:06Z</time>
      </trkpt>
      <trkpt lat="45.53141" lon="3.03973">
        <ele>595.8</ele>
        <time>2011-05-15T09:12:16Z</time>
      </trkpt>
      <trkpt lat="45.53144" lon="3.03931">
        <ele>597</ele>
        <time>2011-05-15T09:12:25Z</time>
      </trkpt>
      <trkpt lat="45.53125" lon="3.03864">
        <ele>598.4</ele>
        <time>2011-05-15T09:12:40Z</time>
      </trkpt>
      <trkpt lat="45.531" lon="3.0379">
        <ele>599.2</ele>
        <time>2011-05-15T09:12:55Z</time>
      </trkpt>
      <trkpt lat="45.53091" lon="3.0375">
        <ele>601</ele>
        <time>2011-05-15T09:13:03Z</time>
      </trkpt>
      <trkpt lat="45.5312" lon="3.03657">
        <ele>602</ele>
        <time>2011-05-15T09:13:22Z</time>
      </trkpt>
      <trkpt lat="45.53129" lon="3.03642">
        <ele>603.6</ele>
        <time>2011-05-15T09:13:26Z</time>
      </trkpt>
      <trkpt lat="45.53162" lon="3.03557">
        <ele>604.4</ele>
        <time>2011-05-15T09:13:44Z</time>
      </trkpt>
      <trkpt lat="45.53178" lon="3.03495">
        <ele>605.6</ele>
        <time>2011-05-15T09:13:58Z</time>
      </trkpt>
      <trkpt lat="45.53186" lon="3.03463">
        <ele>607.4</ele>
        <time>2011-05-15T09:14:05Z</time>
      </trkpt>
      <trkpt lat="45.53196" lon="3.03426">
        <ele>608.8</ele>
        <time>2011-05-15T09:14:14Z</time>
      </trkpt>
      <trkpt lat="45.53204" lon="3.03406">
        <ele>610</ele>
        <time>2011-05-15T09:14:19Z</time>
      </trkpt>
      <trkpt lat="45.5323" lon="3.03356">
        <ele>611.4</ele>
        <time>2011-05-15T09:14:33Z</time>
      </trkpt>
      <trkpt lat="45.53251" lon="3.03316">
        <ele>612.6</ele>
        <time>2011-05-15T09:14:44Z</time>
      </trkpt>
      <trkpt lat="45.53257" lon="3.03302">
        <ele>614.2</ele>
        <time>2011-05-15T09:14:48Z</time>
      </trkpt>
      <trkpt lat="45.53272" lon="3.03241">
        <ele>615</ele>
        <time>2011-05-15T09:15:02Z</time>
      </trkpt>
      <trkpt lat="45.53275" lon="3.03211">
        <ele>616.4</ele>
        <time>2011-05-15T09:15:08Z</time>
      </trkpt>
      <trkpt lat="45.5328" lon="3.03149">
        <ele>617.6</ele>
        <time>2011-05-15T09:15:19Z</time>
      </trkpt>
      <trkpt lat="45.53283" lon="3.03094">
        <ele>618.6</ele>
        <time>2011-05-15T09:15:29Z</time>
      </trkpt>
      <trkpt lat="45.53258" lon="3.02879">
        <ele>619</ele>
        <time>2011-05-15T09:16:06Z</time>
      </trkpt>
      <trkpt lat="45.53253" lon="3.02856">
        <ele>620.8</ele>
        <time>2011-05-15T09:16:10Z</time>
      </trkpt>
      <trkpt lat="45.53226" lon="3.02735">
        <ele>620.8</ele>
        <time>2011-05-15T09:16:30Z</time>
      </trkpt>
      <trkpt lat="45.53209" lon="3.027">
        <ele>620.8</ele>
        <time>2011-05-15T09:16:45Z</time>
      </trkpt>
      <trkpt lat="45.5316" lon="3.02688">
        <ele>620.8</ele>
        <time>2011-05-15T09:17:02Z</time>
      </trkpt>
      <trkpt lat="45.53115" lon="3.02678">
        <ele>620.8</ele>
        <time>2011-05-15T09:17:12Z</time>
      </trkpt>
      <trkpt lat="45.53068" lon="3.02689">
        <ele>620.8</ele>
        <time>2011-05-15T09:17:23Z</time>
      </trkpt>
      <trkpt lat="45.53063" lon="3.02717">
        <ele>619.4</ele>
        <time>2011-05-15T09:17:28Z</time>
      </trkpt>
      <trkpt lat="45.53052" lon="3.02725">
        <ele>616.6</ele>
        <time>2011-05-15T09:17:32Z</time>
      </trkpt>
      <trkpt lat="45.53026" lon="3.0273">
        <ele>616</ele>
        <time>2011-05-15T09:17:40Z</time>
      </trkpt>
      <trkpt lat="45.53001" lon="3.02749">
        <ele>617.2</ele>
        <time>2011-05-15T09:17:52Z</time>
      </trkpt>
      <trkpt lat="45.52985" lon="3.02758">
        <ele>618.4</ele>
        <time>2011-05-15T09:18:02Z</time>
      </trkpt>
      <trkpt lat="45.52979" lon="3.0276">
        <ele>620</ele>
        <time>2011-05-15T09:18:06Z</time>
      </trkpt>
      <trkpt lat="45.5297" lon="3.02771">
        <ele>620.8</ele>
        <time>2011-05-15T09:18:16Z</time>
      </trkpt>
      <trkpt lat="45.52971" lon="3.02776">
        <ele>622</ele>
        <time>2011-05-15T09:18:21Z</time>
      </trkpt>
      <trkpt lat="45.52974" lon="3.0278">
        <ele>623.6</ele>
        <time>2011-05-15T09:18:26Z</time>
      </trkpt>
      <trkpt lat="45.5298" lon="3.02785">
        <ele>624</ele>
        <time>2011-05-15T09:18:43Z</time>
      </trkpt>
      <trkpt lat="45.52984" lon="3.02788">
        <ele>625.8</ele>
        <time>2011-05-15T09:18:50Z</time>
      </trkpt>
      <trkpt lat="45.52985" lon="3.02788">
        <ele>627</ele>
        <time>2011-05-15T09:19:01Z</time>
      </trkpt>
      <trkpt lat="45.52987" lon="3.0279">
        <ele>628.2</ele>
        <time>2011-05-15T09:19:07Z</time>
      </trkpt>
      <trkpt lat="45.52992" lon="3.02796">
        <ele>629.8</ele>
        <time>2011-05-15T09:19:17Z</time>
      </trkpt>
      <trkpt lat="45.52994" lon="3.028">
        <ele>630.4</ele>
        <time>2011-05-15T09:19:24Z</time>
      </trkpt>
      <trkpt lat="45.52996" lon="3.02802">
        <ele>632</ele>
        <time>2011-05-15T09:19:32Z</time>
      </trkpt>
      <trkpt lat="45.52999" lon="3.02806">
        <ele>632.8</ele>
        <time>2011-05-15T09:19:43Z</time>
      </trkpt>
      <trkpt lat="45.53001" lon="3.02809">
        <ele>634.4</ele>
        <time>2011-05-15T09:19:47Z</time>
      </trkpt>
      <trkpt lat="45.53005" lon="3.02818">
        <ele>635.6</ele>
        <time>2011-05-15T09:19:58Z</time>
      </trkpt>
      <trkpt lat="45.53007" lon="3.02822">
        <ele>636.6</ele>
        <time>2011-05-15T09:20:04Z</time>
      </trkpt>
      <trkpt lat="45.53015" lon="3.02845">
        <ele>636.6</ele>
        <time>2011-05-15T09:20:18Z</time>
      </trkpt>
      <trkpt lat="45.53019" lon="3.02852">
        <ele>638.2</ele>
        <time>2011-05-15T09:20:23Z</time>
      </trkpt>
      <trkpt lat="45.53024" lon="3.02864">
        <ele>638.6</ele>
        <time>2011-05-15T09:20:32Z</time>
      </trkpt>
      <trkpt lat="45.53025" lon="3.02868">
        <ele>640.6</ele>
        <time>2011-05-15T09:20:36Z</time>
      </trkpt>
      <trkpt lat="45.53027" lon="3.0288">
        <ele>641.6</ele>
        <time>2011-05-15T09:20:44Z</time>
      </trkpt>
      <trkpt lat="45.53028" lon="3.02886">
        <ele>642.8</ele>
        <time>2011-05-15T09:20:49Z</time>
      </trkpt>
      <trkpt lat="45.53031" lon="3.02894">
        <ele>644.6</ele>
        <time>2011-05-15T09:20:55Z</time>
      </trkpt>
      <trkpt lat="45.53039" lon="3.0291">
        <ele>645.4</ele>
        <time>2011-05-15T09:21:09Z</time>
      </trkpt>
      <trkpt lat="45.53039" lon="3.02916">
        <ele>647</ele>
        <time>2011-05-15T09:21:13Z</time>
      </trkpt>
      <trkpt lat="45.53036" lon="3.02922">
        <ele>648.8</ele>
        <time>2011-05-15T09:21:21Z</time>
      </trkpt>
      <trkpt lat="45.53036" lon="3.02922">
        <ele>649.2</ele>
        <time>2011-05-15T09:21:33Z</time>
      </trkpt>
      <trkpt lat="45.53035" lon="3.02922">
        <ele>650.4</ele>
        <time>2011-05-15T09:21:41Z</time>
      </trkpt>
      <trkpt lat="45.53035" lon="3.02922">
        <ele>651.4</ele>
        <time>2011-05-15T09:22:12Z</time>
      </trkpt>
      <trkpt lat="45.53029" lon="3.02921">
        <ele>651.4</ele>
        <time>2011-05-15T09:22:39Z</time>
      </trkpt>
      <trkpt lat="45.53025" lon="3.0292">
        <ele>653</ele>
        <time>2011-05-15T09:22:43Z</time>
      </trkpt>
      <trkpt lat="45.53022" lon="3.02916">
        <ele>653.4</ele>
        <time>2011-05-15T09:23:12Z</time>
      </trkpt>
      <trkpt lat="45.53017" lon="3.02913">
        <ele>654.8</ele>
        <time>2011-05-15T09:23:31Z</time>
      </trkpt>
      <trkpt lat="45.53008" lon="3.02917">
        <ele>656</ele>
        <time>2011-05-15T09:23:44Z</time>
      </trkpt>
      <trkpt lat="45.53008" lon="3.02919">
        <ele>657.6</ele>
        <time>2011-05-15T09:23:48Z</time>
      </trkpt>
      <trkpt lat="45.53006" lon="3.02926">
        <ele>658.4</ele>
        <time>2011-05-15T09:23:58Z</time>
      </trkpt>
      <trkpt lat="45.53005" lon="3.02927">
        <ele>659.8</ele>
        <time>2011-05-15T09:24:03Z</time>
      </trkpt>
      <trkpt lat="45.53001" lon="3.0293">
        <ele>660.6</ele>
        <time>2011-05-15T09:24:20Z</time>
      </trkpt>
      <trkpt lat="45.52996" lon="3.02933">
        <ele>661.8</ele>
        <time>2011-05-15T09:24:25Z</time>
      </trkpt>
      <trkpt lat="45.52987" lon="3.02939">
        <ele>662.2</ele>
        <time>2011-05-15T09:24:37Z</time>
      </trkpt>
      <trkpt lat="45.52981" lon="3.02941">
        <ele>663.8</ele>
        <time>2011-05-15T09:24:41Z</time>
      </trkpt>
      <trkpt lat="45.5296" lon="3.02947">
        <ele>663.8</ele>
        <time>2011-05-15T09:24:55Z</time>
      </trkpt>
      <trkpt lat="45.5295" lon="3.02952">
        <ele>665</ele>
        <time>2011-05-15T09:25:03Z</time>
      </trkpt>
      <trkpt lat="45.52932" lon="3.02967">
        <ele>666.2</ele>
        <time>2011-05-15T09:25:16Z</time>
      </trkpt>
      <trkpt lat="45.52927" lon="3.02971">
        <ele>667.8</ele>
        <time>2011-05-15T09:25:20Z</time>
      </trkpt>
      <trkpt lat="45.52911" lon="3.02989">
        <ele>668.6</ele>
        <time>2011-05-15T09:25:34Z</time>
      </trkpt>
      <trkpt lat="45.52905" lon="3.03006">
        <ele>670</ele>
        <time>2011-05-15T09:25:42Z</time>
      </trkpt>
      <trkpt lat="45.52904" lon="3.03014">
        <ele>671.6</ele>
        <time>2011-05-15T09:25:47Z</time>
      </trkpt>
      <trkpt lat="45.52905" lon="3.03026">
        <ele>673.6</ele>
        <time>2011-05-15T09:25:55Z</time>
      </trkpt>
      <trkpt lat="45.52907" lon="3.03033">
        <ele>675</ele>
        <time>2011-05-15T09:26:02Z</time>
      </trkpt>
      <trkpt lat="45.52911" lon="3.03036">
        <ele>676.2</ele>
        <time>2011-05-15T09:26:07Z</time>
      </trkpt>
      <trkpt lat="45.52916" lon="3.03038">
        <ele>676.8</ele>
        <time>2011-05-15T09:26:30Z</time>
      </trkpt>
      <trkpt lat="45.52916" lon="3.03038">
        <ele>678.8</ele>
        <time>2011-05-15T09:26:34Z</time>
      </trkpt>
      <trkpt lat="45.52918" lon="3.03039">
        <ele>678.8</ele>
        <time>2011-05-15T09:27:02Z</time>
      </trkpt>
      <trkpt lat="45.52923" lon="3.03038">
        <ele>679.6</ele>
        <time>2011-05-15T09:27:20Z</time>
      </trkpt>
      <trkpt lat="45.52925" lon="3.03035">
        <ele>680.8</ele>
        <time>2011-05-15T09:27:25Z</time>
      </trkpt>
      <trkpt lat="45.52929" lon="3.03039">
        <ele>680.8</ele>
        <time>2011-05-15T09:27:52Z</time>
      </trkpt>
      <trkpt lat="45.52933" lon="3.0304">
        <ele>682</ele>
        <time>2011-05-15T09:27:57Z</time>
      </trkpt>
      <trkpt lat="45.52935" lon="3.03047">
        <ele>682.8</ele>
        <time>2011-05-15T09:28:11Z</time>
      </trkpt>
      <trkpt lat="45.52935" lon="3.03047">
        <ele>684.6</ele>
        <time>2011-05-15T09:28:20Z</time>
      </trkpt>
      <trkpt lat="45.52933" lon="3.0305">
        <ele>685</ele>
        <time>2011-05-15T09:28:50Z</time>
      </trkpt>
      <trkpt lat="45.52929" lon="3.03055">
        <ele>685</ele>
        <time>2011-05-15T09:29:12Z</time>
      </trkpt>
      <trkpt lat="45.52929" lon="3.03058">
        <ele>685</ele>
        <time>2011-05-15T09:29:41Z</time>
      </trkpt>
      <trkpt lat="45.52927" lon="3.03065">
        <ele>685.4</ele>
        <time>2011-05-15T09:29:53Z</time>
      </trkpt>
      <trkpt lat="45.52925" lon="3.03071">
        <ele>687</ele>
        <time>2011-05-15T09:29:57Z</time>
      </trkpt>
      <trkpt lat="45.52921" lon="3.03079">
        <ele>687.8</ele>
        <time>2011-05-15T09:30:04Z</time>
      </trkpt>
      <trkpt lat="45.52918" lon="3.03085">
        <ele>689</ele>
        <time>2011-05-15T09:30:08Z</time>
      </trkpt>
      <trkpt lat="45.52914" lon="3.03092">
        <ele>689.8</ele>
        <time>2011-05-15T09:30:13Z</time>
      </trkpt>
      <trkpt lat="45.52911" lon="3.03096">
        <ele>691</ele>
        <time>2011-05-15T09:30:17Z</time>
      </trkpt>
      <trkpt lat="45.52903" lon="3.03108">
        <ele>692.8</ele>
        <time>2011-05-15T09:30:28Z</time>
      </trkpt>
      <trkpt lat="45.52899" lon="3.03114">
        <ele>694</ele>
        <time>2011-05-15T09:30:34Z</time>
      </trkpt>
      <trkpt lat="45.52895" lon="3.03119">
        <ele>695.2</ele>
        <time>2011-05-15T09:30:38Z</time>
      </trkpt>
      <trkpt lat="45.52891" lon="3.03131">
        <ele>697</ele>
        <time>2011-05-15T09:30:45Z</time>
      </trkpt>
      <trkpt lat="45.5289" lon="3.03142">
        <ele>699</ele>
        <time>2011-05-15T09:30:51Z</time>
      </trkpt>
      <trkpt lat="45.5289" lon="3.0315">
        <ele>700.4</ele>
        <time>2011-05-15T09:30:58Z</time>
      </trkpt>
      <trkpt lat="45.52889" lon="3.03154">
        <ele>701.6</ele>
        <time>2011-05-15T09:31:02Z</time>
      </trkpt>
      <trkpt lat="45.52886" lon="3.0317">
        <ele>702.8</ele>
        <time>2011-05-15T09:31:16Z</time>
      </trkpt>
      <trkpt lat="45.52887" lon="3.0318">
        <ele>704</ele>
        <time>2011-05-15T09:31:26Z</time>
      </trkpt>
      <trkpt lat="45.52887" lon="3.03182">
        <ele>705.8</ele>
        <time>2011-05-15T09:31:30Z</time>
      </trkpt>
      <trkpt lat="45.52884" lon="3.03202">
        <ele>705.8</ele>
        <time>2011-05-15T09:31:45Z</time>
      </trkpt>
      <trkpt lat="45.52882" lon="3.03212">
        <ele>707.4</ele>
        <time>2011-05-15T09:31:50Z</time>
      </trkpt>
      <trkpt lat="45.52879" lon="3.03223">
        <ele>708.6</ele>
        <time>2011-05-15T09:31:57Z</time>
      </trkpt>
      <trkpt lat="45.52874" lon="3.03235">
        <ele>709.8</ele>
        <time>2011-05-15T09:32:04Z</time>
      </trkpt>
      <trkpt lat="45.52871" lon="3.03243">
        <ele>711.6</ele>
        <time>2011-05-15T09:32:10Z</time>
      </trkpt>
      <trkpt lat="45.52862" lon="3.03256">
        <ele>712.4</ele>
        <time>2011-05-15T09:32:21Z</time>
      </trkpt>
      <trkpt lat="45.5286" lon="3.03262">
        <ele>714</ele>
        <time>2011-05-15T09:32:25Z</time>
      </trkpt>
      <trkpt lat="45.52853" lon="3.03269">
        <ele>715</ele>
        <time>2011-05-15T09:32:31Z</time>
      </trkpt>
      <trkpt lat="45.52851" lon="3.03275">
        <ele>716.2</ele>
        <time>2011-05-15T09:32:35Z</time>
      </trkpt>
      <trkpt lat="45.52844" lon="3.03292">
        <ele>717.8</ele>
        <time>2011-05-15T09:32:43Z</time>
      </trkpt>
      <trkpt lat="45.52827" lon="3.03328">
        <ele>718.2</ele>
        <time>2011-05-15T09:33:00Z</time>
      </trkpt>
      <trkpt lat="45.528" lon="3.0334">
        <ele>718.2</ele>
        <time>2011-05-15T09:33:13Z</time>
      </trkpt>
      <trkpt lat="45.52796" lon="3.03346">
        <ele>719.8</ele>
        <time>2011-05-15T09:33:17Z</time>
      </trkpt>
      <trkpt lat="45.52789" lon="3.03375">
        <ele>721.2</ele>
        <time>2011-05-15T09:33:32Z</time>
      </trkpt>
      <trkpt lat="45.52789" lon="3.03388">
        <ele>722.4</ele>
        <time>2011-05-15T09:33:38Z</time>
      </trkpt>
      <trkpt lat="45.52793" lon="3.03403">
        <ele>722.8</ele>
        <time>2011-05-15T09:33:50Z</time>
      </trkpt>
      <trkpt lat="45.52793" lon="3.03409">
        <ele>724.4</ele>
        <time>2011-05-15T09:33:54Z</time>
      </trkpt>
      <trkpt lat="45.52795" lon="3.03424">
        <ele>725.2</ele>
        <time>2011-05-15T09:34:02Z</time>
      </trkpt>
      <trkpt lat="45.52796" lon="3.03432">
        <ele>726.4</ele>
        <time>2011-05-15T09:34:06Z</time>
      </trkpt>
      <trkpt lat="45.52799" lon="3.03453">
        <ele>727.4</ele>
        <time>2011-05-15T09:34:17Z</time>
      </trkpt>
      <trkpt lat="45.52801" lon="3.03465">
        <ele>728.6</ele>
        <time>2011-05-15T09:34:23Z</time>
      </trkpt>
      <trkpt lat="45.52798" lon="3.03487">
        <ele>730.2</ele>
        <time>2011-05-15T09:34:35Z</time>
      </trkpt>
      <trkpt lat="45.52794" lon="3.03505">
        <ele>731</ele>
        <time>2011-05-15T09:34:43Z</time>
      </trkpt>
      <trkpt lat="45.52793" lon="3.03512">
        <ele>732.8</ele>
        <time>2011-05-15T09:34:47Z</time>
      </trkpt>
      <trkpt lat="45.52788" lon="3.03542">
        <ele>733.2</ele>
        <time>2011-05-15T09:35:03Z</time>
      </trkpt>
      <trkpt lat="45.52786" lon="3.03551">
        <ele>735</ele>
        <time>2011-05-15T09:35:07Z</time>
      </trkpt>
      <trkpt lat="45.52782" lon="3.03578">
        <ele>735.8</ele>
        <time>2011-05-15T09:35:18Z</time>
      </trkpt>
      <trkpt lat="45.52779" lon="3.03586">
        <ele>737</ele>
        <time>2011-05-15T09:35:22Z</time>
      </trkpt>
      <trkpt lat="45.52778" lon="3.03591">
        <ele>737</ele>
        <time>2011-05-15T09:36:01Z</time>
      </trkpt>
      <trkpt lat="45.52777" lon="3.03592">
        <ele>737</ele>
        <time>2011-05-15T09:36:51Z</time>
      </trkpt>
      <trkpt lat="45.52778" lon="3.03592">
        <ele>737</ele>
        <time>2011-05-15T09:37:33Z</time>
      </trkpt>
      <trkpt lat="45.52776" lon="3.036">
        <ele>737</ele>
        <time>2011-05-15T09:37:55Z</time>
      </trkpt>
      <trkpt lat="45.52754" lon="3.03637">
        <ele>737</ele>
        <time>2011-05-15T09:38:07Z</time>
      </trkpt>
      <trkpt lat="45.52731" lon="3.03659">
        <ele>737</ele>
        <time>2011-05-15T09:38:30Z</time>
      </trkpt>
      <trkpt lat="45.52721" lon="3.03687">
        <ele>737</ele>
        <time>2011-05-15T09:38:42Z</time>
      </trkpt>
      <trkpt lat="45.52726" lon="3.03765">
        <ele>736.6</ele>
        <time>2011-05-15T09:38:57Z</time>
      </trkpt>
      <trkpt lat="45.52733" lon="3.03794">
        <ele>734.8</ele>
        <time>2011-05-15T09:39:01Z</time>
      </trkpt>
      <trkpt lat="45.52728" lon="3.03818">
        <ele>733.2</ele>
        <time>2011-05-15T09:39:06Z</time>
      </trkpt>
      <trkpt lat="45.52717" lon="3.03831">
        <ele>731.2</ele>
        <time>2011-05-15T09:39:10Z</time>
      </trkpt>
      <trkpt lat="45.52705" lon="3.03826">
        <ele>728.6</ele>
        <time>2011-05-15T09:39:14Z</time>
      </trkpt>
      <trkpt lat="45.52693" lon="3.03814">
        <ele>726.6</ele>
        <time>2011-05-15T09:39:18Z</time>
      </trkpt>
      <trkpt lat="45.52681" lon="3.03809">
        <ele>724.8</ele>
        <time>2011-05-15T09:39:23Z</time>
      </trkpt>
      <trkpt lat="45.52672" lon="3.03809">
        <ele>723.2</ele>
        <time>2011-05-15T09:39:27Z</time>
      </trkpt>
      <trkpt lat="45.52661" lon="3.03814">
        <ele>720.8</ele>
        <time>2011-05-15T09:39:31Z</time>
      </trkpt>
      <trkpt lat="45.52653" lon="3.03814">
        <ele>719</ele>
        <time>2011-05-15T09:39:35Z</time>
      </trkpt>
      <trkpt lat="45.52643" lon="3.0382">
        <ele>717.4</ele>
        <time>2011-05-15T09:39:40Z</time>
      </trkpt>
      <trkpt lat="45.52638" lon="3.03824">
        <ele>717</ele>
        <time>2011-05-15T09:39:44Z</time>
      </trkpt>
      <trkpt lat="45.52639" lon="3.03844">
        <ele>714.8</ele>
        <time>2011-05-15T09:39:49Z</time>
      </trkpt>
      <trkpt lat="45.52634" lon="3.03864">
        <ele>712</ele>
        <time>2011-05-15T09:39:53Z</time>
      </trkpt>
      <trkpt lat="45.52625" lon="3.03878">
        <ele>708.8</ele>
        <time>2011-05-15T09:39:57Z</time>
      </trkpt>
      <trkpt lat="45.52617" lon="3.03886">
        <ele>707.6</ele>
        <time>2011-05-15T09:40:01Z</time>
      </trkpt>
      <trkpt lat="45.52593" lon="3.03905">
        <ele>705.8</ele>
        <time>2011-05-15T09:40:10Z</time>
      </trkpt>
      <trkpt lat="45.52581" lon="3.03926">
        <ele>704.4</ele>
        <time>2011-05-15T09:40:18Z</time>
      </trkpt>
      <trkpt lat="45.52552" lon="3.03918">
        <ele>702.6</ele>
        <time>2011-05-15T09:40:28Z</time>
      </trkpt>
      <trkpt lat="45.52545" lon="3.03922">
        <ele>701</ele>
        <time>2011-05-15T09:40:32Z</time>
      </trkpt>
      <trkpt lat="45.52519" lon="3.03928">
        <ele>699.8</ele>
        <time>2011-05-15T09:40:44Z</time>
      </trkpt>
      <trkpt lat="45.52496" lon="3.03931">
        <ele>698.8</ele>
        <time>2011-05-15T09:40:57Z</time>
      </trkpt>
      <trkpt lat="45.52483" lon="3.0397">
        <ele>698.8</ele>
        <time>2011-05-15T09:41:08Z</time>
      </trkpt>
      <trkpt lat="45.52484" lon="3.04038">
        <ele>697.8</ele>
        <time>2011-05-15T09:41:21Z</time>
      </trkpt>
      <trkpt lat="45.52475" lon="3.0405">
        <ele>695.2</ele>
        <time>2011-05-15T09:41:25Z</time>
      </trkpt>
      <trkpt lat="45.52462" lon="3.0406">
        <ele>692.2</ele>
        <time>2011-05-15T09:41:29Z</time>
      </trkpt>
      <trkpt lat="45.52451" lon="3.04064">
        <ele>689.2</ele>
        <time>2011-05-15T09:41:33Z</time>
      </trkpt>
      <trkpt lat="45.52433" lon="3.04073">
        <ele>687</ele>
        <time>2011-05-15T09:41:37Z</time>
      </trkpt>
      <trkpt lat="45.52415" lon="3.04077">
        <ele>684.4</ele>
        <time>2011-05-15T09:41:41Z</time>
      </trkpt>
      <trkpt lat="45.52391" lon="3.04075">
        <ele>682.6</ele>
        <time>2011-05-15T09:41:46Z</time>
      </trkpt>
      <trkpt lat="45.52367" lon="3.04083">
        <ele>681.6</ele>
        <time>2011-05-15T09:41:51Z</time>
      </trkpt>
      <trkpt lat="45.52351" lon="3.04079">
        <ele>679.8</ele>
        <time>2011-05-15T09:41:55Z</time>
      </trkpt>
      <trkpt lat="45.52343" lon="3.04067">
        <ele>678.6</ele>
        <time>2011-05-15T09:42:00Z</time>
      </trkpt>
      <trkpt lat="45.52347" lon="3.04035">
        <ele>677.6</ele>
        <time>2011-05-15T09:42:06Z</time>
      </trkpt>
      <trkpt lat="45.52341" lon="3.04017">
        <ele>676.4</ele>
        <time>2011-05-15T09:42:12Z</time>
      </trkpt>
      <trkpt lat="45.52314" lon="3.04019">
        <ele>675.2</ele>
        <time>2011-05-15T09:42:17Z</time>
      </trkpt>
      <trkpt lat="45.52294" lon="3.04026">
        <ele>673.4</ele>
        <time>2011-05-15T09:42:21Z</time>
      </trkpt>
      <trkpt lat="45.52275" lon="3.04035">
        <ele>671.8</ele>
        <time>2011-05-15T09:42:25Z</time>
      </trkpt>
      <trkpt lat="45.52259" lon="3.04026">
        <ele>669.8</ele>
        <time>2011-05-15T09:42:30Z</time>
      </trkpt>
      <trkpt lat="45.52254" lon="3.04">
        <ele>667.8</ele>
        <time>2011-05-15T09:42:34Z</time>
      </trkpt>
      <trkpt lat="45.52245" lon="3.03971">
        <ele>666.6</ele>
        <time>2011-05-15T09:42:38Z</time>
      </trkpt>
      <trkpt lat="45.52238" lon="3.03961">
        <ele>666.2</ele>
        <time>2011-05-15T09:42:44Z</time>
      </trkpt>
      <trkpt lat="45.52234" lon="3.03961">
        <ele>664.4</ele>
        <time>2011-05-15T09:42:48Z</time>
      </trkpt>
      <trkpt lat="45.52215" lon="3.03969">
        <ele>664.4</ele>
        <time>2011-05-15T09:43:06Z</time>
      </trkpt>
      <trkpt lat="45.52166" lon="3.04003">
        <ele>664</ele>
        <time>2011-05-15T09:43:18Z</time>
      </trkpt>
      <trkpt lat="45.52141" lon="3.04022">
        <ele>661.6</ele>
        <time>2011-05-15T09:43:22Z</time>
      </trkpt>
      <trkpt lat="45.52109" lon="3.04036">
        <ele>658</ele>
        <time>2011-05-15T09:43:26Z</time>
      </trkpt>
      <trkpt lat="45.52085" lon="3.04038">
        <ele>654.4</ele>
        <time>2011-05-15T09:43:30Z</time>
      </trkpt>
      <trkpt lat="45.5206" lon="3.04047">
        <ele>651.2</ele>
        <time>2011-05-15T09:43:34Z</time>
      </trkpt>
      <trkpt lat="45.52027" lon="3.04046">
        <ele>647.4</ele>
        <time>2011-05-15T09:43:38Z</time>
      </trkpt>
      <trkpt lat="45.51998" lon="3.04046">
        <ele>644.4</ele>
        <time>2011-05-15T09:43:42Z</time>
      </trkpt>
      <trkpt lat="45.51953" lon="3.04071">
        <ele>643</ele>
        <time>2011-05-15T09:43:50Z</time>
      </trkpt>
      <trkpt lat="45.51919" lon="3.04081">
        <ele>641.2</ele>
        <time>2011-05-15T09:43:55Z</time>
      </trkpt>
      <trkpt lat="45.51892" lon="3.04083">
        <ele>639.4</ele>
        <time>2011-05-15T09:43:59Z</time>
      </trkpt>
      <trkpt lat="45.51823" lon="3.04045">
        <ele>638.6</ele>
        <time>2011-05-15T09:44:10Z</time>
      </trkpt>
      <trkpt lat="45.51791" lon="3.04031">
        <ele>637</ele>
        <time>2011-05-15T09:44:16Z</time>
      </trkpt>
      <trkpt lat="45.51759" lon="3.04006">
        <ele>636</ele>
        <time>2011-05-15T09:44:26Z</time>
      </trkpt>
      <trkpt lat="45.51733" lon="3.03987">
        <ele>634.6</ele>
        <time>2011-05-15T09:44:31Z</time>
      </trkpt>
      <trkpt lat="45.51712" lon="3.03972">
        <ele>632.4</ele>
        <time>2011-05-15T09:44:35Z</time>
      </trkpt>
      <trkpt lat="45.51691" lon="3.03945">
        <ele>629.8</ele>
        <time>2011-05-15T09:44:39Z</time>
      </trkpt>
      <trkpt lat="45.5167" lon="3.03917">
        <ele>627.2</ele>
        <time>2011-05-15T09:44:43Z</time>
      </trkpt>
      <trkpt lat="45.51653" lon="3.03902">
        <ele>623.8</ele>
        <time>2011-05-15T09:44:47Z</time>
      </trkpt>
      <trkpt lat="45.51632" lon="3.03895">
        <ele>620.4</ele>
        <time>2011-05-15T09:44:51Z</time>
      </trkpt>
      <trkpt lat="45.51612" lon="3.03889">
        <ele>618.4</ele>
        <time>2011-05-15T09:44:55Z</time>
      </trkpt>
      <trkpt lat="45.51595" lon="3.03878">
        <ele>615.6</ele>
        <time>2011-05-15T09:44:59Z</time>
      </trkpt>
      <trkpt lat="45.51575" lon="3.03887">
        <ele>612.4</ele>
        <time>2011-05-15T09:45:03Z</time>
      </trkpt>
      <trkpt lat="45.51556" lon="3.039">
        <ele>609.6</ele>
        <time>2011-05-15T09:45:07Z</time>
      </trkpt>
      <trkpt lat="45.51535" lon="3.03907">
        <ele>606.6</ele>
        <time>2011-05-15T09:45:11Z</time>
      </trkpt>
      <trkpt lat="45.51522" lon="3.03915">
        <ele>602.4</ele>
        <time>2011-05-15T09:45:15Z</time>
      </trkpt>
      <trkpt lat="45.51519" lon="3.03914">
        <ele>602.4</ele>
        <time>2011-05-15T09:45:24Z</time>
      </trkpt>
      <trkpt lat="45.51518" lon="3.03914">
        <ele>600.8</ele>
        <time>2011-05-15T09:45:35Z</time>
      </trkpt>
      <trkpt lat="45.51518" lon="3.03914">
        <ele>600.4</ele>
        <time>2011-05-15T09:46:04Z</time>
      </trkpt>
      <trkpt lat="45.51518" lon="3.03914">
        <ele>600.4</ele>
        <time>2011-05-15T09:46:55Z</time>
      </trkpt>
      <trkpt lat="45.51479" lon="3.03913">
        <ele>600.4</ele>
        <time>2011-05-15T09:47:16Z</time>
      </trkpt>
      <trkpt lat="45.515" lon="3.03959">
        <ele>600.4</ele>
        <time>2011-05-15T09:47:30Z</time>
      </trkpt>
      <trkpt lat="45.51516" lon="3.0403">
        <ele>600.4</ele>
        <time>2011-05-15T09:47:51Z</time>
      </trkpt>
      <trkpt lat="45.51515" lon="3.04043">
        <ele>602</ele>
        <time>2011-05-15T09:47:56Z</time>
      </trkpt>
      <trkpt lat="45.51512" lon="3.04056">
        <ele>603.4</ele>
        <time>2011-05-15T09:48:02Z</time>
      </trkpt>
      <trkpt lat="45.51509" lon="3.04071">
        <ele>605.2</ele>
        <time>2011-05-15T09:48:09Z</time>
      </trkpt>
      <trkpt lat="45.51506" lon="3.04079">
        <ele>606.8</ele>
        <time>2011-05-15T09:48:13Z</time>
      </trkpt>
      <trkpt lat="45.51505" lon="3.04095">
        <ele>608.6</ele>
        <time>2011-05-15T09:48:20Z</time>
      </trkpt>
      <trkpt lat="45.51507" lon="3.04116">
        <ele>609.4</ele>
        <time>2011-05-15T09:48:31Z</time>
      </trkpt>
      <trkpt lat="45.51508" lon="3.04128">
        <ele>611.2</ele>
        <time>2011-05-15T09:48:37Z</time>
      </trkpt>
      <trkpt lat="45.5151" lon="3.04138">
        <ele>612.4</ele>
        <time>2011-05-15T09:48:43Z</time>
      </trkpt>
      <trkpt lat="45.51509" lon="3.04154">
        <ele>614</ele>
        <time>2011-05-15T09:48:52Z</time>
      </trkpt>
      <trkpt lat="45.51507" lon="3.04167">
        <ele>615.8</ele>
        <time>2011-05-15T09:49:00Z</time>
      </trkpt>
      <trkpt lat="45.51505" lon="3.04174">
        <ele>617.6</ele>
        <time>2011-05-15T09:49:04Z</time>
      </trkpt>
      <trkpt lat="45.51501" lon="3.04183">
        <ele>618.8</ele>
        <time>2011-05-15T09:49:10Z</time>
      </trkpt>
      <trkpt lat="45.51496" lon="3.04188">
        <ele>619.6</ele>
        <time>2011-05-15T09:49:16Z</time>
      </trkpt>
      <trkpt lat="45.51492" lon="3.04189">
        <ele>621.4</ele>
        <time>2011-05-15T09:49:20Z</time>
      </trkpt>
      <trkpt lat="45.51487" lon="3.0419">
        <ele>622.6</ele>
        <time>2011-05-15T09:49:24Z</time>
      </trkpt>
      <trkpt lat="45.51482" lon="3.04193">
        <ele>623.8</ele>
        <time>2011-05-15T09:49:29Z</time>
      </trkpt>
      <trkpt lat="45.51476" lon="3.04194">
        <ele>625</ele>
        <time>2011-05-15T09:49:34Z</time>
      </trkpt>
      <trkpt lat="45.51468" lon="3.04194">
        <ele>626.4</ele>
        <time>2011-05-15T09:49:41Z</time>
      </trkpt>
      <trkpt lat="45.51463" lon="3.04194">
        <ele>628</ele>
        <time>2011-05-15T09:49:45Z</time>
      </trkpt>
      <trkpt lat="45.51458" lon="3.04197">
        <ele>629.2</ele>
        <time>2011-05-15T09:49:50Z</time>
      </trkpt>
      <trkpt lat="45.5145" lon="3.04199">
        <ele>631</ele>
        <time>2011-05-15T09:49:57Z</time>
      </trkpt>
      <trkpt lat="45.51439" lon="3.04199">
        <ele>632.2</ele>
        <time>2011-05-15T09:50:06Z</time>
      </trkpt>
      <trkpt lat="45.51434" lon="3.042">
        <ele>633.8</ele>
        <time>2011-05-15T09:50:10Z</time>
      </trkpt>
      <trkpt lat="45.51426" lon="3.04201">
        <ele>635.2</ele>
        <time>2011-05-15T09:50:18Z</time>
      </trkpt>
      <trkpt lat="45.51417" lon="3.04207">
        <ele>636.4</ele>
        <time>2011-05-15T09:50:26Z</time>
      </trkpt>
      <trkpt lat="45.51412" lon="3.04211">
        <ele>638.2</ele>
        <time>2011-05-15T09:50:31Z</time>
      </trkpt>
      <trkpt lat="45.51404" lon="3.04217">
        <ele>639</ele>
        <time>2011-05-15T09:50:38Z</time>
      </trkpt>
      <trkpt lat="45.51401" lon="3.04222">
        <ele>640.8</ele>
        <time>2011-05-15T09:50:42Z</time>
      </trkpt>
      <trkpt lat="45.51392" lon="3.04233">
        <ele>642</ele>
        <time>2011-05-15T09:50:52Z</time>
      </trkpt>
      <trkpt lat="45.51385" lon="3.04242">
        <ele>643.8</ele>
        <time>2011-05-15T09:51:00Z</time>
      </trkpt>
      <trkpt lat="45.51385" lon="3.0425">
        <ele>645.2</ele>
        <time>2011-05-15T09:51:05Z</time>
      </trkpt>
      <trkpt lat="45.51386" lon="3.04259">
        <ele>647</ele>
        <time>2011-05-15T09:51:11Z</time>
      </trkpt>
      <trkpt lat="45.51389" lon="3.04268">
        <ele>648.4</ele>
        <time>2011-05-15T09:51:17Z</time>
      </trkpt>
      <trkpt lat="45.51393" lon="3.04281">
        <ele>649.8</ele>
        <time>2011-05-15T09:51:25Z</time>
      </trkpt>
      <trkpt lat="45.51394" lon="3.04288">
        <ele>651.4</ele>
        <time>2011-05-15T09:51:29Z</time>
      </trkpt>
      <trkpt lat="45.51398" lon="3.04305">
        <ele>652.8</ele>
        <time>2011-05-15T09:51:39Z</time>
      </trkpt>
      <trkpt lat="45.514" lon="3.04315">
        <ele>654</ele>
        <time>2011-05-15T09:51:45Z</time>
      </trkpt>
      <trkpt lat="45.51399" lon="3.04326">
        <ele>656</ele>
        <time>2011-05-15T09:51:51Z</time>
      </trkpt>
      <trkpt lat="45.51399" lon="3.0434">
        <ele>657.2</ele>
        <time>2011-05-15T09:52:00Z</time>
      </trkpt>
      <trkpt lat="45.51397" lon="3.04357">
        <ele>658</ele>
        <time>2011-05-15T09:52:09Z</time>
      </trkpt>
      <trkpt lat="45.51394" lon="3.04364">
        <ele>659.2</ele>
        <time>2011-05-15T09:52:14Z</time>
      </trkpt>
      <trkpt lat="45.51389" lon="3.04374">
        <ele>660.4</ele>
        <time>2011-05-15T09:52:22Z</time>
      </trkpt>
      <trkpt lat="45.51386" lon="3.04379">
        <ele>662.2</ele>
        <time>2011-05-15T09:52:26Z</time>
      </trkpt>
      <trkpt lat="45.51382" lon="3.04388">
        <ele>663.6</ele>
        <time>2011-05-15T09:52:32Z</time>
      </trkpt>
      <trkpt lat="45.51378" lon="3.04393">
        <ele>664.8</ele>
        <time>2011-05-15T09:52:37Z</time>
      </trkpt>
      <trkpt lat="45.51375" lon="3.04398">
        <ele>666.6</ele>
        <time>2011-05-15T09:52:41Z</time>
      </trkpt>
      <trkpt lat="45.51371" lon="3.04406">
        <ele>668.2</ele>
        <time>2011-05-15T09:52:47Z</time>
      </trkpt>
      <trkpt lat="45.51369" lon="3.04418">
        <ele>669.4</ele>
        <time>2011-05-15T09:52:55Z</time>
      </trkpt>
      <trkpt lat="45.5137" lon="3.04424">
        <ele>670.8</ele>
        <time>2011-05-15T09:52:59Z</time>
      </trkpt>
      <trkpt lat="45.5137" lon="3.04437">
        <ele>672.8</ele>
        <time>2011-05-15T09:53:07Z</time>
      </trkpt>
      <trkpt lat="45.51368" lon="3.04447">
        <ele>673.2</ele>
        <time>2011-05-15T09:53:13Z</time>
      </trkpt>
      <trkpt lat="45.51368" lon="3.04454">
        <ele>675</ele>
        <time>2011-05-15T09:53:17Z</time>
      </trkpt>
      <trkpt lat="45.51366" lon="3.04471">
        <ele>675.8</ele>
        <time>2011-05-15T09:53:28Z</time>
      </trkpt>
      <trkpt lat="45.5137" lon="3.04481">
        <ele>677</ele>
        <time>2011-05-15T09:53:35Z</time>
      </trkpt>
      <trkpt lat="45.51378" lon="3.04487">
        <ele>678</ele>
        <time>2011-05-15T09:53:43Z</time>
      </trkpt>
      <trkpt lat="45.51382" lon="3.04487">
        <ele>679.2</ele>
        <time>2011-05-15T09:53:48Z</time>
      </trkpt>
      <trkpt lat="45.51387" lon="3.04484">
        <ele>680.2</ele>
        <time>2011-05-15T09:53:53Z</time>
      </trkpt>
      <trkpt lat="45.51392" lon="3.04476">
        <ele>681.4</ele>
        <time>2011-05-15T09:54:00Z</time>
      </trkpt>
      <trkpt lat="45.51395" lon="3.04472">
        <ele>683</ele>
        <time>2011-05-15T09:54:04Z</time>
      </trkpt>
      <trkpt lat="45.51402" lon="3.04471">
        <ele>683.8</ele>
        <time>2011-05-15T09:54:11Z</time>
      </trkpt>
      <trkpt lat="45.51407" lon="3.04471">
        <ele>685.6</ele>
        <time>2011-05-15T09:54:15Z</time>
      </trkpt>
      <trkpt lat="45.51414" lon="3.04473">
        <ele>686.8</ele>
        <time>2011-05-15T09:54:21Z</time>
      </trkpt>
      <trkpt lat="45.5142" lon="3.04479">
        <ele>688</ele>
        <time>2011-05-15T09:54:28Z</time>
      </trkpt>
      <trkpt lat="45.51424" lon="3.04481">
        <ele>689.8</ele>
        <time>2011-05-15T09:54:32Z</time>
      </trkpt>
      <trkpt lat="45.51431" lon="3.04484">
        <ele>690.6</ele>
        <time>2011-05-15T09:54:37Z</time>
      </trkpt>
      <trkpt lat="45.51435" lon="3.04486">
        <ele>691.8</ele>
        <time>2011-05-15T09:54:41Z</time>
      </trkpt>
      <trkpt lat="45.51441" lon="3.04487">
        <ele>693.4</ele>
        <time>2011-05-15T09:54:46Z</time>
      </trkpt>
      <trkpt lat="45.51449" lon="3.04486">
        <ele>695.2</ele>
        <time>2011-05-15T09:54:53Z</time>
      </trkpt>
      <trkpt lat="45.51453" lon="3.04486">
        <ele>696</ele>
        <time>2011-05-15T09:54:58Z</time>
      </trkpt>
      <trkpt lat="45.51463" lon="3.04483">
        <ele>697.8</ele>
        <time>2011-05-15T09:55:07Z</time>
      </trkpt>
      <trkpt lat="45.51472" lon="3.04477">
        <ele>699</ele>
        <time>2011-05-15T09:55:17Z</time>
      </trkpt>
      <trkpt lat="45.51477" lon="3.04471">
        <ele>700.2</ele>
        <time>2011-05-15T09:55:24Z</time>
      </trkpt>
      <trkpt lat="45.51482" lon="3.04465">
        <ele>701</ele>
        <time>2011-05-15T09:55:33Z</time>
      </trkpt>
      <trkpt lat="45.51487" lon="3.04453">
        <ele>702.2</ele>
        <time>2011-05-15T09:55:44Z</time>
      </trkpt>
      <trkpt lat="45.51489" lon="3.04451">
        <ele>704.2</ele>
        <time>2011-05-15T09:55:48Z</time>
      </trkpt>
      <trkpt lat="45.51496" lon="3.04444">
        <ele>705.4</ele>
        <time>2011-05-15T09:55:58Z</time>
      </trkpt>
      <trkpt lat="45.51502" lon="3.04437">
        <ele>706.8</ele>
        <time>2011-05-15T09:56:07Z</time>
      </trkpt>
      <trkpt lat="45.51504" lon="3.04435">
        <ele>708.4</ele>
        <time>2011-05-15T09:56:13Z</time>
      </trkpt>
      <trkpt lat="45.51516" lon="3.04427">
        <ele>709.6</ele>
        <time>2011-05-15T09:56:27Z</time>
      </trkpt>
      <trkpt lat="45.51522" lon="3.04422">
        <ele>711</ele>
        <time>2011-05-15T09:56:33Z</time>
      </trkpt>
      <trkpt lat="45.5153" lon="3.04417">
        <ele>712.2</ele>
        <time>2011-05-15T09:56:40Z</time>
      </trkpt>
      <trkpt lat="45.51541" lon="3.04412">
        <ele>713.6</ele>
        <time>2011-05-15T09:56:48Z</time>
      </trkpt>
      <trkpt lat="45.51546" lon="3.04411">
        <ele>715.2</ele>
        <time>2011-05-15T09:56:52Z</time>
      </trkpt>
      <trkpt lat="45.51571" lon="3.04426">
        <ele>715.2</ele>
        <time>2011-05-15T09:57:12Z</time>
      </trkpt>
      <trkpt lat="45.5158" lon="3.04432">
        <ele>716</ele>
        <time>2011-05-15T09:57:20Z</time>
      </trkpt>
      <trkpt lat="45.51589" lon="3.04436">
        <ele>717.2</ele>
        <time>2011-05-15T09:57:28Z</time>
      </trkpt>
      <trkpt lat="45.51595" lon="3.04439">
        <ele>719</ele>
        <time>2011-05-15T09:57:33Z</time>
      </trkpt>
      <trkpt lat="45.51603" lon="3.04442">
        <ele>720.4</ele>
        <time>2011-05-15T09:57:40Z</time>
      </trkpt>
      <trkpt lat="45.51611" lon="3.04447">
        <ele>722.2</ele>
        <time>2011-05-15T09:57:47Z</time>
      </trkpt>
      <trkpt lat="45.51616" lon="3.0445">
        <ele>724</ele>
        <time>2011-05-15T09:57:51Z</time>
      </trkpt>
      <trkpt lat="45.51623" lon="3.04455">
        <ele>725.6</ele>
        <time>2011-05-15T09:57:58Z</time>
      </trkpt>
      <trkpt lat="45.5163" lon="3.04459">
        <ele>726.4</ele>
        <time>2011-05-15T09:58:04Z</time>
      </trkpt>
      <trkpt lat="45.51634" lon="3.04462">
        <ele>728</ele>
        <time>2011-05-15T09:58:08Z</time>
      </trkpt>
      <trkpt lat="45.5164" lon="3.04467">
        <ele>728.6</ele>
        <time>2011-05-15T09:58:14Z</time>
      </trkpt>
      <trkpt lat="45.51645" lon="3.04471">
        <ele>730.2</ele>
        <time>2011-05-15T09:58:18Z</time>
      </trkpt>
      <trkpt lat="45.5165" lon="3.04481">
        <ele>731.4</ele>
        <time>2011-05-15T09:58:26Z</time>
      </trkpt>
      <trkpt lat="45.5165" lon="3.0449">
        <ele>732.2</ele>
        <time>2011-05-15T09:58:31Z</time>
      </trkpt>
      <trkpt lat="45.51648" lon="3.04499">
        <ele>733.8</ele>
        <time>2011-05-15T09:58:37Z</time>
      </trkpt>
      <trkpt lat="45.5164" lon="3.04505">
        <ele>734.2</ele>
        <time>2011-05-15T09:58:45Z</time>
      </trkpt>
      <trkpt lat="45.51636" lon="3.04509">
        <ele>735.8</ele>
        <time>2011-05-15T09:58:49Z</time>
      </trkpt>
      <trkpt lat="45.5163" lon="3.04518">
        <ele>737.2</ele>
        <time>2011-05-15T09:58:57Z</time>
      </trkpt>
      <trkpt lat="45.51626" lon="3.04525">
        <ele>738.4</ele>
        <time>2011-05-15T09:59:03Z</time>
      </trkpt>
      <trkpt lat="45.51618" lon="3.04535">
        <ele>740</ele>
        <time>2011-05-15T09:59:12Z</time>
      </trkpt>
      <trkpt lat="45.51607" lon="3.04556">
        <ele>740.8</ele>
        <time>2011-05-15T09:59:26Z</time>
      </trkpt>
      <trkpt lat="45.51603" lon="3.04562">
        <ele>742.4</ele>
        <time>2011-05-15T09:59:30Z</time>
      </trkpt>
      <trkpt lat="45.51566" lon="3.04606">
        <ele>742.4</ele>
        <time>2011-05-15T09:59:50Z</time>
      </trkpt>
      <trkpt lat="45.51536" lon="3.04659">
        <ele>742.8</ele>
        <time>2011-05-15T10:00:08Z</time>
      </trkpt>
      <trkpt lat="45.5153" lon="3.04669">
        <ele>744.4</ele>
        <time>2011-05-15T10:00:12Z</time>
      </trkpt>
      <trkpt lat="45.5151" lon="3.04702">
        <ele>744.4</ele>
        <time>2011-05-15T10:00:27Z</time>
      </trkpt>
      <trkpt lat="45.51503" lon="3.04711">
        <ele>746.2</ele>
        <time>2011-05-15T10:00:34Z</time>
      </trkpt>
      <trkpt lat="45.51495" lon="3.04725">
        <ele>747.8</ele>
        <time>2011-05-15T10:00:44Z</time>
      </trkpt>
      <trkpt lat="45.5149" lon="3.04739">
        <ele>749</ele>
        <time>2011-05-15T10:00:52Z</time>
      </trkpt>
      <trkpt lat="45.5149" lon="3.0476">
        <ele>750.6</ele>
        <time>2011-05-15T10:01:02Z</time>
      </trkpt>
      <trkpt lat="45.51491" lon="3.04777">
        <ele>752.2</ele>
        <time>2011-05-15T10:01:09Z</time>
      </trkpt>
      <trkpt lat="45.51492" lon="3.04814">
        <ele>752.6</ele>
        <time>2011-05-15T10:01:20Z</time>
      </trkpt>
      <trkpt lat="45.51541" lon="3.04849">
        <ele>752.2</ele>
        <time>2011-05-15T10:01:30Z</time>
      </trkpt>
      <trkpt lat="45.51566" lon="3.0487">
        <ele>750.4</ele>
        <time>2011-05-15T10:01:34Z</time>
      </trkpt>
      <trkpt lat="45.51582" lon="3.04887">
        <ele>748.4</ele>
        <time>2011-05-15T10:01:38Z</time>
      </trkpt>
      <trkpt lat="45.51625" lon="3.04931">
        <ele>748.4</ele>
        <time>2011-05-15T10:01:50Z</time>
      </trkpt>
      <trkpt lat="45.51678" lon="3.04959">
        <ele>749.2</ele>
        <time>2011-05-15T10:02:08Z</time>
      </trkpt>
      <trkpt lat="45.51696" lon="3.04985">
        <ele>750.4</ele>
        <time>2011-05-15T10:02:18Z</time>
      </trkpt>
      <trkpt lat="45.51737" lon="3.05029">
        <ele>750.8</ele>
        <time>2011-05-15T10:02:37Z</time>
      </trkpt>
      <trkpt lat="45.51746" lon="3.05031">
        <ele>752.4</ele>
        <time>2011-05-15T10:02:41Z</time>
      </trkpt>
      <trkpt lat="45.51762" lon="3.05036">
        <ele>753.2</ele>
        <time>2011-05-15T10:02:53Z</time>
      </trkpt>
      <trkpt lat="45.51766" lon="3.05039">
        <ele>754.6</ele>
        <time>2011-05-15T10:02:57Z</time>
      </trkpt>
      <trkpt lat="45.51775" lon="3.05045">
        <ele>755.4</ele>
        <time>2011-05-15T10:03:05Z</time>
      </trkpt>
      <trkpt lat="45.51785" lon="3.05053">
        <ele>756.8</ele>
        <time>2011-05-15T10:03:12Z</time>
      </trkpt>
      <trkpt lat="45.51788" lon="3.05059">
        <ele>758.4</ele>
        <time>2011-05-15T10:03:16Z</time>
      </trkpt>
      <trkpt lat="45.51798" lon="3.05075">
        <ele>759.2</ele>
        <time>2011-05-15T10:03:27Z</time>
      </trkpt>
      <trkpt lat="45.51801" lon="3.05082">
        <ele>760.8</ele>
        <time>2011-05-15T10:03:31Z</time>
      </trkpt>
      <trkpt lat="45.51809" lon="3.0511">
        <ele>760.8</ele>
        <time>2011-05-15T10:03:42Z</time>
      </trkpt>
      <trkpt lat="45.51822" lon="3.0516">
        <ele>760.8</ele>
        <time>2011-05-15T10:03:59Z</time>
      </trkpt>
      <trkpt lat="45.51829" lon="3.05179">
        <ele>762</ele>
        <time>2011-05-15T10:04:05Z</time>
      </trkpt>
      <trkpt lat="45.51841" lon="3.05225">
        <ele>762.8</ele>
        <time>2011-05-15T10:04:19Z</time>
      </trkpt>
      <trkpt lat="45.5184" lon="3.05261">
        <ele>764</ele>
        <time>2011-05-15T10:04:29Z</time>
      </trkpt>
      <trkpt lat="45.51836" lon="3.05307">
        <ele>765</ele>
        <time>2011-05-15T10:04:43Z</time>
      </trkpt>
      <trkpt lat="45.51837" lon="3.05331">
        <ele>765.8</ele>
        <time>2011-05-15T10:04:52Z</time>
      </trkpt>
      <trkpt lat="45.51843" lon="3.05352">
        <ele>767</ele>
        <time>2011-05-15T10:04:57Z</time>
      </trkpt>
      <trkpt lat="45.51865" lon="3.05405">
        <ele>767.4</ele>
        <time>2011-05-15T10:05:16Z</time>
      </trkpt>
      <trkpt lat="45.51868" lon="3.05413">
        <ele>769</ele>
        <time>2011-05-15T10:05:20Z</time>
      </trkpt>
      <trkpt lat="45.51881" lon="3.05459">
        <ele>769.8</ele>
        <time>2011-05-15T10:05:38Z</time>
      </trkpt>
      <trkpt lat="45.51889" lon="3.05484">
        <ele>771.2</ele>
        <time>2011-05-15T10:05:45Z</time>
      </trkpt>
      <trkpt lat="45.51915" lon="3.05552">
        <ele>771.6</ele>
        <time>2011-05-15T10:06:05Z</time>
      </trkpt>
      <trkpt lat="45.51917" lon="3.05565">
        <ele>773.2</ele>
        <time>2011-05-15T10:06:09Z</time>
      </trkpt>
      <trkpt lat="45.51922" lon="3.05594">
        <ele>774.2</ele>
        <time>2011-05-15T10:06:22Z</time>
      </trkpt>
      <trkpt lat="45.5192" lon="3.05611">
        <ele>775.4</ele>
        <time>2011-05-15T10:06:31Z</time>
      </trkpt>
      <trkpt lat="45.51918" lon="3.05619">
        <ele>777</ele>
        <time>2011-05-15T10:06:36Z</time>
      </trkpt>
      <trkpt lat="45.51913" lon="3.05631">
        <ele>778.4</ele>
        <time>2011-05-15T10:06:44Z</time>
      </trkpt>
      <trkpt lat="45.5191" lon="3.0564">
        <ele>779.6</ele>
        <time>2011-05-15T10:06:50Z</time>
      </trkpt>
      <trkpt lat="45.51905" lon="3.05658">
        <ele>781.2</ele>
        <time>2011-05-15T10:07:00Z</time>
      </trkpt>
      <trkpt lat="45.51897" lon="3.05686">
        <ele>782</ele>
        <time>2011-05-15T10:07:15Z</time>
      </trkpt>
      <trkpt lat="45.51894" lon="3.05695">
        <ele>783.6</ele>
        <time>2011-05-15T10:07:19Z</time>
      </trkpt>
      <trkpt lat="45.51873" lon="3.05769">
        <ele>784</ele>
        <time>2011-05-15T10:07:42Z</time>
      </trkpt>
      <trkpt lat="45.51869" lon="3.0578">
        <ele>785.6</ele>
        <time>2011-05-15T10:07:46Z</time>
      </trkpt>
      <trkpt lat="45.51849" lon="3.05802">
        <ele>786.4</ele>
        <time>2011-05-15T10:07:58Z</time>
      </trkpt>
      <trkpt lat="45.51841" lon="3.05814">
        <ele>787.6</ele>
        <time>2011-05-15T10:08:03Z</time>
      </trkpt>
      <trkpt lat="45.51809" lon="3.05909">
        <ele>787.6</ele>
        <time>2011-05-15T10:08:20Z</time>
      </trkpt>
      <trkpt lat="45.51787" lon="3.06005">
        <ele>787.6</ele>
        <time>2011-05-15T10:08:38Z</time>
      </trkpt>
      <trkpt lat="45.51756" lon="3.06066">
        <ele>786.8</ele>
        <time>2011-05-15T10:08:47Z</time>
      </trkpt>
      <trkpt lat="45.5173" lon="3.06084">
        <ele>784.8</ele>
        <time>2011-05-15T10:08:51Z</time>
      </trkpt>
      <trkpt lat="45.5171" lon="3.06108">
        <ele>783.4</ele>
        <time>2011-05-15T10:08:57Z</time>
      </trkpt>
      <trkpt lat="45.51709" lon="3.06162">
        <ele>783.4</ele>
        <time>2011-05-15T10:09:06Z</time>
      </trkpt>
      <trkpt lat="45.51714" lon="3.06198">
        <ele>783.8</ele>
        <time>2011-05-15T10:09:22Z</time>
      </trkpt>
      <trkpt lat="45.51713" lon="3.06204">
        <ele>785.4</ele>
        <time>2011-05-15T10:09:26Z</time>
      </trkpt>
      <trkpt lat="45.5171" lon="3.0622">
        <ele>786.6</ele>
        <time>2011-05-15T10:09:35Z</time>
      </trkpt>
      <trkpt lat="45.5171" lon="3.06234">
        <ele>788.2</ele>
        <time>2011-05-15T10:09:44Z</time>
      </trkpt>
      <trkpt lat="45.5171" lon="3.06242">
        <ele>789.4</ele>
        <time>2011-05-15T10:09:48Z</time>
      </trkpt>
      <trkpt lat="45.51712" lon="3.06261">
        <ele>790.2</ele>
        <time>2011-05-15T10:09:57Z</time>
      </trkpt>
      <trkpt lat="45.51715" lon="3.06296">
        <ele>791.4</ele>
        <time>2011-05-15T10:10:14Z</time>
      </trkpt>
      <trkpt lat="45.51709" lon="3.06312">
        <ele>793.4</ele>
        <time>2011-05-15T10:10:22Z</time>
      </trkpt>
      <trkpt lat="45.51689" lon="3.06361">
        <ele>794</ele>
        <time>2011-05-15T10:10:49Z</time>
      </trkpt>
      <trkpt lat="45.51685" lon="3.06369">
        <ele>795.6</ele>
        <time>2011-05-15T10:10:53Z</time>
      </trkpt>
      <trkpt lat="45.51678" lon="3.06391">
        <ele>796.8</ele>
        <time>2011-05-15T10:11:06Z</time>
      </trkpt>
      <trkpt lat="45.5167" lon="3.06406">
        <ele>798.2</ele>
        <time>2011-05-15T10:11:16Z</time>
      </trkpt>
      <trkpt lat="45.51665" lon="3.06411">
        <ele>800</ele>
        <time>2011-05-15T10:11:20Z</time>
      </trkpt>
      <trkpt lat="45.51659" lon="3.06417">
        <ele>800.8</ele>
        <time>2011-05-15T10:11:26Z</time>
      </trkpt>
      <trkpt lat="45.51649" lon="3.06422">
        <ele>802.4</ele>
        <time>2011-05-15T10:11:34Z</time>
      </trkpt>
      <trkpt lat="45.51641" lon="3.06427">
        <ele>804</ele>
        <time>2011-05-15T10:11:41Z</time>
      </trkpt>
      <trkpt lat="45.51633" lon="3.06431">
        <ele>805.8</ele>
        <time>2011-05-15T10:11:48Z</time>
      </trkpt>
      <trkpt lat="45.5162" lon="3.06447">
        <ele>807.4</ele>
        <time>2011-05-15T10:12:01Z</time>
      </trkpt>
      <trkpt lat="45.51604" lon="3.0646">
        <ele>808.6</ele>
        <time>2011-05-15T10:12:16Z</time>
      </trkpt>
      <trkpt lat="45.51599" lon="3.06463">
        <ele>810.4</ele>
        <time>2011-05-15T10:12:20Z</time>
      </trkpt>
      <trkpt lat="45.51586" lon="3.06465">
        <ele>812.6</ele>
        <time>2011-05-15T10:12:29Z</time>
      </trkpt>
      <trkpt lat="45.51563" lon="3.06451">
        <ele>813.4</ele>
        <time>2011-05-15T10:12:46Z</time>
      </trkpt>
      <trkpt lat="45.51547" lon="3.06439">
        <ele>814.6</ele>
        <time>2011-05-15T10:12:56Z</time>
      </trkpt>
      <trkpt lat="45.51527" lon="3.06425">
        <ele>816.4</ele>
        <time>2011-05-15T10:13:07Z</time>
      </trkpt>
      <trkpt lat="45.51509" lon="3.06409">
        <ele>817.2</ele>
        <time>2011-05-15T10:13:20Z</time>
      </trkpt>
      <trkpt lat="45.51504" lon="3.06407">
        <ele>818.8</ele>
        <time>2011-05-15T10:13:24Z</time>
      </trkpt>
      <trkpt lat="45.51488" lon="3.06405">
        <ele>819.6</ele>
        <time>2011-05-15T10:13:36Z</time>
      </trkpt>
      <trkpt lat="45.51482" lon="3.06405">
        <ele>820.8</ele>
        <time>2011-05-15T10:13:41Z</time>
      </trkpt>
      <trkpt lat="45.51472" lon="3.06405">
        <ele>822.6</ele>
        <time>2011-05-15T10:13:49Z</time>
      </trkpt>
      <trkpt lat="45.51463" lon="3.06403">
        <ele>823.8</ele>
        <time>2011-05-15T10:13:57Z</time>
      </trkpt>
      <trkpt lat="45.51458" lon="3.06404">
        <ele>825.2</ele>
        <time>2011-05-15T10:14:01Z</time>
      </trkpt>
      <trkpt lat="45.51451" lon="3.06404">
        <ele>827.4</ele>
        <time>2011-05-15T10:14:08Z</time>
      </trkpt>
      <trkpt lat="45.51441" lon="3.06404">
        <ele>829</ele>
        <time>2011-05-15T10:14:16Z</time>
      </trkpt>
      <trkpt lat="45.51433" lon="3.06405">
        <ele>830</ele>
        <time>2011-05-15T10:14:23Z</time>
      </trkpt>
      <trkpt lat="45.51428" lon="3.06404">
        <ele>831.8</ele>
        <time>2011-05-15T10:14:27Z</time>
      </trkpt>
      <trkpt lat="45.51417" lon="3.06406">
        <ele>832.6</ele>
        <time>2011-05-15T10:14:36Z</time>
      </trkpt>
      <trkpt lat="45.51408" lon="3.06408">
        <ele>834</ele>
        <time>2011-05-15T10:14:43Z</time>
      </trkpt>
      <trkpt lat="45.51396" lon="3.06402">
        <ele>834.8</ele>
        <time>2011-05-15T10:14:53Z</time>
      </trkpt>
      <trkpt lat="45.51381" lon="3.0639">
        <ele>836.4</ele>
        <time>2011-05-15T10:15:07Z</time>
      </trkpt>
      <trkpt lat="45.51377" lon="3.06386">
        <ele>838</ele>
        <time>2011-05-15T10:15:11Z</time>
      </trkpt>
      <trkpt lat="45.51366" lon="3.06376">
        <ele>839.2</ele>
        <time>2011-05-15T10:15:21Z</time>
      </trkpt>
      <trkpt lat="45.51357" lon="3.06366">
        <ele>841</ele>
        <time>2011-05-15T10:15:31Z</time>
      </trkpt>
      <trkpt lat="45.51348" lon="3.06358">
        <ele>842.4</ele>
        <time>2011-05-15T10:15:39Z</time>
      </trkpt>
      <trkpt lat="45.51344" lon="3.06355">
        <ele>844.4</ele>
        <time>2011-05-15T10:15:43Z</time>
      </trkpt>
      <trkpt lat="45.51333" lon="3.06344">
        <ele>845.8</ele>
        <time>2011-05-15T10:15:54Z</time>
      </trkpt>
      <trkpt lat="45.51323" lon="3.06337">
        <ele>847</ele>
        <time>2011-05-15T10:16:03Z</time>
      </trkpt>
      <trkpt lat="45.51319" lon="3.06332">
        <ele>848.8</ele>
        <time>2011-05-15T10:16:07Z</time>
      </trkpt>
      <trkpt lat="45.51309" lon="3.06324">
        <ele>849.6</ele>
        <time>2011-05-15T10:16:16Z</time>
      </trkpt>
      <trkpt lat="45.51304" lon="3.06319">
        <ele>850.8</ele>
        <time>2011-05-15T10:16:21Z</time>
      </trkpt>
      <trkpt lat="45.51291" lon="3.06314">
        <ele>852</ele>
        <time>2011-05-15T10:16:32Z</time>
      </trkpt>
      <trkpt lat="45.51255" lon="3.06267">
        <ele>852.8</ele>
        <time>2011-05-15T10:16:53Z</time>
      </trkpt>
      <trkpt lat="45.51274" lon="3.06211">
        <ele>853.2</ele>
        <time>2011-05-15T10:17:19Z</time>
      </trkpt>
      <trkpt lat="45.51292" lon="3.06206">
        <ele>855</ele>
        <time>2011-05-15T10:17:27Z</time>
      </trkpt>
      <trkpt lat="45.51311" lon="3.062">
        <ele>856.8</ele>
        <time>2011-05-15T10:17:36Z</time>
      </trkpt>
      <trkpt lat="45.51335" lon="3.06182">
        <ele>858</ele>
        <time>2011-05-15T10:17:48Z</time>
      </trkpt>
      <trkpt lat="45.51342" lon="3.06167">
        <ele>859.2</ele>
        <time>2011-05-15T10:17:54Z</time>
      </trkpt>
      <trkpt lat="45.51345" lon="3.06134">
        <ele>860.4</ele>
        <time>2011-05-15T10:18:06Z</time>
      </trkpt>
      <trkpt lat="45.51342" lon="3.06102">
        <ele>861.6</ele>
        <time>2011-05-15T10:18:19Z</time>
      </trkpt>
      <trkpt lat="45.51341" lon="3.06094">
        <ele>863.4</ele>
        <time>2011-05-15T10:18:23Z</time>
      </trkpt>
      <trkpt lat="45.51339" lon="3.06067">
        <ele>864.6</ele>
        <time>2011-05-15T10:18:35Z</time>
      </trkpt>
      <trkpt lat="45.51332" lon="3.06048">
        <ele>865.4</ele>
        <time>2011-05-15T10:18:45Z</time>
      </trkpt>
      <trkpt lat="45.51328" lon="3.06034">
        <ele>866.2</ele>
        <time>2011-05-15T10:18:52Z</time>
      </trkpt>
      <trkpt lat="45.51325" lon="3.06027">
        <ele>867.4</ele>
        <time>2011-05-15T10:18:56Z</time>
      </trkpt>
      <trkpt lat="45.51315" lon="3.06006">
        <ele>868.8</ele>
        <time>2011-05-15T10:19:07Z</time>
      </trkpt>
      <trkpt lat="45.51302" lon="3.0598">
        <ele>870</ele>
        <time>2011-05-15T10:19:21Z</time>
      </trkpt>
      <trkpt lat="45.51298" lon="3.05973">
        <ele>871.8</ele>
        <time>2011-05-15T10:19:25Z</time>
      </trkpt>
      <trkpt lat="45.51287" lon="3.05961">
        <ele>873</ele>
        <time>2011-05-15T10:19:34Z</time>
      </trkpt>
      <trkpt lat="45.51269" lon="3.05957">
        <ele>874.2</ele>
        <time>2011-05-15T10:19:45Z</time>
      </trkpt>
      <trkpt lat="45.51263" lon="3.05957">
        <ele>876</ele>
        <time>2011-05-15T10:19:49Z</time>
      </trkpt>
      <trkpt lat="45.51243" lon="3.05965">
        <ele>877.2</ele>
        <time>2011-05-15T10:20:01Z</time>
      </trkpt>
      <trkpt lat="45.5122" lon="3.05981">
        <ele>878.4</ele>
        <time>2011-05-15T10:20:13Z</time>
      </trkpt>
      <trkpt lat="45.51207" lon="3.05995">
        <ele>880</ele>
        <time>2011-05-15T10:20:21Z</time>
      </trkpt>
      <trkpt lat="45.51189" lon="3.06015">
        <ele>881.2</ele>
        <time>2011-05-15T10:20:35Z</time>
      </trkpt>
      <trkpt lat="45.51186" lon="3.06015">
        <ele>882</ele>
        <time>2011-05-15T10:20:47Z</time>
      </trkpt>
      <trkpt lat="45.51186" lon="3.06014">
        <ele>882</ele>
        <time>2011-05-15T10:21:24Z</time>
      </trkpt>
      <trkpt lat="45.51186" lon="3.06014">
        <ele>882</ele>
        <time>2011-05-15T10:22:20Z</time>
      </trkpt>
      <trkpt lat="45.51186" lon="3.06014">
        <ele>882</ele>
        <time>2011-05-15T10:23:15Z</time>
      </trkpt>
      <trkpt lat="45.51186" lon="3.06014">
        <ele>882</ele>
        <time>2011-05-15T10:24:06Z</time>
      </trkpt>
      <trkpt lat="45.51186" lon="3.06014">
        <ele>882</ele>
        <time>2011-05-15T10:25:02Z</time>
      </trkpt>
      <trkpt lat="45.51186" lon="3.06013">
        <ele>882</ele>
        <time>2011-05-15T10:25:59Z</time>
      </trkpt>
      <trkpt lat="45.51186" lon="3.06013">
        <ele>882</ele>
        <time>2011-05-15T10:26:57Z</time>
      </trkpt>
      <trkpt lat="45.51187" lon="3.06014">
        <ele>882</ele>
        <time>2011-05-15T10:27:55Z</time>
      </trkpt>
      <trkpt lat="45.51187" lon="3.06014">
        <ele>882</ele>
        <time>2011-05-15T10:28:58Z</time>
      </trkpt>
      <trkpt lat="45.51187" lon="3.06014">
        <ele>882</ele>
        <time>2011-05-15T10:29:59Z</time>
      </trkpt>
      <trkpt lat="45.51186" lon="3.06015">
        <ele>882</ele>
        <time>2011-05-15T10:30:32Z</time>
      </trkpt>
      <trkpt lat="45.51186" lon="3.06015">
        <ele>882</ele>
        <time>2011-05-15T10:31:20Z</time>
      </trkpt>
      <trkpt lat="45.51169" lon="3.06031">
        <ele>882</ele>
        <time>2011-05-15T10:31:40Z</time>
      </trkpt>
      <trkpt lat="45.51141" lon="3.06035">
        <ele>883.2</ele>
        <time>2011-05-15T10:31:52Z</time>
      </trkpt>
      <trkpt lat="45.51118" lon="3.06041">
        <ele>884.2</ele>
        <time>2011-05-15T10:32:02Z</time>
      </trkpt>
      <trkpt lat="45.51107" lon="3.06046">
        <ele>885.8</ele>
        <time>2011-05-15T10:32:06Z</time>
      </trkpt>
      <trkpt lat="45.51066" lon="3.06048">
        <ele>886.6</ele>
        <time>2011-05-15T10:32:21Z</time>
      </trkpt>
      <trkpt lat="45.51058" lon="3.06043">
        <ele>888.4</ele>
        <time>2011-05-15T10:32:25Z</time>
      </trkpt>
      <trkpt lat="45.51045" lon="3.06029">
        <ele>890</ele>
        <time>2011-05-15T10:32:36Z</time>
      </trkpt>
      <trkpt lat="45.51037" lon="3.0602">
        <ele>891.4</ele>
        <time>2011-05-15T10:32:45Z</time>
      </trkpt>
      <trkpt lat="45.51026" lon="3.06009">
        <ele>893</ele>
        <time>2011-05-15T10:32:55Z</time>
      </trkpt>
      <trkpt lat="45.51023" lon="3.06005">
        <ele>894.8</ele>
        <time>2011-05-15T10:32:59Z</time>
      </trkpt>
      <trkpt lat="45.5102" lon="3.06002">
        <ele>896</ele>
        <time>2011-05-15T10:33:06Z</time>
      </trkpt>
      <trkpt lat="45.51012" lon="3.05995">
        <ele>896.8</ele>
        <time>2011-05-15T10:33:13Z</time>
      </trkpt>
      <trkpt lat="45.51007" lon="3.05991">
        <ele>898.4</ele>
        <time>2011-05-15T10:33:17Z</time>
      </trkpt>
      <trkpt lat="45.50996" lon="3.05983">
        <ele>900.2</ele>
        <time>2011-05-15T10:33:26Z</time>
      </trkpt>
      <trkpt lat="45.50989" lon="3.05979">
        <ele>901.6</ele>
        <time>2011-05-15T10:33:33Z</time>
      </trkpt>
      <trkpt lat="45.50984" lon="3.05978">
        <ele>903.2</ele>
        <time>2011-05-15T10:33:37Z</time>
      </trkpt>
      <trkpt lat="45.50972" lon="3.05975">
        <ele>904.4</ele>
        <time>2011-05-15T10:33:48Z</time>
      </trkpt>
      <trkpt lat="45.50964" lon="3.05972">
        <ele>906</ele>
        <time>2011-05-15T10:33:56Z</time>
      </trkpt>
      <trkpt lat="45.50955" lon="3.05965">
        <ele>907.8</ele>
        <time>2011-05-15T10:34:05Z</time>
      </trkpt>
      <trkpt lat="45.50952" lon="3.05961">
        <ele>909.4</ele>
        <time>2011-05-15T10:34:09Z</time>
      </trkpt>
      <trkpt lat="45.50944" lon="3.05955">
        <ele>911.4</ele>
        <time>2011-05-15T10:34:17Z</time>
      </trkpt>
      <trkpt lat="45.50935" lon="3.05946">
        <ele>912.8</ele>
        <time>2011-05-15T10:34:26Z</time>
      </trkpt>
      <trkpt lat="45.50926" lon="3.05931">
        <ele>913.6</ele>
        <time>2011-05-15T10:34:38Z</time>
      </trkpt>
      <trkpt lat="45.50924" lon="3.05923">
        <ele>915.2</ele>
        <time>2011-05-15T10:34:43Z</time>
      </trkpt>
      <trkpt lat="45.5092" lon="3.05911">
        <ele>916</ele>
        <time>2011-05-15T10:34:51Z</time>
      </trkpt>
      <trkpt lat="45.50919" lon="3.05905">
        <ele>917.6</ele>
        <time>2011-05-15T10:34:55Z</time>
      </trkpt>
      <trkpt lat="45.50913" lon="3.05893">
        <ele>918.4</ele>
        <time>2011-05-15T10:35:04Z</time>
      </trkpt>
      <trkpt lat="45.5091" lon="3.05879">
        <ele>919.8</ele>
        <time>2011-05-15T10:35:13Z</time>
      </trkpt>
      <trkpt lat="45.50907" lon="3.05872">
        <ele>921</ele>
        <time>2011-05-15T10:35:18Z</time>
      </trkpt>
      <trkpt lat="45.50902" lon="3.05862">
        <ele>921.8</ele>
        <time>2011-05-15T10:35:26Z</time>
      </trkpt>
      <trkpt lat="45.50899" lon="3.05854">
        <ele>924</ele>
        <time>2011-05-15T10:35:31Z</time>
      </trkpt>
      <trkpt lat="45.50893" lon="3.05842">
        <ele>925.2</ele>
        <time>2011-05-15T10:35:40Z</time>
      </trkpt>
      <trkpt lat="45.50885" lon="3.05825">
        <ele>926.4</ele>
        <time>2011-05-15T10:35:53Z</time>
      </trkpt>
      <trkpt lat="45.50882" lon="3.05819">
        <ele>928.2</ele>
        <time>2011-05-15T10:35:57Z</time>
      </trkpt>
      <trkpt lat="45.50872" lon="3.05801">
        <ele>929.4</ele>
        <time>2011-05-15T10:36:11Z</time>
      </trkpt>
      <trkpt lat="45.50864" lon="3.05785">
        <ele>930.6</ele>
        <time>2011-05-15T10:36:22Z</time>
      </trkpt>
      <trkpt lat="45.50861" lon="3.0578">
        <ele>932.2</ele>
        <time>2011-05-15T10:36:26Z</time>
      </trkpt>
      <trkpt lat="45.50847" lon="3.05757">
        <ele>933</ele>
        <time>2011-05-15T10:36:43Z</time>
      </trkpt>
      <trkpt lat="45.50842" lon="3.05747">
        <ele>934.4</ele>
        <time>2011-05-15T10:36:50Z</time>
      </trkpt>
      <trkpt lat="45.50837" lon="3.05739">
        <ele>936</ele>
        <time>2011-05-15T10:36:56Z</time>
      </trkpt>
      <trkpt lat="45.50827" lon="3.05729">
        <ele>937.4</ele>
        <time>2011-05-15T10:37:07Z</time>
      </trkpt>
      <trkpt lat="45.50827" lon="3.05728">
        <ele>938.6</ele>
        <time>2011-05-15T10:37:11Z</time>
      </trkpt>
      <trkpt lat="45.50827" lon="3.05728">
        <ele>938.6</ele>
        <time>2011-05-15T10:37:55Z</time>
      </trkpt>
      <trkpt lat="45.50817" lon="3.05737">
        <ele>938.6</ele>
        <time>2011-05-15T10:38:19Z</time>
      </trkpt>
      <trkpt lat="45.50778" lon="3.05776">
        <ele>939.4</ele>
        <time>2011-05-15T10:38:39Z</time>
      </trkpt>
      <trkpt lat="45.50763" lon="3.05792">
        <ele>940.6</ele>
        <time>2011-05-15T10:38:48Z</time>
      </trkpt>
      <trkpt lat="45.50754" lon="3.05803">
        <ele>942.2</ele>
        <time>2011-05-15T10:38:55Z</time>
      </trkpt>
      <trkpt lat="45.50743" lon="3.05817">
        <ele>944</ele>
        <time>2011-05-15T10:39:05Z</time>
      </trkpt>
      <trkpt lat="45.50737" lon="3.05829">
        <ele>944.8</ele>
        <time>2011-05-15T10:39:13Z</time>
      </trkpt>
      <trkpt lat="45.50733" lon="3.05835">
        <ele>946.6</ele>
        <time>2011-05-15T10:39:17Z</time>
      </trkpt>
      <trkpt lat="45.50723" lon="3.05849">
        <ele>947.8</ele>
        <time>2011-05-15T10:39:28Z</time>
      </trkpt>
      <trkpt lat="45.50719" lon="3.05855">
        <ele>949</ele>
        <time>2011-05-15T10:39:33Z</time>
      </trkpt>
      <trkpt lat="45.50711" lon="3.05863">
        <ele>950.8</ele>
        <time>2011-05-15T10:39:40Z</time>
      </trkpt>
      <trkpt lat="45.507" lon="3.0587">
        <ele>952</ele>
        <time>2011-05-15T10:39:50Z</time>
      </trkpt>
      <trkpt lat="45.50692" lon="3.05872">
        <ele>953.4</ele>
        <time>2011-05-15T10:39:57Z</time>
      </trkpt>
      <trkpt lat="45.50686" lon="3.05874">
        <ele>955.4</ele>
        <time>2011-05-15T10:40:02Z</time>
      </trkpt>
      <trkpt lat="45.50674" lon="3.05879">
        <ele>956.8</ele>
        <time>2011-05-15T10:40:12Z</time>
      </trkpt>
      <trkpt lat="45.50661" lon="3.05888">
        <ele>958.4</ele>
        <time>2011-05-15T10:40:24Z</time>
      </trkpt>
      <trkpt lat="45.50651" lon="3.05896">
        <ele>959.6</ele>
        <time>2011-05-15T10:40:33Z</time>
      </trkpt>
      <trkpt lat="45.50646" lon="3.059">
        <ele>961.4</ele>
        <time>2011-05-15T10:40:38Z</time>
      </trkpt>
      <trkpt lat="45.50638" lon="3.05907">
        <ele>962.8</ele>
        <time>2011-05-15T10:40:47Z</time>
      </trkpt>
      <trkpt lat="45.50627" lon="3.0592">
        <ele>964.4</ele>
        <time>2011-05-15T10:40:58Z</time>
      </trkpt>
      <trkpt lat="45.50623" lon="3.05925">
        <ele>966.2</ele>
        <time>2011-05-15T10:41:02Z</time>
      </trkpt>
      <trkpt lat="45.50609" lon="3.05939">
        <ele>967.8</ele>
        <time>2011-05-15T10:41:13Z</time>
      </trkpt>
      <trkpt lat="45.50593" lon="3.05958">
        <ele>969</ele>
        <time>2011-05-15T10:41:26Z</time>
      </trkpt>
      <trkpt lat="45.50587" lon="3.05965">
        <ele>970.4</ele>
        <time>2011-05-15T10:41:31Z</time>
      </trkpt>
      <trkpt lat="45.50578" lon="3.05981">
        <ele>971.6</ele>
        <time>2011-05-15T10:41:42Z</time>
      </trkpt>
      <trkpt lat="45.50571" lon="3.05994">
        <ele>972.8</ele>
        <time>2011-05-15T10:41:50Z</time>
      </trkpt>
      <trkpt lat="45.50568" lon="3.05999">
        <ele>974.6</ele>
        <time>2011-05-15T10:41:54Z</time>
      </trkpt>
      <trkpt lat="45.50558" lon="3.06022">
        <ele>975.8</ele>
        <time>2011-05-15T10:42:08Z</time>
      </trkpt>
      <trkpt lat="45.50553" lon="3.06035">
        <ele>977.4</ele>
        <time>2011-05-15T10:42:16Z</time>
      </trkpt>
      <trkpt lat="45.50547" lon="3.06047">
        <ele>979.2</ele>
        <time>2011-05-15T10:42:24Z</time>
      </trkpt>
      <trkpt lat="45.50541" lon="3.06056">
        <ele>980.8</ele>
        <time>2011-05-15T10:42:32Z</time>
      </trkpt>
      <trkpt lat="45.50537" lon="3.06062">
        <ele>982.4</ele>
        <time>2011-05-15T10:42:36Z</time>
      </trkpt>
      <trkpt lat="45.50529" lon="3.06073">
        <ele>983.8</ele>
        <time>2011-05-15T10:42:45Z</time>
      </trkpt>
      <trkpt lat="45.50519" lon="3.06087">
        <ele>985</ele>
        <time>2011-05-15T10:42:56Z</time>
      </trkpt>
      <trkpt lat="45.50515" lon="3.06091">
        <ele>986.8</ele>
        <time>2011-05-15T10:43:00Z</time>
      </trkpt>
      <trkpt lat="45.50505" lon="3.06101">
        <ele>988.2</ele>
        <time>2011-05-15T10:43:09Z</time>
      </trkpt>
      <trkpt lat="45.505" lon="3.06105">
        <ele>989.4</ele>
        <time>2011-05-15T10:43:14Z</time>
      </trkpt>
      <trkpt lat="45.5049" lon="3.06116">
        <ele>991.2</ele>
        <time>2011-05-15T10:43:24Z</time>
      </trkpt>
      <trkpt lat="45.50468" lon="3.06134">
        <ele>992</ele>
        <time>2011-05-15T10:43:41Z</time>
      </trkpt>
      <trkpt lat="45.50458" lon="3.06141">
        <ele>993.8</ele>
        <time>2011-05-15T10:43:48Z</time>
      </trkpt>
      <trkpt lat="45.5044" lon="3.06155">
        <ele>995</ele>
        <time>2011-05-15T10:44:01Z</time>
      </trkpt>
      <trkpt lat="45.50423" lon="3.06183">
        <ele>995.8</ele>
        <time>2011-05-15T10:44:18Z</time>
      </trkpt>
      <trkpt lat="45.50419" lon="3.06195">
        <ele>997.4</ele>
        <time>2011-05-15T10:44:24Z</time>
      </trkpt>
      <trkpt lat="45.50413" lon="3.06234">
        <ele>998.2</ele>
        <time>2011-05-15T10:44:39Z</time>
      </trkpt>
      <trkpt lat="45.50411" lon="3.06247">
        <ele>1000</ele>
        <time>2011-05-15T10:44:43Z</time>
      </trkpt>
      <trkpt lat="45.50406" lon="3.06304">
        <ele>1000.8</ele>
        <time>2011-05-15T10:45:00Z</time>
      </trkpt>
      <trkpt lat="45.50401" lon="3.06359">
        <ele>1002.2</ele>
        <time>2011-05-15T10:45:12Z</time>
      </trkpt>
      <trkpt lat="45.50383" lon="3.06519">
        <ele>1002.2</ele>
        <time>2011-05-15T10:45:39Z</time>
      </trkpt>
      <trkpt lat="45.50332" lon="3.06519">
        <ele>1002.2</ele>
        <time>2011-05-15T10:45:54Z</time>
      </trkpt>
      <trkpt lat="45.50289" lon="3.06529">
        <ele>1003.4</ele>
        <time>2011-05-15T10:46:08Z</time>
      </trkpt>
      <trkpt lat="45.50251" lon="3.06555">
        <ele>1004.6</ele>
        <time>2011-05-15T10:46:22Z</time>
      </trkpt>
      <trkpt lat="45.50241" lon="3.06563">
        <ele>1006.4</ele>
        <time>2011-05-15T10:46:26Z</time>
      </trkpt>
      <trkpt lat="45.50194" lon="3.06595">
        <ele>1006.4</ele>
        <time>2011-05-15T10:46:45Z</time>
      </trkpt>
      <trkpt lat="45.5017" lon="3.06599">
        <ele>1008</ele>
        <time>2011-05-15T10:46:53Z</time>
      </trkpt>
      <trkpt lat="45.50112" lon="3.06569">
        <ele>1008.4</ele>
        <time>2011-05-15T10:47:11Z</time>
      </trkpt>
      <trkpt lat="45.50065" lon="3.06563">
        <ele>1008.4</ele>
        <time>2011-05-15T10:47:29Z</time>
      </trkpt>
      <trkpt lat="45.50089" lon="3.06598">
        <ele>1008.4</ele>
        <time>2011-05-15T10:47:35Z</time>
      </trkpt>
      <trkpt lat="45.50148" lon="3.06687">
        <ele>1007</ele>
        <time>2011-05-15T10:47:46Z</time>
      </trkpt>
      <trkpt lat="45.5017" lon="3.06718">
        <ele>1004.8</ele>
        <time>2011-05-15T10:47:50Z</time>
      </trkpt>
      <trkpt lat="45.5019" lon="3.0675">
        <ele>1004</ele>
        <time>2011-05-15T10:47:54Z</time>
      </trkpt>
      <trkpt lat="45.50199" lon="3.06799">
        <ele>1002.2</ele>
        <time>2011-05-15T10:47:59Z</time>
      </trkpt>
      <trkpt lat="45.50215" lon="3.06831">
        <ele>1001.2</ele>
        <time>2011-05-15T10:48:04Z</time>
      </trkpt>
      <trkpt lat="45.5023" lon="3.06842">
        <ele>999.6</ele>
        <time>2011-05-15T10:48:08Z</time>
      </trkpt>
      <trkpt lat="45.50261" lon="3.06872">
        <ele>1000.4</ele>
        <time>2011-05-15T10:48:21Z</time>
      </trkpt>
      <trkpt lat="45.50271" lon="3.06882">
        <ele>1001.6</ele>
        <time>2011-05-15T10:48:28Z</time>
      </trkpt>
      <trkpt lat="45.50281" lon="3.06893">
        <ele>1003.4</ele>
        <time>2011-05-15T10:48:36Z</time>
      </trkpt>
      <trkpt lat="45.50287" lon="3.06916">
        <ele>1004.8</ele>
        <time>2011-05-15T10:48:48Z</time>
      </trkpt>
      <trkpt lat="45.50286" lon="3.06923">
        <ele>1006</ele>
        <time>2011-05-15T10:48:52Z</time>
      </trkpt>
      <trkpt lat="45.50285" lon="3.06947">
        <ele>1007.6</ele>
        <time>2011-05-15T10:49:05Z</time>
      </trkpt>
      <trkpt lat="45.50285" lon="3.06969">
        <ele>1008.8</ele>
        <time>2011-05-15T10:49:16Z</time>
      </trkpt>
      <trkpt lat="45.50286" lon="3.0698">
        <ele>1010.2</ele>
        <time>2011-05-15T10:49:21Z</time>
      </trkpt>
      <trkpt lat="45.50285" lon="3.06999">
        <ele>1012.2</ele>
        <time>2011-05-15T10:49:29Z</time>
      </trkpt>
      <trkpt lat="45.50286" lon="3.07025">
        <ele>1013.4</ele>
        <time>2011-05-15T10:49:40Z</time>
      </trkpt>
      <trkpt lat="45.50285" lon="3.07053">
        <ele>1014.2</ele>
        <time>2011-05-15T10:49:51Z</time>
      </trkpt>
      <trkpt lat="45.50282" lon="3.0708">
        <ele>1015.8</ele>
        <time>2011-05-15T10:49:59Z</time>
      </trkpt>
      <trkpt lat="45.50271" lon="3.07176">
        <ele>1016.4</ele>
        <time>2011-05-15T10:50:22Z</time>
      </trkpt>
      <trkpt lat="45.5027" lon="3.07214">
        <ele>1018.2</ele>
        <time>2011-05-15T10:50:31Z</time>
      </trkpt>
      <trkpt lat="45.5027" lon="3.0725">
        <ele>1019</ele>
        <time>2011-05-15T10:50:44Z</time>
      </trkpt>
      <trkpt lat="45.50271" lon="3.07259">
        <ele>1020.6</ele>
        <time>2011-05-15T10:50:48Z</time>
      </trkpt>
      <trkpt lat="45.50256" lon="3.07292">
        <ele>1020.6</ele>
        <time>2011-05-15T10:51:00Z</time>
      </trkpt>
      <trkpt lat="45.50232" lon="3.07344">
        <ele>1019.6</ele>
        <time>2011-05-15T10:51:07Z</time>
      </trkpt>
      <trkpt lat="45.50211" lon="3.07428">
        <ele>1017.6</ele>
        <time>2011-05-15T10:51:17Z</time>
      </trkpt>
      <trkpt lat="45.50199" lon="3.0746">
        <ele>1015.8</ele>
        <time>2011-05-15T10:51:21Z</time>
      </trkpt>
      <trkpt lat="45.50177" lon="3.07498">
        <ele>1014.8</ele>
        <time>2011-05-15T10:51:26Z</time>
      </trkpt>
      <trkpt lat="45.50169" lon="3.07543">
        <ele>1011.8</ele>
        <time>2011-05-15T10:51:30Z</time>
      </trkpt>
      <trkpt lat="45.50164" lon="3.0759">
        <ele>1009.8</ele>
        <time>2011-05-15T10:51:34Z</time>
      </trkpt>
      <trkpt lat="45.50162" lon="3.07637">
        <ele>1007.8</ele>
        <time>2011-05-15T10:51:38Z</time>
      </trkpt>
      <trkpt lat="45.50167" lon="3.07685">
        <ele>1005.2</ele>
        <time>2011-05-15T10:51:42Z</time>
      </trkpt>
      <trkpt lat="45.50182" lon="3.07729">
        <ele>1001.8</ele>
        <time>2011-05-15T10:51:46Z</time>
      </trkpt>
      <trkpt lat="45.50194" lon="3.07769">
        <ele>999</ele>
        <time>2011-05-15T10:51:50Z</time>
      </trkpt>
      <trkpt lat="45.50197" lon="3.07803">
        <ele>996.8</ele>
        <time>2011-05-15T10:51:54Z</time>
      </trkpt>
      <trkpt lat="45.50196" lon="3.07835">
        <ele>992.4</ele>
        <time>2011-05-15T10:51:58Z</time>
      </trkpt>
      <trkpt lat="45.50193" lon="3.07877">
        <ele>989.8</ele>
        <time>2011-05-15T10:52:03Z</time>
      </trkpt>
      <trkpt lat="45.502" lon="3.07896">
        <ele>986</ele>
        <time>2011-05-15T10:52:07Z</time>
      </trkpt>
      <trkpt lat="45.50216" lon="3.07891">
        <ele>982.4</ele>
        <time>2011-05-15T10:52:11Z</time>
      </trkpt>
      <trkpt lat="45.50241" lon="3.07887">
        <ele>979</ele>
        <time>2011-05-15T10:52:15Z</time>
      </trkpt>
      <trkpt lat="45.5027" lon="3.07891">
        <ele>975.8</ele>
        <time>2011-05-15T10:52:19Z</time>
      </trkpt>
      <trkpt lat="45.50296" lon="3.07901">
        <ele>970.4</ele>
        <time>2011-05-15T10:52:23Z</time>
      </trkpt>
      <trkpt lat="45.50315" lon="3.07924">
        <ele>965.8</ele>
        <time>2011-05-15T10:52:27Z</time>
      </trkpt>
      <trkpt lat="45.50343" lon="3.07955">
        <ele>962.4</ele>
        <time>2011-05-15T10:52:31Z</time>
      </trkpt>
      <trkpt lat="45.50368" lon="3.07993">
        <ele>959.4</ele>
        <time>2011-05-15T10:52:35Z</time>
      </trkpt>
      <trkpt lat="45.50384" lon="3.08038">
        <ele>957.6</ele>
        <time>2011-05-15T10:52:39Z</time>
      </trkpt>
      <trkpt lat="45.50387" lon="3.08089">
        <ele>955.6</ele>
        <time>2011-05-15T10:52:43Z</time>
      </trkpt>
      <trkpt lat="45.50389" lon="3.0812">
        <ele>950.4</ele>
        <time>2011-05-15T10:52:47Z</time>
      </trkpt>
      <trkpt lat="45.50397" lon="3.08135">
        <ele>946.4</ele>
        <time>2011-05-15T10:52:51Z</time>
      </trkpt>
      <trkpt lat="45.50415" lon="3.08162">
        <ele>944</ele>
        <time>2011-05-15T10:52:55Z</time>
      </trkpt>
      <trkpt lat="45.50398" lon="3.08202">
        <ele>940.8</ele>
        <time>2011-05-15T10:52:59Z</time>
      </trkpt>
      <trkpt lat="45.50365" lon="3.08241">
        <ele>938.4</ele>
        <time>2011-05-15T10:53:03Z</time>
      </trkpt>
      <trkpt lat="45.50321" lon="3.08271">
        <ele>934.4</ele>
        <time>2011-05-15T10:53:07Z</time>
      </trkpt>
      <trkpt lat="45.50269" lon="3.08274">
        <ele>926.8</ele>
        <time>2011-05-15T10:53:11Z</time>
      </trkpt>
      <trkpt lat="45.50217" lon="3.08247">
        <ele>922.6</ele>
        <time>2011-05-15T10:53:16Z</time>
      </trkpt>
      <trkpt lat="45.50174" lon="3.08231">
        <ele>921.2</ele>
        <time>2011-05-15T10:53:21Z</time>
      </trkpt>
      <trkpt lat="45.50129" lon="3.08247">
        <ele>919.8</ele>
        <time>2011-05-15T10:53:26Z</time>
      </trkpt>
      <trkpt lat="45.50092" lon="3.08281">
        <ele>916.6</ele>
        <time>2011-05-15T10:53:30Z</time>
      </trkpt>
      <trkpt lat="45.50053" lon="3.08318">
        <ele>913.4</ele>
        <time>2011-05-15T10:53:34Z</time>
      </trkpt>
      <trkpt lat="45.49999" lon="3.08321">
        <ele>907.4</ele>
        <time>2011-05-15T10:53:38Z</time>
      </trkpt>
      <trkpt lat="45.49938" lon="3.08307">
        <ele>902.4</ele>
        <time>2011-05-15T10:53:42Z</time>
      </trkpt>
      <trkpt lat="45.49881" lon="3.08273">
        <ele>895.8</ele>
        <time>2011-05-15T10:53:46Z</time>
      </trkpt>
      <trkpt lat="45.49825" lon="3.08238">
        <ele>887.6</ele>
        <time>2011-05-15T10:53:50Z</time>
      </trkpt>
      <trkpt lat="45.49799" lon="3.08197">
        <ele>879</ele>
        <time>2011-05-15T10:53:54Z</time>
      </trkpt>
      <trkpt lat="45.49772" lon="3.08209">
        <ele>871.6</ele>
        <time>2011-05-15T10:53:58Z</time>
      </trkpt>
      <trkpt lat="45.49734" lon="3.08205">
        <ele>869.8</ele>
        <time>2011-05-15T10:54:04Z</time>
      </trkpt>
      <trkpt lat="45.49682" lon="3.08189">
        <ele>869.8</ele>
        <time>2011-05-15T10:54:13Z</time>
      </trkpt>
      <trkpt lat="45.49664" lon="3.08228">
        <ele>869.8</ele>
        <time>2011-05-15T10:54:21Z</time>
      </trkpt>
      <trkpt lat="45.49683" lon="3.08294">
        <ele>869.8</ele>
        <time>2011-05-15T10:54:30Z</time>
      </trkpt>
      <trkpt lat="45.49683" lon="3.08318">
        <ele>871</ele>
        <time>2011-05-15T10:54:34Z</time>
      </trkpt>
      <trkpt lat="45.49691" lon="3.0838">
        <ele>872</ele>
        <time>2011-05-15T10:54:44Z</time>
      </trkpt>
      <trkpt lat="45.49711" lon="3.08483">
        <ele>870.6</ele>
        <time>2011-05-15T10:54:54Z</time>
      </trkpt>
      <trkpt lat="45.49716" lon="3.08539">
        <ele>868.2</ele>
        <time>2011-05-15T10:54:58Z</time>
      </trkpt>
      <trkpt lat="45.49711" lon="3.0859">
        <ele>866.2</ele>
        <time>2011-05-15T10:55:02Z</time>
      </trkpt>
      <trkpt lat="45.49714" lon="3.08648">
        <ele>865</ele>
        <time>2011-05-15T10:55:07Z</time>
      </trkpt>
      <trkpt lat="45.49721" lon="3.08693">
        <ele>863.4</ele>
        <time>2011-05-15T10:55:11Z</time>
      </trkpt>
      <trkpt lat="45.49734" lon="3.08754">
        <ele>862</ele>
        <time>2011-05-15T10:55:16Z</time>
      </trkpt>
      <trkpt lat="45.49744" lon="3.088">
        <ele>860.4</ele>
        <time>2011-05-15T10:55:20Z</time>
      </trkpt>
      <trkpt lat="45.49753" lon="3.08838">
        <ele>859.2</ele>
        <time>2011-05-15T10:55:24Z</time>
      </trkpt>
      <trkpt lat="45.49761" lon="3.08873">
        <ele>857.6</ele>
        <time>2011-05-15T10:55:28Z</time>
      </trkpt>
      <trkpt lat="45.49771" lon="3.08922">
        <ele>857.2</ele>
        <time>2011-05-15T10:55:34Z</time>
      </trkpt>
      <trkpt lat="45.49789" lon="3.09013">
        <ele>857.2</ele>
        <time>2011-05-15T10:55:53Z</time>
      </trkpt>
      <trkpt lat="45.49802" lon="3.09087">
        <ele>858</ele>
        <time>2011-05-15T10:56:12Z</time>
      </trkpt>
      <trkpt lat="45.49807" lon="3.09117">
        <ele>859.2</ele>
        <time>2011-05-15T10:56:20Z</time>
      </trkpt>
      <trkpt lat="45.49816" lon="3.09164">
        <ele>860.4</ele>
        <time>2011-05-15T10:56:32Z</time>
      </trkpt>
      <trkpt lat="45.49828" lon="3.09218">
        <ele>861.6</ele>
        <time>2011-05-15T10:56:47Z</time>
      </trkpt>
      <trkpt lat="45.49831" lon="3.09232">
        <ele>863.4</ele>
        <time>2011-05-15T10:56:51Z</time>
      </trkpt>
      <trkpt lat="45.49846" lon="3.09292">
        <ele>863.8</ele>
        <time>2011-05-15T10:57:10Z</time>
      </trkpt>
      <trkpt lat="45.4985" lon="3.09314">
        <ele>865.4</ele>
        <time>2011-05-15T10:57:17Z</time>
      </trkpt>
      <trkpt lat="45.49857" lon="3.09393">
        <ele>866.2</ele>
        <time>2011-05-15T10:57:39Z</time>
      </trkpt>
      <trkpt lat="45.49859" lon="3.09416">
        <ele>867.6</ele>
        <time>2011-05-15T10:57:49Z</time>
      </trkpt>
      <trkpt lat="45.49861" lon="3.09438">
        <ele>869.2</ele>
        <time>2011-05-15T10:57:59Z</time>
      </trkpt>
      <trkpt lat="45.49863" lon="3.09456">
        <ele>870</ele>
        <time>2011-05-15T10:58:08Z</time>
      </trkpt>
      <trkpt lat="45.49864" lon="3.09464">
        <ele>871.6</ele>
        <time>2011-05-15T10:58:12Z</time>
      </trkpt>
      <trkpt lat="45.49866" lon="3.09484">
        <ele>872.8</ele>
        <time>2011-05-15T10:58:23Z</time>
      </trkpt>
      <trkpt lat="45.49871" lon="3.09508">
        <ele>874</ele>
        <time>2011-05-15T10:58:37Z</time>
      </trkpt>
      <trkpt lat="45.49874" lon="3.09514">
        <ele>875.8</ele>
        <time>2011-05-15T10:58:41Z</time>
      </trkpt>
      <trkpt lat="45.49879" lon="3.09531">
        <ele>877.2</ele>
        <time>2011-05-15T10:58:51Z</time>
      </trkpt>
      <trkpt lat="45.49883" lon="3.09547">
        <ele>878</ele>
        <time>2011-05-15T10:59:01Z</time>
      </trkpt>
      <trkpt lat="45.49886" lon="3.09561">
        <ele>879.4</ele>
        <time>2011-05-15T10:59:09Z</time>
      </trkpt>
      <trkpt lat="45.49893" lon="3.09584">
        <ele>880.2</ele>
        <time>2011-05-15T10:59:23Z</time>
      </trkpt>
      <trkpt lat="45.49895" lon="3.09595">
        <ele>881.8</ele>
        <time>2011-05-15T10:59:29Z</time>
      </trkpt>
      <trkpt lat="45.49901" lon="3.09619">
        <ele>882.2</ele>
        <time>2011-05-15T10:59:43Z</time>
      </trkpt>
      <trkpt lat="45.49908" lon="3.09637">
        <ele>883.8</ele>
        <time>2011-05-15T10:59:53Z</time>
      </trkpt>
      <trkpt lat="45.49911" lon="3.09651">
        <ele>884.2</ele>
        <time>2011-05-15T11:00:01Z</time>
      </trkpt>
      <trkpt lat="45.49916" lon="3.09662">
        <ele>885.4</ele>
        <time>2011-05-15T11:00:08Z</time>
      </trkpt>
      <trkpt lat="45.49922" lon="3.0968">
        <ele>886.2</ele>
        <time>2011-05-15T11:00:18Z</time>
      </trkpt>
      <trkpt lat="45.49924" lon="3.09689">
        <ele>888</ele>
        <time>2011-05-15T11:00:23Z</time>
      </trkpt>
      <trkpt lat="45.49932" lon="3.09708">
        <ele>889.2</ele>
        <time>2011-05-15T11:00:35Z</time>
      </trkpt>
      <trkpt lat="45.49938" lon="3.09721">
        <ele>890.4</ele>
        <time>2011-05-15T11:00:43Z</time>
      </trkpt>
      <trkpt lat="45.49943" lon="3.09739">
        <ele>892.4</ele>
        <time>2011-05-15T11:00:54Z</time>
      </trkpt>
      <trkpt lat="45.4995" lon="3.09754">
        <ele>893.4</ele>
        <time>2011-05-15T11:01:04Z</time>
      </trkpt>
      <trkpt lat="45.49954" lon="3.09769">
        <ele>894.6</ele>
        <time>2011-05-15T11:01:13Z</time>
      </trkpt>
      <trkpt lat="45.49957" lon="3.09784">
        <ele>896.4</ele>
        <time>2011-05-15T11:01:22Z</time>
      </trkpt>
      <trkpt lat="45.49953" lon="3.09812">
        <ele>896.8</ele>
        <time>2011-05-15T11:01:36Z</time>
      </trkpt>
      <trkpt lat="45.49955" lon="3.09861">
        <ele>898.2</ele>
        <time>2011-05-15T11:01:49Z</time>
      </trkpt>
      <trkpt lat="45.49956" lon="3.099">
        <ele>899</ele>
        <time>2011-05-15T11:01:58Z</time>
      </trkpt>
      <trkpt lat="45.49983" lon="3.09946">
        <ele>897.6</ele>
        <time>2011-05-15T11:02:08Z</time>
      </trkpt>
      <trkpt lat="45.49998" lon="3.10002">
        <ele>896.4</ele>
        <time>2011-05-15T11:02:17Z</time>
      </trkpt>
      <trkpt lat="45.5001" lon="3.10024">
        <ele>894.8</ele>
        <time>2011-05-15T11:02:21Z</time>
      </trkpt>
      <trkpt lat="45.50038" lon="3.10097">
        <ele>893.4</ele>
        <time>2011-05-15T11:02:32Z</time>
      </trkpt>
      <trkpt lat="45.50057" lon="3.10138">
        <ele>892.2</ele>
        <time>2011-05-15T11:02:38Z</time>
      </trkpt>
      <trkpt lat="45.50074" lon="3.10162">
        <ele>890.4</ele>
        <time>2011-05-15T11:02:42Z</time>
      </trkpt>
      <trkpt lat="45.50128" lon="3.10228">
        <ele>889.6</ele>
        <time>2011-05-15T11:02:53Z</time>
      </trkpt>
      <trkpt lat="45.50151" lon="3.1025">
        <ele>887.6</ele>
        <time>2011-05-15T11:02:57Z</time>
      </trkpt>
      <trkpt lat="45.50173" lon="3.1027">
        <ele>886.2</ele>
        <time>2011-05-15T11:03:01Z</time>
      </trkpt>
      <trkpt lat="45.50207" lon="3.10316">
        <ele>884.2</ele>
        <time>2011-05-15T11:03:08Z</time>
      </trkpt>
      <trkpt lat="45.50236" lon="3.10381">
        <ele>882.6</ele>
        <time>2011-05-15T11:03:16Z</time>
      </trkpt>
      <trkpt lat="45.50255" lon="3.10431">
        <ele>881.2</ele>
        <time>2011-05-15T11:03:22Z</time>
      </trkpt>
      <trkpt lat="45.50266" lon="3.10461">
        <ele>879.4</ele>
        <time>2011-05-15T11:03:26Z</time>
      </trkpt>
      <trkpt lat="45.50276" lon="3.10494">
        <ele>877.6</ele>
        <time>2011-05-15T11:03:30Z</time>
      </trkpt>
      <trkpt lat="45.503" lon="3.10546">
        <ele>876.6</ele>
        <time>2011-05-15T11:03:37Z</time>
      </trkpt>
      <trkpt lat="45.5031" lon="3.10582">
        <ele>874.6</ele>
        <time>2011-05-15T11:03:41Z</time>
      </trkpt>
      <trkpt lat="45.50319" lon="3.10623">
        <ele>872.8</ele>
        <time>2011-05-15T11:03:46Z</time>
      </trkpt>
      <trkpt lat="45.50337" lon="3.10659">
        <ele>872</ele>
        <time>2011-05-15T11:03:53Z</time>
      </trkpt>
      <trkpt lat="45.504" lon="3.10771">
        <ele>872</ele>
        <time>2011-05-15T11:04:11Z</time>
      </trkpt>
      <trkpt lat="45.50424" lon="3.10814">
        <ele>870.4</ele>
        <time>2011-05-15T11:04:17Z</time>
      </trkpt>
      <trkpt lat="45.50481" lon="3.10927">
        <ele>870</ele>
        <time>2011-05-15T11:04:33Z</time>
      </trkpt>
      <trkpt lat="45.50496" lon="3.10953">
        <ele>867.6</ele>
        <time>2011-05-15T11:04:37Z</time>
      </trkpt>
      <trkpt lat="45.50563" lon="3.11072">
        <ele>866.4</ele>
        <time>2011-05-15T11:04:54Z</time>
      </trkpt>
      <trkpt lat="45.50603" lon="3.11139">
        <ele>865</ele>
        <time>2011-05-15T11:05:03Z</time>
      </trkpt>
      <trkpt lat="45.50623" lon="3.11161">
        <ele>863</ele>
        <time>2011-05-15T11:05:07Z</time>
      </trkpt>
      <trkpt lat="45.50644" lon="3.11187">
        <ele>860.8</ele>
        <time>2011-05-15T11:05:11Z</time>
      </trkpt>
      <trkpt lat="45.50669" lon="3.11207">
        <ele>859</ele>
        <time>2011-05-15T11:05:15Z</time>
      </trkpt>
      <trkpt lat="45.50693" lon="3.11225">
        <ele>857.4</ele>
        <time>2011-05-15T11:05:19Z</time>
      </trkpt>
      <trkpt lat="45.50717" lon="3.11243">
        <ele>855.2</ele>
        <time>2011-05-15T11:05:23Z</time>
      </trkpt>
      <trkpt lat="45.50741" lon="3.11264">
        <ele>852.6</ele>
        <time>2011-05-15T11:05:27Z</time>
      </trkpt>
      <trkpt lat="45.50771" lon="3.11291">
        <ele>851</ele>
        <time>2011-05-15T11:05:32Z</time>
      </trkpt>
      <trkpt lat="45.50795" lon="3.11311">
        <ele>849.6</ele>
        <time>2011-05-15T11:05:36Z</time>
      </trkpt>
      <trkpt lat="45.50815" lon="3.11339">
        <ele>847.6</ele>
        <time>2011-05-15T11:05:40Z</time>
      </trkpt>
      <trkpt lat="45.50837" lon="3.11373">
        <ele>846</ele>
        <time>2011-05-15T11:05:45Z</time>
      </trkpt>
      <trkpt lat="45.50854" lon="3.11395">
        <ele>844.6</ele>
        <time>2011-05-15T11:05:49Z</time>
      </trkpt>
      <trkpt lat="45.50868" lon="3.11425">
        <ele>843</ele>
        <time>2011-05-15T11:05:53Z</time>
      </trkpt>
      <trkpt lat="45.50901" lon="3.11474">
        <ele>842.2</ele>
        <time>2011-05-15T11:06:00Z</time>
      </trkpt>
      <trkpt lat="45.50931" lon="3.11513">
        <ele>840.2</ele>
        <time>2011-05-15T11:06:06Z</time>
      </trkpt>
      <trkpt lat="45.50953" lon="3.11537">
        <ele>838</ele>
        <time>2011-05-15T11:06:10Z</time>
      </trkpt>
      <trkpt lat="45.50972" lon="3.11565">
        <ele>835.6</ele>
        <time>2011-05-15T11:06:14Z</time>
      </trkpt>
      <trkpt lat="45.50989" lon="3.11584">
        <ele>833.4</ele>
        <time>2011-05-15T11:06:18Z</time>
      </trkpt>
      <trkpt lat="45.50998" lon="3.1161">
        <ele>830.8</ele>
        <time>2011-05-15T11:06:22Z</time>
      </trkpt>
      <trkpt lat="45.50991" lon="3.11644">
        <ele>828</ele>
        <time>2011-05-15T11:06:26Z</time>
      </trkpt>
      <trkpt lat="45.5098" lon="3.11657">
        <ele>826</ele>
        <time>2011-05-15T11:06:30Z</time>
      </trkpt>
      <trkpt lat="45.50956" lon="3.11637">
        <ele>825.4</ele>
        <time>2011-05-15T11:06:40Z</time>
      </trkpt>
      <trkpt lat="45.5092" lon="3.11663">
        <ele>825.8</ele>
        <time>2011-05-15T11:07:03Z</time>
      </trkpt>
      <trkpt lat="45.50915" lon="3.11668">
        <ele>827.4</ele>
        <time>2011-05-15T11:07:07Z</time>
      </trkpt>
      <trkpt lat="45.50904" lon="3.11678">
        <ele>828.8</ele>
        <time>2011-05-15T11:07:16Z</time>
      </trkpt>
      <trkpt lat="45.50891" lon="3.11694">
        <ele>830.4</ele>
        <time>2011-05-15T11:07:28Z</time>
      </trkpt>
      <trkpt lat="45.50886" lon="3.11701">
        <ele>831.6</ele>
        <time>2011-05-15T11:07:33Z</time>
      </trkpt>
      <trkpt lat="45.50869" lon="3.11721">
        <ele>832.8</ele>
        <time>2011-05-15T11:07:45Z</time>
      </trkpt>
      <trkpt lat="45.50851" lon="3.1174">
        <ele>834</ele>
        <time>2011-05-15T11:07:57Z</time>
      </trkpt>
      <trkpt lat="45.50845" lon="3.11748">
        <ele>835.6</ele>
        <time>2011-05-15T11:08:01Z</time>
      </trkpt>
      <trkpt lat="45.50838" lon="3.11755">
        <ele>835.6</ele>
        <time>2011-05-15T11:08:20Z</time>
      </trkpt>
      <trkpt lat="45.50796" lon="3.11788">
        <ele>835.6</ele>
        <time>2011-05-15T11:08:38Z</time>
      </trkpt>
      <trkpt lat="45.5079" lon="3.1178">
        <ele>837.8</ele>
        <time>2011-05-15T11:08:43Z</time>
      </trkpt>
      <trkpt lat="45.50769" lon="3.11754">
        <ele>838.6</ele>
        <time>2011-05-15T11:08:57Z</time>
      </trkpt>
      <trkpt lat="45.50759" lon="3.11744">
        <ele>839.8</ele>
        <time>2011-05-15T11:09:03Z</time>
      </trkpt>
      <trkpt lat="45.5074" lon="3.11715">
        <ele>840.6</ele>
        <time>2011-05-15T11:09:16Z</time>
      </trkpt>
      <trkpt lat="45.50729" lon="3.11701">
        <ele>841.8</ele>
        <time>2011-05-15T11:09:22Z</time>
      </trkpt>
      <trkpt lat="45.5068" lon="3.11665">
        <ele>842.6</ele>
        <time>2011-05-15T11:09:42Z</time>
      </trkpt>
      <trkpt lat="45.50646" lon="3.11643">
        <ele>843.8</ele>
        <time>2011-05-15T11:09:53Z</time>
      </trkpt>
      <trkpt lat="45.5057" lon="3.11619">
        <ele>844.6</ele>
        <time>2011-05-15T11:10:16Z</time>
      </trkpt>
      <trkpt lat="45.5055" lon="3.11614">
        <ele>846</ele>
        <time>2011-05-15T11:10:22Z</time>
      </trkpt>
      <trkpt lat="45.50487" lon="3.11596">
        <ele>846.8</ele>
        <time>2011-05-15T11:10:43Z</time>
      </trkpt>
      <trkpt lat="45.50468" lon="3.1159">
        <ele>848</ele>
        <time>2011-05-15T11:10:50Z</time>
      </trkpt>
      <trkpt lat="45.50441" lon="3.11581">
        <ele>849.8</ele>
        <time>2011-05-15T11:11:02Z</time>
      </trkpt>
      <trkpt lat="45.50392" lon="3.11569">
        <ele>850.2</ele>
        <time>2011-05-15T11:11:25Z</time>
      </trkpt>
      <trkpt lat="45.50381" lon="3.11567">
        <ele>851.8</ele>
        <time>2011-05-15T11:11:30Z</time>
      </trkpt>
      <trkpt lat="45.50342" lon="3.11564">
        <ele>852.2</ele>
        <time>2011-05-15T11:11:47Z</time>
      </trkpt>
      <trkpt lat="45.50298" lon="3.1156">
        <ele>853.4</ele>
        <time>2011-05-15T11:12:02Z</time>
      </trkpt>
      <trkpt lat="45.50254" lon="3.11558">
        <ele>854.2</ele>
        <time>2011-05-15T11:12:16Z</time>
      </trkpt>
      <trkpt lat="45.50202" lon="3.11531">
        <ele>855</ele>
        <time>2011-05-15T11:12:36Z</time>
      </trkpt>
      <trkpt lat="45.50183" lon="3.11517">
        <ele>856.2</ele>
        <time>2011-05-15T11:12:44Z</time>
      </trkpt>
      <trkpt lat="45.50132" lon="3.11517">
        <ele>857</ele>
        <time>2011-05-15T11:13:03Z</time>
      </trkpt>
      <trkpt lat="45.50115" lon="3.11525">
        <ele>858.4</ele>
        <time>2011-05-15T11:13:09Z</time>
      </trkpt>
      <trkpt lat="45.5004" lon="3.11545">
        <ele>858.4</ele>
        <time>2011-05-15T11:13:31Z</time>
      </trkpt>
      <trkpt lat="45.49964" lon="3.11554">
        <ele>857.4</ele>
        <time>2011-05-15T11:13:50Z</time>
      </trkpt>
      <trkpt lat="45.49928" lon="3.11556">
        <ele>856.2</ele>
        <time>2011-05-15T11:13:59Z</time>
      </trkpt>
      <trkpt lat="45.49928" lon="3.11594">
        <ele>855</ele>
        <time>2011-05-15T11:14:08Z</time>
      </trkpt>
      <trkpt lat="45.49935" lon="3.1162">
        <ele>853.8</ele>
        <time>2011-05-15T11:14:13Z</time>
      </trkpt>
      <trkpt lat="45.49929" lon="3.11632">
        <ele>851.8</ele>
        <time>2011-05-15T11:14:17Z</time>
      </trkpt>
      <trkpt lat="45.49917" lon="3.11633">
        <ele>849.4</ele>
        <time>2011-05-15T11:14:21Z</time>
      </trkpt>
      <trkpt lat="45.49904" lon="3.11635">
        <ele>846.6</ele>
        <time>2011-05-15T11:14:25Z</time>
      </trkpt>
      <trkpt lat="45.49892" lon="3.11636">
        <ele>843</ele>
        <time>2011-05-15T11:14:29Z</time>
      </trkpt>
      <trkpt lat="45.49884" lon="3.11643">
        <ele>840.2</ele>
        <time>2011-05-15T11:14:33Z</time>
      </trkpt>
      <trkpt lat="45.49877" lon="3.11668">
        <ele>837.8</ele>
        <time>2011-05-15T11:14:37Z</time>
      </trkpt>
      <trkpt lat="45.49873" lon="3.11688">
        <ele>834.8</ele>
        <time>2011-05-15T11:14:41Z</time>
      </trkpt>
      <trkpt lat="45.49873" lon="3.11699">
        <ele>831.6</ele>
        <time>2011-05-15T11:14:45Z</time>
      </trkpt>
      <trkpt lat="45.49874" lon="3.11712">
        <ele>829</ele>
        <time>2011-05-15T11:14:50Z</time>
      </trkpt>
      <trkpt lat="45.49875" lon="3.11723">
        <ele>826.4</ele>
        <time>2011-05-15T11:14:54Z</time>
      </trkpt>
      <trkpt lat="45.49875" lon="3.11736">
        <ele>824</ele>
        <time>2011-05-15T11:14:58Z</time>
      </trkpt>
      <trkpt lat="45.49871" lon="3.11751">
        <ele>822</ele>
        <time>2011-05-15T11:15:02Z</time>
      </trkpt>
      <trkpt lat="45.49865" lon="3.11762">
        <ele>819.4</ele>
        <time>2011-05-15T11:15:06Z</time>
      </trkpt>
      <trkpt lat="45.4986" lon="3.1177">
        <ele>816.8</ele>
        <time>2011-05-15T11:15:10Z</time>
      </trkpt>
      <trkpt lat="45.49853" lon="3.1178">
        <ele>814.4</ele>
        <time>2011-05-15T11:15:14Z</time>
      </trkpt>
      <trkpt lat="45.49843" lon="3.11792">
        <ele>812</ele>
        <time>2011-05-15T11:15:18Z</time>
      </trkpt>
      <trkpt lat="45.49835" lon="3.11818">
        <ele>809</ele>
        <time>2011-05-15T11:15:22Z</time>
      </trkpt>
      <trkpt lat="45.49836" lon="3.11835">
        <ele>806.4</ele>
        <time>2011-05-15T11:15:26Z</time>
      </trkpt>
      <trkpt lat="45.49835" lon="3.11833">
        <ele>804.4</ele>
        <time>2011-05-15T11:15:31Z</time>
      </trkpt>
      <trkpt lat="45.49835" lon="3.11821">
        <ele>804.4</ele>
        <time>2011-05-15T11:15:39Z</time>
      </trkpt>
      <trkpt lat="45.49845" lon="3.11807">
        <ele>804.4</ele>
        <time>2011-05-15T11:15:53Z</time>
      </trkpt>
      <trkpt lat="45.49916" lon="3.11785">
        <ele>804.4</ele>
        <time>2011-05-15T11:16:14Z</time>
      </trkpt>
      <trkpt lat="45.49983" lon="3.11803">
        <ele>804.4</ele>
        <time>2011-05-15T11:16:30Z</time>
      </trkpt>
      <trkpt lat="45.50025" lon="3.11837">
        <ele>803.2</ele>
        <time>2011-05-15T11:16:38Z</time>
      </trkpt>
      <trkpt lat="45.50053" lon="3.11855">
        <ele>802.4</ele>
        <time>2011-05-15T11:16:43Z</time>
      </trkpt>
      <trkpt lat="45.50069" lon="3.11865">
        <ele>800.6</ele>
        <time>2011-05-15T11:16:47Z</time>
      </trkpt>
      <trkpt lat="45.50106" lon="3.11891">
        <ele>799.4</ele>
        <time>2011-05-15T11:16:55Z</time>
      </trkpt>
      <trkpt lat="45.50124" lon="3.11903">
        <ele>797.4</ele>
        <time>2011-05-15T11:16:59Z</time>
      </trkpt>
      <trkpt lat="45.50159" lon="3.11928">
        <ele>796</ele>
        <time>2011-05-15T11:17:07Z</time>
      </trkpt>
      <trkpt lat="45.50172" lon="3.11938">
        <ele>794.4</ele>
        <time>2011-05-15T11:17:11Z</time>
      </trkpt>
      <trkpt lat="45.50214" lon="3.11963">
        <ele>793.6</ele>
        <time>2011-05-15T11:17:20Z</time>
      </trkpt>
      <trkpt lat="45.50238" lon="3.11978">
        <ele>791.2</ele>
        <time>2011-05-15T11:17:25Z</time>
      </trkpt>
      <trkpt lat="45.50254" lon="3.11988">
        <ele>789.6</ele>
        <time>2011-05-15T11:17:29Z</time>
      </trkpt>
      <trkpt lat="45.50283" lon="3.12008">
        <ele>788</ele>
        <time>2011-05-15T11:17:36Z</time>
      </trkpt>
      <trkpt lat="45.50346" lon="3.1205">
        <ele>786.6</ele>
        <time>2011-05-15T11:17:49Z</time>
      </trkpt>
      <trkpt lat="45.50373" lon="3.12062">
        <ele>785</ele>
        <time>2011-05-15T11:17:54Z</time>
      </trkpt>
      <trkpt lat="45.50403" lon="3.12074">
        <ele>783.4</ele>
        <time>2011-05-15T11:18:00Z</time>
      </trkpt>
      <trkpt lat="45.50422" lon="3.12079">
        <ele>782</ele>
        <time>2011-05-15T11:18:05Z</time>
      </trkpt>
      <trkpt lat="45.50442" lon="3.12087">
        <ele>780.6</ele>
        <time>2011-05-15T11:18:10Z</time>
      </trkpt>
      <trkpt lat="45.50493" lon="3.12114">
        <ele>780.2</ele>
        <time>2011-05-15T11:18:19Z</time>
      </trkpt>
      <trkpt lat="45.50515" lon="3.12122">
        <ele>778.6</ele>
        <time>2011-05-15T11:18:23Z</time>
      </trkpt>
      <trkpt lat="45.5054" lon="3.1212">
        <ele>777</ele>
        <time>2011-05-15T11:18:28Z</time>
      </trkpt>
      <trkpt lat="45.5061" lon="3.12123">
        <ele>776.6</ele>
        <time>2011-05-15T11:18:46Z</time>
      </trkpt>
      <trkpt lat="45.50654" lon="3.12166">
        <ele>776.6</ele>
        <time>2011-05-15T11:19:01Z</time>
      </trkpt>
      <trkpt lat="45.50674" lon="3.12209">
        <ele>775.8</ele>
        <time>2011-05-15T11:19:08Z</time>
      </trkpt>
      <trkpt lat="45.50683" lon="3.12232">
        <ele>773.8</ele>
        <time>2011-05-15T11:19:12Z</time>
      </trkpt>
      <trkpt lat="45.50694" lon="3.12252">
        <ele>771.4</ele>
        <time>2011-05-15T11:19:16Z</time>
      </trkpt>
      <trkpt lat="45.50715" lon="3.1229">
        <ele>769.4</ele>
        <time>2011-05-15T11:19:22Z</time>
      </trkpt>
      <trkpt lat="45.50726" lon="3.12316">
        <ele>766</ele>
        <time>2011-05-15T11:19:26Z</time>
      </trkpt>
      <trkpt lat="45.50746" lon="3.1234">
        <ele>763.2</ele>
        <time>2011-05-15T11:19:30Z</time>
      </trkpt>
      <trkpt lat="45.50769" lon="3.12364">
        <ele>760.2</ele>
        <time>2011-05-15T11:19:34Z</time>
      </trkpt>
      <trkpt lat="45.50795" lon="3.12386">
        <ele>756.8</ele>
        <time>2011-05-15T11:19:38Z</time>
      </trkpt>
      <trkpt lat="45.50826" lon="3.12401">
        <ele>754</ele>
        <time>2011-05-15T11:19:42Z</time>
      </trkpt>
      <trkpt lat="45.50853" lon="3.12423">
        <ele>751.4</ele>
        <time>2011-05-15T11:19:46Z</time>
      </trkpt>
      <trkpt lat="45.50876" lon="3.1245">
        <ele>749.2</ele>
        <time>2011-05-15T11:19:50Z</time>
      </trkpt>
      <trkpt lat="45.5092" lon="3.125">
        <ele>747.6</ele>
        <time>2011-05-15T11:19:58Z</time>
      </trkpt>
      <trkpt lat="45.50954" lon="3.12541">
        <ele>745.8</ele>
        <time>2011-05-15T11:20:04Z</time>
      </trkpt>
      <trkpt lat="45.50979" lon="3.12558">
        <ele>743.8</ele>
        <time>2011-05-15T11:20:08Z</time>
      </trkpt>
      <trkpt lat="45.5101" lon="3.12571">
        <ele>742.8</ele>
        <time>2011-05-15T11:20:13Z</time>
      </trkpt>
      <trkpt lat="45.51031" lon="3.12578">
        <ele>740.6</ele>
        <time>2011-05-15T11:20:17Z</time>
      </trkpt>
      <trkpt lat="45.51056" lon="3.12586">
        <ele>739.2</ele>
        <time>2011-05-15T11:20:22Z</time>
      </trkpt>
      <trkpt lat="45.51101" lon="3.12597">
        <ele>738.4</ele>
        <time>2011-05-15T11:20:31Z</time>
      </trkpt>
      <trkpt lat="45.51186" lon="3.1262">
        <ele>738.4</ele>
        <time>2011-05-15T11:20:51Z</time>
      </trkpt>
      <trkpt lat="45.51278" lon="3.12635">
        <ele>738.4</ele>
        <time>2011-05-15T11:21:16Z</time>
      </trkpt>
      <trkpt lat="45.51354" lon="3.12644">
        <ele>738.4</ele>
        <time>2011-05-15T11:21:40Z</time>
      </trkpt>
      <trkpt lat="45.51369" lon="3.12644">
        <ele>739.2</ele>
        <time>2011-05-15T11:21:47Z</time>
      </trkpt>
      <trkpt lat="45.51375" lon="3.12647">
        <ele>740.4</ele>
        <time>2011-05-15T11:21:51Z</time>
      </trkpt>
      <trkpt lat="45.51401" lon="3.12675">
        <ele>740.4</ele>
        <time>2011-05-15T11:22:08Z</time>
      </trkpt>
      <trkpt lat="45.51436" lon="3.12714">
        <ele>740.4</ele>
        <time>2011-05-15T11:22:18Z</time>
      </trkpt>
      <trkpt lat="45.51502" lon="3.12734">
        <ele>740.4</ele>
        <time>2011-05-15T11:22:39Z</time>
      </trkpt>
      <trkpt lat="45.51576" lon="3.12768">
        <ele>740.4</ele>
        <time>2011-05-15T11:22:58Z</time>
      </trkpt>
      <trkpt lat="45.5165" lon="3.12815">
        <ele>740.4</ele>
        <time>2011-05-15T11:23:18Z</time>
      </trkpt>
      <trkpt lat="45.51722" lon="3.12789">
        <ele>740.4</ele>
        <time>2011-05-15T11:23:38Z</time>
      </trkpt>
      <trkpt lat="45.51729" lon="3.12828">
        <ele>739.2</ele>
        <time>2011-05-15T11:23:45Z</time>
      </trkpt>
      <trkpt lat="45.51721" lon="3.1287">
        <ele>737.4</ele>
        <time>2011-05-15T11:23:50Z</time>
      </trkpt>
      <trkpt lat="45.51715" lon="3.12918">
        <ele>736</ele>
        <time>2011-05-15T11:23:56Z</time>
      </trkpt>
      <trkpt lat="45.51716" lon="3.12955">
        <ele>734.4</ele>
        <time>2011-05-15T11:24:01Z</time>
      </trkpt>
      <trkpt lat="45.51717" lon="3.13009">
        <ele>734</ele>
        <time>2011-05-15T11:24:09Z</time>
      </trkpt>
      <trkpt lat="45.51737" lon="3.13077">
        <ele>734.4</ele>
        <time>2011-05-15T11:24:22Z</time>
      </trkpt>
      <trkpt lat="45.51744" lon="3.13095">
        <ele>736</ele>
        <time>2011-05-15T11:24:26Z</time>
      </trkpt>
      <trkpt lat="45.51743" lon="3.13209">
        <ele>736</ele>
        <time>2011-05-15T11:24:44Z</time>
      </trkpt>
      <trkpt lat="45.51746" lon="3.13256">
        <ele>735.2</ele>
        <time>2011-05-15T11:24:50Z</time>
      </trkpt>
      <trkpt lat="45.51715" lon="3.13245">
        <ele>733.4</ele>
        <time>2011-05-15T11:24:55Z</time>
      </trkpt>
      <trkpt lat="45.51695" lon="3.13206">
        <ele>731.6</ele>
        <time>2011-05-15T11:24:59Z</time>
      </trkpt>
      <trkpt lat="45.51668" lon="3.13177">
        <ele>729.4</ele>
        <time>2011-05-15T11:25:03Z</time>
      </trkpt>
      <trkpt lat="45.51634" lon="3.13158">
        <ele>727.4</ele>
        <time>2011-05-15T11:25:07Z</time>
      </trkpt>
      <trkpt lat="45.51597" lon="3.13148">
        <ele>725.2</ele>
        <time>2011-05-15T11:25:11Z</time>
      </trkpt>
      <trkpt lat="45.51559" lon="3.13138">
        <ele>722</ele>
        <time>2011-05-15T11:25:15Z</time>
      </trkpt>
      <trkpt lat="45.51518" lon="3.13143">
        <ele>719.8</ele>
        <time>2011-05-15T11:25:19Z</time>
      </trkpt>
      <trkpt lat="45.51478" lon="3.13165">
        <ele>717.4</ele>
        <time>2011-05-15T11:25:23Z</time>
      </trkpt>
      <trkpt lat="45.51441" lon="3.13201">
        <ele>714.6</ele>
        <time>2011-05-15T11:25:27Z</time>
      </trkpt>
      <trkpt lat="45.51395" lon="3.13221">
        <ele>711.8</ele>
        <time>2011-05-15T11:25:31Z</time>
      </trkpt>
      <trkpt lat="45.51351" lon="3.13243">
        <ele>708.2</ele>
        <time>2011-05-15T11:25:35Z</time>
      </trkpt>
      <trkpt lat="45.51308" lon="3.1327">
        <ele>704</ele>
        <time>2011-05-15T11:25:39Z</time>
      </trkpt>
      <trkpt lat="45.51266" lon="3.13302">
        <ele>701.4</ele>
        <time>2011-05-15T11:25:43Z</time>
      </trkpt>
      <trkpt lat="45.51221" lon="3.13327">
        <ele>698.6</ele>
        <time>2011-05-15T11:25:47Z</time>
      </trkpt>
      <trkpt lat="45.51181" lon="3.1336">
        <ele>695.2</ele>
        <time>2011-05-15T11:25:51Z</time>
      </trkpt>
      <trkpt lat="45.51147" lon="3.13402">
        <ele>692</ele>
        <time>2011-05-15T11:25:55Z</time>
      </trkpt>
      <trkpt lat="45.51104" lon="3.13448">
        <ele>689.2</ele>
        <time>2011-05-15T11:26:00Z</time>
      </trkpt>
      <trkpt lat="45.51071" lon="3.13485">
        <ele>686.6</ele>
        <time>2011-05-15T11:26:04Z</time>
      </trkpt>
      <trkpt lat="45.5104" lon="3.13526">
        <ele>683.8</ele>
        <time>2011-05-15T11:26:08Z</time>
      </trkpt>
      <trkpt lat="45.5101" lon="3.13565">
        <ele>681.4</ele>
        <time>2011-05-15T11:26:12Z</time>
      </trkpt>
      <trkpt lat="45.50985" lon="3.13606">
        <ele>679.8</ele>
        <time>2011-05-15T11:26:16Z</time>
      </trkpt>
      <trkpt lat="45.50937" lon="3.13738">
        <ele>679.8</ele>
        <time>2011-05-15T11:26:33Z</time>
      </trkpt>
      <trkpt lat="45.50914" lon="3.13801">
        <ele>681</ele>
        <time>2011-05-15T11:26:49Z</time>
      </trkpt>
      <trkpt lat="45.50905" lon="3.13826">
        <ele>682.2</ele>
        <time>2011-05-15T11:27:00Z</time>
      </trkpt>
      <trkpt lat="45.50905" lon="3.13826">
        <ele>684</ele>
        <time>2011-05-15T11:27:04Z</time>
      </trkpt>
      <trkpt lat="45.50905" lon="3.13826">
        <ele>684</ele>
        <time>2011-05-15T11:27:40Z</time>
      </trkpt>
      <trkpt lat="45.50905" lon="3.13827">
        <ele>684</ele>
        <time>2011-05-15T11:28:33Z</time>
      </trkpt>
      <trkpt lat="45.50919" lon="3.13792">
        <ele>684</ele>
        <time>2011-05-15T11:28:46Z</time>
      </trkpt>
      <trkpt lat="45.50931" lon="3.13763">
        <ele>683.2</ele>
        <time>2011-05-15T11:28:51Z</time>
      </trkpt>
      <trkpt lat="45.50945" lon="3.13719">
        <ele>682</ele>
        <time>2011-05-15T11:28:57Z</time>
      </trkpt>
      <trkpt lat="45.5096" lon="3.13678">
        <ele>680.2</ele>
        <time>2011-05-15T11:29:02Z</time>
      </trkpt>
      <trkpt lat="45.50976" lon="3.13633">
        <ele>679</ele>
        <time>2011-05-15T11:29:07Z</time>
      </trkpt>
      <trkpt lat="45.51003" lon="3.13577">
        <ele>677.8</ele>
        <time>2011-05-15T11:29:14Z</time>
      </trkpt>
      <trkpt lat="45.51057" lon="3.13508">
        <ele>677.8</ele>
        <time>2011-05-15T11:29:29Z</time>
      </trkpt>
      <trkpt lat="45.51098" lon="3.13459">
        <ele>679.4</ele>
        <time>2011-05-15T11:29:45Z</time>
      </trkpt>
      <trkpt lat="45.51127" lon="3.13431">
        <ele>680.6</ele>
        <time>2011-05-15T11:29:57Z</time>
      </trkpt>
      <trkpt lat="45.51138" lon="3.13418">
        <ele>681.8</ele>
        <time>2011-05-15T11:30:02Z</time>
      </trkpt>
      <trkpt lat="45.51162" lon="3.13388">
        <ele>683.6</ele>
        <time>2011-05-15T11:30:13Z</time>
      </trkpt>
      <trkpt lat="45.51194" lon="3.13352">
        <ele>684.8</ele>
        <time>2011-05-15T11:30:27Z</time>
      </trkpt>
      <trkpt lat="45.51214" lon="3.13335">
        <ele>686</ele>
        <time>2011-05-15T11:30:35Z</time>
      </trkpt>
      <trkpt lat="45.51233" lon="3.13323">
        <ele>687.8</ele>
        <time>2011-05-15T11:30:42Z</time>
      </trkpt>
      <trkpt lat="45.51258" lon="3.13312">
        <ele>689.4</ele>
        <time>2011-05-15T11:30:53Z</time>
      </trkpt>
      <trkpt lat="45.51278" lon="3.13297">
        <ele>690.8</ele>
        <time>2011-05-15T11:31:02Z</time>
      </trkpt>
      <trkpt lat="45.51286" lon="3.1329">
        <ele>692.6</ele>
        <time>2011-05-15T11:31:06Z</time>
      </trkpt>
      <trkpt lat="45.51304" lon="3.13278">
        <ele>694</ele>
        <time>2011-05-15T11:31:14Z</time>
      </trkpt>
      <trkpt lat="45.5133" lon="3.13259">
        <ele>695.2</ele>
        <time>2011-05-15T11:31:26Z</time>
      </trkpt>
      <trkpt lat="45.51339" lon="3.13254">
        <ele>697</ele>
        <time>2011-05-15T11:31:30Z</time>
      </trkpt>
      <trkpt lat="45.51365" lon="3.1324">
        <ele>698.2</ele>
        <time>2011-05-15T11:31:41Z</time>
      </trkpt>
      <trkpt lat="45.514" lon="3.13224">
        <ele>699.6</ele>
        <time>2011-05-15T11:31:54Z</time>
      </trkpt>
      <trkpt lat="45.5141" lon="3.1322">
        <ele>701.2</ele>
        <time>2011-05-15T11:31:58Z</time>
      </trkpt>
      <trkpt lat="45.5143" lon="3.13213">
        <ele>702.4</ele>
        <time>2011-05-15T11:32:07Z</time>
      </trkpt>
      <trkpt lat="45.5145" lon="3.13196">
        <ele>703.8</ele>
        <time>2011-05-15T11:32:18Z</time>
      </trkpt>
      <trkpt lat="45.51457" lon="3.13188">
        <ele>705.4</ele>
        <time>2011-05-15T11:32:22Z</time>
      </trkpt>
      <trkpt lat="45.51475" lon="3.13171">
        <ele>706.6</ele>
        <time>2011-05-15T11:32:32Z</time>
      </trkpt>
      <trkpt lat="45.51492" lon="3.1316">
        <ele>708</ele>
        <time>2011-05-15T11:32:41Z</time>
      </trkpt>
      <trkpt lat="45.515" lon="3.13155">
        <ele>709.6</ele>
        <time>2011-05-15T11:32:45Z</time>
      </trkpt>
      <trkpt lat="45.51519" lon="3.13147">
        <ele>711.2</ele>
        <time>2011-05-15T11:32:54Z</time>
      </trkpt>
      <trkpt lat="45.51537" lon="3.13143">
        <ele>712.4</ele>
        <time>2011-05-15T11:33:03Z</time>
      </trkpt>
      <trkpt lat="45.51548" lon="3.13142">
        <ele>713.8</ele>
        <time>2011-05-15T11:33:08Z</time>
      </trkpt>
      <trkpt lat="45.51569" lon="3.13144">
        <ele>715.4</ele>
        <time>2011-05-15T11:33:18Z</time>
      </trkpt>
      <trkpt lat="45.51607" lon="3.13154">
        <ele>716.6</ele>
        <time>2011-05-15T11:33:36Z</time>
      </trkpt>
      <trkpt lat="45.51626" lon="3.13159">
        <ele>717.8</ele>
        <time>2011-05-15T11:33:45Z</time>
      </trkpt>
      <trkpt lat="45.51639" lon="3.13165">
        <ele>719.6</ele>
        <time>2011-05-15T11:33:51Z</time>
      </trkpt>
      <trkpt lat="45.51663" lon="3.13176">
        <ele>721.2</ele>
        <time>2011-05-15T11:34:03Z</time>
      </trkpt>
      <trkpt lat="45.51687" lon="3.13197">
        <ele>722.4</ele>
        <time>2011-05-15T11:34:16Z</time>
      </trkpt>
      <trkpt lat="45.51693" lon="3.13206">
        <ele>724</ele>
        <time>2011-05-15T11:34:20Z</time>
      </trkpt>
      <trkpt lat="45.51704" lon="3.13232">
        <ele>725.2</ele>
        <time>2011-05-15T11:34:30Z</time>
      </trkpt>
      <trkpt lat="45.51714" lon="3.13249">
        <ele>726</ele>
        <time>2011-05-15T11:34:37Z</time>
      </trkpt>
      <trkpt lat="45.51729" lon="3.13261">
        <ele>727.8</ele>
        <time>2011-05-15T11:34:45Z</time>
      </trkpt>
      <trkpt lat="45.5175" lon="3.13265">
        <ele>729</ele>
        <time>2011-05-15T11:34:55Z</time>
      </trkpt>
      <trkpt lat="45.51757" lon="3.13273">
        <ele>730.2</ele>
        <time>2011-05-15T11:34:59Z</time>
      </trkpt>
      <trkpt lat="45.51759" lon="3.13329">
        <ele>729.2</ele>
        <time>2011-05-15T11:35:07Z</time>
      </trkpt>
      <trkpt lat="45.51739" lon="3.13361">
        <ele>726</ele>
        <time>2011-05-15T11:35:11Z</time>
      </trkpt>
      <trkpt lat="45.51732" lon="3.13404">
        <ele>722.2</ele>
        <time>2011-05-15T11:35:15Z</time>
      </trkpt>
      <trkpt lat="45.51733" lon="3.13437">
        <ele>716.4</ele>
        <time>2011-05-15T11:35:19Z</time>
      </trkpt>
      <trkpt lat="45.51741" lon="3.13479">
        <ele>712.6</ele>
        <time>2011-05-15T11:35:23Z</time>
      </trkpt>
      <trkpt lat="45.51747" lon="3.13511">
        <ele>708.6</ele>
        <time>2011-05-15T11:35:27Z</time>
      </trkpt>
      <trkpt lat="45.51742" lon="3.13544">
        <ele>705.8</ele>
        <time>2011-05-15T11:35:31Z</time>
      </trkpt>
      <trkpt lat="45.51734" lon="3.13577">
        <ele>704</ele>
        <time>2011-05-15T11:35:35Z</time>
      </trkpt>
      <trkpt lat="45.51728" lon="3.13613">
        <ele>702.2</ele>
        <time>2011-05-15T11:35:39Z</time>
      </trkpt>
      <trkpt lat="45.51723" lon="3.13656">
        <ele>700</ele>
        <time>2011-05-15T11:35:43Z</time>
      </trkpt>
      <trkpt lat="45.51719" lon="3.13704">
        <ele>697.6</ele>
        <time>2011-05-15T11:35:47Z</time>
      </trkpt>
      <trkpt lat="45.51713" lon="3.13748">
        <ele>694.6</ele>
        <time>2011-05-15T11:35:51Z</time>
      </trkpt>
      <trkpt lat="45.51706" lon="3.13794">
        <ele>691.2</ele>
        <time>2011-05-15T11:35:55Z</time>
      </trkpt>
      <trkpt lat="45.51684" lon="3.13834">
        <ele>687.8</ele>
        <time>2011-05-15T11:35:59Z</time>
      </trkpt>
      <trkpt lat="45.51668" lon="3.1387">
        <ele>684.6</ele>
        <time>2011-05-15T11:36:03Z</time>
      </trkpt>
      <trkpt lat="45.51658" lon="3.13905">
        <ele>680.8</ele>
        <time>2011-05-15T11:36:07Z</time>
      </trkpt>
      <trkpt lat="45.51649" lon="3.13943">
        <ele>678.8</ele>
        <time>2011-05-15T11:36:11Z</time>
      </trkpt>
      <trkpt lat="45.51643" lon="3.13983">
        <ele>676.8</ele>
        <time>2011-05-15T11:36:15Z</time>
      </trkpt>
      <trkpt lat="45.51638" lon="3.1402">
        <ele>673.8</ele>
        <time>2011-05-15T11:36:19Z</time>
      </trkpt>
      <trkpt lat="45.51634" lon="3.1405">
        <ele>670.6</ele>
        <time>2011-05-15T11:36:23Z</time>
      </trkpt>
      <trkpt lat="45.5163" lon="3.14078">
        <ele>667.4</ele>
        <time>2011-05-15T11:36:27Z</time>
      </trkpt>
      <trkpt lat="45.51624" lon="3.14099">
        <ele>664.2</ele>
        <time>2011-05-15T11:36:31Z</time>
      </trkpt>
      <trkpt lat="45.51608" lon="3.14107">
        <ele>661</ele>
        <time>2011-05-15T11:36:35Z</time>
      </trkpt>
      <trkpt lat="45.51586" lon="3.14116">
        <ele>660.2</ele>
        <time>2011-05-15T11:36:41Z</time>
      </trkpt>
      <trkpt lat="45.51573" lon="3.14134">
        <ele>658.8</ele>
        <time>2011-05-15T11:36:49Z</time>
      </trkpt>
      <trkpt lat="45.51563" lon="3.14154">
        <ele>660</ele>
        <time>2011-05-15T11:37:00Z</time>
      </trkpt>
      <trkpt lat="45.51548" lon="3.14165">
        <ele>660.8</ele>
        <time>2011-05-15T11:37:09Z</time>
      </trkpt>
      <trkpt lat="45.51535" lon="3.14173">
        <ele>662.6</ele>
        <time>2011-05-15T11:37:15Z</time>
      </trkpt>
      <trkpt lat="45.51515" lon="3.14183">
        <ele>663.8</ele>
        <time>2011-05-15T11:37:25Z</time>
      </trkpt>
      <trkpt lat="45.5149" lon="3.14194">
        <ele>665</ele>
        <time>2011-05-15T11:37:34Z</time>
      </trkpt>
      <trkpt lat="45.51451" lon="3.14195">
        <ele>666.4</ele>
        <time>2011-05-15T11:37:48Z</time>
      </trkpt>
      <trkpt lat="45.51428" lon="3.142">
        <ele>667.2</ele>
        <time>2011-05-15T11:37:59Z</time>
      </trkpt>
      <trkpt lat="45.5142" lon="3.14207">
        <ele>668.8</ele>
        <time>2011-05-15T11:38:03Z</time>
      </trkpt>
      <trkpt lat="45.51398" lon="3.14235">
        <ele>669.6</ele>
        <time>2011-05-15T11:38:15Z</time>
      </trkpt>
      <trkpt lat="45.5139" lon="3.14243">
        <ele>671.4</ele>
        <time>2011-05-15T11:38:19Z</time>
      </trkpt>
      <trkpt lat="45.51366" lon="3.14275">
        <ele>672.6</ele>
        <time>2011-05-15T11:38:33Z</time>
      </trkpt>
      <trkpt lat="45.51335" lon="3.14312">
        <ele>673.4</ele>
        <time>2011-05-15T11:38:47Z</time>
      </trkpt>
      <trkpt lat="45.51272" lon="3.14382">
        <ele>673.4</ele>
        <time>2011-05-15T11:39:11Z</time>
      </trkpt>
      <trkpt lat="45.51231" lon="3.14431">
        <ele>673.4</ele>
        <time>2011-05-15T11:39:27Z</time>
      </trkpt>
      <trkpt lat="45.51189" lon="3.14511">
        <ele>674.2</ele>
        <time>2011-05-15T11:39:49Z</time>
      </trkpt>
      <trkpt lat="45.51192" lon="3.14529">
        <ele>675.4</ele>
        <time>2011-05-15T11:39:57Z</time>
      </trkpt>
      <trkpt lat="45.51221" lon="3.1455">
        <ele>675.4</ele>
        <time>2011-05-15T11:40:22Z</time>
      </trkpt>
      <trkpt lat="45.51221" lon="3.1455">
        <ele>675.4</ele>
        <time>2011-05-15T11:41:06Z</time>
      </trkpt>
      <trkpt lat="45.51221" lon="3.1455">
        <ele>675.4</ele>
        <time>2011-05-15T11:41:57Z</time>
      </trkpt>
      <trkpt lat="45.51221" lon="3.1455">
        <ele>675.4</ele>
        <time>2011-05-15T11:42:44Z</time>
      </trkpt>
      <trkpt lat="45.5124" lon="3.14553">
        <ele>676.6</ele>
        <time>2011-05-15T11:43:03Z</time>
      </trkpt>
      <trkpt lat="45.51263" lon="3.14575">
        <ele>677.8</ele>
        <time>2011-05-15T11:43:16Z</time>
      </trkpt>
      <trkpt lat="45.51269" lon="3.14583">
        <ele>679.6</ele>
        <time>2011-05-15T11:43:20Z</time>
      </trkpt>
      <trkpt lat="45.51283" lon="3.146">
        <ele>680.8</ele>
        <time>2011-05-15T11:43:30Z</time>
      </trkpt>
      <trkpt lat="45.51295" lon="3.14615">
        <ele>682.6</ele>
        <time>2011-05-15T11:43:39Z</time>
      </trkpt>
      <trkpt lat="45.51305" lon="3.14624">
        <ele>683.8</ele>
        <time>2011-05-15T11:43:46Z</time>
      </trkpt>
      <trkpt lat="45.51312" lon="3.14629">
        <ele>685.4</ele>
        <time>2011-05-15T11:43:51Z</time>
      </trkpt>
      <trkpt lat="45.5132" lon="3.14639">
        <ele>686.2</ele>
        <time>2011-05-15T11:43:58Z</time>
      </trkpt>
      <trkpt lat="45.51325" lon="3.14642">
        <ele>687.8</ele>
        <time>2011-05-15T11:44:02Z</time>
      </trkpt>
      <trkpt lat="45.51335" lon="3.14646">
        <ele>689.4</ele>
        <time>2011-05-15T11:44:10Z</time>
      </trkpt>
      <trkpt lat="45.51347" lon="3.14647">
        <ele>690.8</ele>
        <time>2011-05-15T11:44:19Z</time>
      </trkpt>
      <trkpt lat="45.51353" lon="3.14647">
        <ele>692.2</ele>
        <time>2011-05-15T11:44:24Z</time>
      </trkpt>
      <trkpt lat="45.51369" lon="3.14646">
        <ele>693.4</ele>
        <time>2011-05-15T11:44:33Z</time>
      </trkpt>
      <trkpt lat="45.51397" lon="3.14644">
        <ele>694.2</ele>
        <time>2011-05-15T11:44:46Z</time>
      </trkpt>
      <trkpt lat="45.51408" lon="3.14644">
        <ele>695.8</ele>
        <time>2011-05-15T11:44:51Z</time>
      </trkpt>
      <trkpt lat="45.51425" lon="3.14672">
        <ele>697.2</ele>
        <time>2011-05-15T11:45:05Z</time>
      </trkpt>
      <trkpt lat="45.51437" lon="3.1468">
        <ele>698.4</ele>
        <time>2011-05-15T11:45:12Z</time>
      </trkpt>
      <trkpt lat="45.51446" lon="3.14678">
        <ele>700.2</ele>
        <time>2011-05-15T11:45:16Z</time>
      </trkpt>
      <trkpt lat="45.51488" lon="3.14665">
        <ele>700.6</ele>
        <time>2011-05-15T11:45:32Z</time>
      </trkpt>
      <trkpt lat="45.51592" lon="3.14664">
        <ele>700.6</ele>
        <time>2011-05-15T11:45:58Z</time>
      </trkpt>
      <trkpt lat="45.51641" lon="3.14668">
        <ele>698.4</ele>
        <time>2011-05-15T11:46:08Z</time>
      </trkpt>
      <trkpt lat="45.51663" lon="3.14666">
        <ele>695.8</ele>
        <time>2011-05-15T11:46:12Z</time>
      </trkpt>
      <trkpt lat="45.51686" lon="3.14697">
        <ele>694.6</ele>
        <time>2011-05-15T11:46:18Z</time>
      </trkpt>
      <trkpt lat="45.51705" lon="3.14717">
        <ele>693.6</ele>
        <time>2011-05-15T11:46:23Z</time>
      </trkpt>
      <trkpt lat="45.51748" lon="3.14753">
        <ele>693.6</ele>
        <time>2011-05-15T11:46:35Z</time>
      </trkpt>
      <trkpt lat="45.5178" lon="3.14796">
        <ele>695</ele>
        <time>2011-05-15T11:46:47Z</time>
      </trkpt>
      <trkpt lat="45.51811" lon="3.14837">
        <ele>695.8</ele>
        <time>2011-05-15T11:46:59Z</time>
      </trkpt>
      <trkpt lat="45.51885" lon="3.14892">
        <ele>695.8</ele>
        <time>2011-05-15T11:47:23Z</time>
      </trkpt>
      <trkpt lat="45.51931" lon="3.1493">
        <ele>694.6</ele>
        <time>2011-05-15T11:47:35Z</time>
      </trkpt>
      <trkpt lat="45.51972" lon="3.14964">
        <ele>693.4</ele>
        <time>2011-05-15T11:47:45Z</time>
      </trkpt>
      <trkpt lat="45.51985" lon="3.14986">
        <ele>691.6</ele>
        <time>2011-05-15T11:47:49Z</time>
      </trkpt>
      <trkpt lat="45.52009" lon="3.15031">
        <ele>690.4</ele>
        <time>2011-05-15T11:47:56Z</time>
      </trkpt>
      <trkpt lat="45.52021" lon="3.15057">
        <ele>689.6</ele>
        <time>2011-05-15T11:48:00Z</time>
      </trkpt>
      <trkpt lat="45.5203" lon="3.15077">
        <ele>687.8</ele>
        <time>2011-05-15T11:48:04Z</time>
      </trkpt>
      <trkpt lat="45.52048" lon="3.15121">
        <ele>687.4</ele>
        <time>2011-05-15T11:48:20Z</time>
      </trkpt>
      <trkpt lat="45.52054" lon="3.15132">
        <ele>689</ele>
        <time>2011-05-15T11:48:25Z</time>
      </trkpt>
      <trkpt lat="45.52062" lon="3.15162">
        <ele>690.2</ele>
        <time>2011-05-15T11:48:37Z</time>
      </trkpt>
      <trkpt lat="45.52068" lon="3.15189">
        <ele>691.4</ele>
        <time>2011-05-15T11:48:46Z</time>
      </trkpt>
      <trkpt lat="45.52073" lon="3.15213">
        <ele>692.4</ele>
        <time>2011-05-15T11:48:57Z</time>
      </trkpt>
      <trkpt lat="45.52071" lon="3.15225">
        <ele>693.6</ele>
        <time>2011-05-15T11:49:02Z</time>
      </trkpt>
      <trkpt lat="45.52078" lon="3.15254">
        <ele>694.4</ele>
        <time>2011-05-15T11:49:13Z</time>
      </trkpt>
      <trkpt lat="45.52089" lon="3.15278">
        <ele>695.6</ele>
        <time>2011-05-15T11:49:20Z</time>
      </trkpt>
      <trkpt lat="45.52135" lon="3.15338">
        <ele>695.6</ele>
        <time>2011-05-15T11:49:35Z</time>
      </trkpt>
      <trkpt lat="45.52146" lon="3.15361">
        <ele>694.4</ele>
        <time>2011-05-15T11:49:39Z</time>
      </trkpt>
      <trkpt lat="45.5216" lon="3.15408">
        <ele>693.4</ele>
        <time>2011-05-15T11:49:52Z</time>
      </trkpt>
      <trkpt lat="45.52165" lon="3.15429">
        <ele>695</ele>
        <time>2011-05-15T11:49:57Z</time>
      </trkpt>
      <trkpt lat="45.52193" lon="3.15476">
        <ele>695.4</ele>
        <time>2011-05-15T11:50:06Z</time>
      </trkpt>
      <trkpt lat="45.52207" lon="3.15502">
        <ele>693.8</ele>
        <time>2011-05-15T11:50:11Z</time>
      </trkpt>
      <trkpt lat="45.52234" lon="3.15556">
        <ele>693.4</ele>
        <time>2011-05-15T11:50:24Z</time>
      </trkpt>
      <trkpt lat="45.52255" lon="3.15615">
        <ele>693.4</ele>
        <time>2011-05-15T11:50:36Z</time>
      </trkpt>
      <trkpt lat="45.52265" lon="3.15634">
        <ele>691.6</ele>
        <time>2011-05-15T11:50:40Z</time>
      </trkpt>
      <trkpt lat="45.52279" lon="3.15656">
        <ele>690.8</ele>
        <time>2011-05-15T11:50:45Z</time>
      </trkpt>
      <trkpt lat="45.52289" lon="3.15672">
        <ele>689.2</ele>
        <time>2011-05-15T11:50:49Z</time>
      </trkpt>
      <trkpt lat="45.52302" lon="3.15715">
        <ele>689.2</ele>
        <time>2011-05-15T11:50:57Z</time>
      </trkpt>
      <trkpt lat="45.5231" lon="3.15742">
        <ele>687.2</ele>
        <time>2011-05-15T11:51:02Z</time>
      </trkpt>
      <trkpt lat="45.52313" lon="3.15765">
        <ele>685</ele>
        <time>2011-05-15T11:51:06Z</time>
      </trkpt>
      <trkpt lat="45.52316" lon="3.15796">
        <ele>683.2</ele>
        <time>2011-05-15T11:51:10Z</time>
      </trkpt>
      <trkpt lat="45.52314" lon="3.1582">
        <ele>682.4</ele>
        <time>2011-05-15T11:51:14Z</time>
      </trkpt>
      <trkpt lat="45.52322" lon="3.15925">
        <ele>682.4</ele>
        <time>2011-05-15T11:51:35Z</time>
      </trkpt>
      <trkpt lat="45.52346" lon="3.15997">
        <ele>682.4</ele>
        <time>2011-05-15T11:51:46Z</time>
      </trkpt>
      <trkpt lat="45.52359" lon="3.16025">
        <ele>680.6</ele>
        <time>2011-05-15T11:51:51Z</time>
      </trkpt>
      <trkpt lat="45.52377" lon="3.16072">
        <ele>679.8</ele>
        <time>2011-05-15T11:51:58Z</time>
      </trkpt>
      <trkpt lat="45.52385" lon="3.16101">
        <ele>678</ele>
        <time>2011-05-15T11:52:02Z</time>
      </trkpt>
      <trkpt lat="45.5239" lon="3.16145">
        <ele>676.6</ele>
        <time>2011-05-15T11:52:08Z</time>
      </trkpt>
      <trkpt lat="45.52395" lon="3.16184">
        <ele>674.8</ele>
        <time>2011-05-15T11:52:14Z</time>
      </trkpt>
      <trkpt lat="45.52395" lon="3.16216">
        <ele>673.6</ele>
        <time>2011-05-15T11:52:19Z</time>
      </trkpt>
      <trkpt lat="45.524" lon="3.16293">
        <ele>673</ele>
        <time>2011-05-15T11:52:32Z</time>
      </trkpt>
      <trkpt lat="45.52404" lon="3.16316">
        <ele>671.4</ele>
        <time>2011-05-15T11:52:36Z</time>
      </trkpt>
      <trkpt lat="45.52429" lon="3.16378">
        <ele>670.6</ele>
        <time>2011-05-15T11:52:48Z</time>
      </trkpt>
      <trkpt lat="45.52436" lon="3.16396">
        <ele>669.2</ele>
        <time>2011-05-15T11:52:52Z</time>
      </trkpt>
      <trkpt lat="45.52441" lon="3.16429">
        <ele>667.2</ele>
        <time>2011-05-15T11:52:59Z</time>
      </trkpt>
      <trkpt lat="45.52432" lon="3.16511">
        <ele>666.8</ele>
        <time>2011-05-15T11:53:14Z</time>
      </trkpt>
      <trkpt lat="45.52429" lon="3.16543">
        <ele>665</ele>
        <time>2011-05-15T11:53:20Z</time>
      </trkpt>
      <trkpt lat="45.52411" lon="3.16592">
        <ele>664</ele>
        <time>2011-05-15T11:53:28Z</time>
      </trkpt>
      <trkpt lat="45.52408" lon="3.16616">
        <ele>662.2</ele>
        <time>2011-05-15T11:53:32Z</time>
      </trkpt>
      <trkpt lat="45.52399" lon="3.16661">
        <ele>661.4</ele>
        <time>2011-05-15T11:53:40Z</time>
      </trkpt>
      <trkpt lat="45.52395" lon="3.1669">
        <ele>660.2</ele>
        <time>2011-05-15T11:53:44Z</time>
      </trkpt>
      <trkpt lat="45.52394" lon="3.16728">
        <ele>659</ele>
        <time>2011-05-15T11:53:49Z</time>
      </trkpt>
      <trkpt lat="45.52388" lon="3.16758">
        <ele>656.6</ele>
        <time>2011-05-15T11:53:53Z</time>
      </trkpt>
      <trkpt lat="45.52383" lon="3.16795">
        <ele>655.2</ele>
        <time>2011-05-15T11:53:58Z</time>
      </trkpt>
      <trkpt lat="45.52386" lon="3.16833">
        <ele>653.8</ele>
        <time>2011-05-15T11:54:03Z</time>
      </trkpt>
      <trkpt lat="45.52389" lon="3.1686">
        <ele>651.8</ele>
        <time>2011-05-15T11:54:08Z</time>
      </trkpt>
      <trkpt lat="45.5239" lon="3.16902">
        <ele>651.8</ele>
        <time>2011-05-15T11:54:15Z</time>
      </trkpt>
      <trkpt lat="45.52393" lon="3.16925">
        <ele>653.4</ele>
        <time>2011-05-15T11:54:19Z</time>
      </trkpt>
      <trkpt lat="45.52389" lon="3.16998">
        <ele>653.4</ele>
        <time>2011-05-15T11:54:34Z</time>
      </trkpt>
      <trkpt lat="45.52397" lon="3.17083">
        <ele>653</ele>
        <time>2011-05-15T11:54:52Z</time>
      </trkpt>
      <trkpt lat="45.52397" lon="3.17107">
        <ele>651.4</ele>
        <time>2011-05-15T11:54:56Z</time>
      </trkpt>
      <trkpt lat="45.52398" lon="3.17146">
        <ele>650</ele>
        <time>2011-05-15T11:55:03Z</time>
      </trkpt>
      <trkpt lat="45.52398" lon="3.17164">
        <ele>649</ele>
        <time>2011-05-15T11:55:08Z</time>
      </trkpt>
      <trkpt lat="45.52409" lon="3.17212">
        <ele>649</ele>
        <time>2011-05-15T11:55:22Z</time>
      </trkpt>
      <trkpt lat="45.5241" lon="3.17302">
        <ele>649</ele>
        <time>2011-05-15T11:55:41Z</time>
      </trkpt>
      <trkpt lat="45.52417" lon="3.17378">
        <ele>649</ele>
        <time>2011-05-15T11:55:55Z</time>
      </trkpt>
      <trkpt lat="45.52408" lon="3.17477">
        <ele>648.6</ele>
        <time>2011-05-15T11:56:11Z</time>
      </trkpt>
      <trkpt lat="45.52393" lon="3.1751">
        <ele>646.6</ele>
        <time>2011-05-15T11:56:15Z</time>
      </trkpt>
      <trkpt lat="45.52378" lon="3.17539">
        <ele>644.2</ele>
        <time>2011-05-15T11:56:19Z</time>
      </trkpt>
      <trkpt lat="45.52331" lon="3.17583">
        <ele>644.2</ele>
        <time>2011-05-15T11:56:29Z</time>
      </trkpt>
      <trkpt lat="45.52288" lon="3.17618">
        <ele>643</ele>
        <time>2011-05-15T11:56:38Z</time>
      </trkpt>
      <trkpt lat="45.52258" lon="3.17638">
        <ele>642.2</ele>
        <time>2011-05-15T11:56:45Z</time>
      </trkpt>
      <trkpt lat="45.52154" lon="3.17687">
        <ele>642.2</ele>
        <time>2011-05-15T11:57:10Z</time>
      </trkpt>
      <trkpt lat="45.52172" lon="3.1773">
        <ele>641.6</ele>
        <time>2011-05-15T11:57:18Z</time>
      </trkpt>
      <trkpt lat="45.52179" lon="3.17746">
        <ele>638.8</ele>
        <time>2011-05-15T11:57:22Z</time>
      </trkpt>
      <trkpt lat="45.52196" lon="3.17753">
        <ele>636.4</ele>
        <time>2011-05-15T11:57:27Z</time>
      </trkpt>
      <trkpt lat="45.52225" lon="3.17765">
        <ele>635.2</ele>
        <time>2011-05-15T11:57:32Z</time>
      </trkpt>
      <trkpt lat="45.52249" lon="3.17772">
        <ele>633</ele>
        <time>2011-05-15T11:57:36Z</time>
      </trkpt>
      <trkpt lat="45.52286" lon="3.17776">
        <ele>631.4</ele>
        <time>2011-05-15T11:57:41Z</time>
      </trkpt>
      <trkpt lat="45.52315" lon="3.17781">
        <ele>628.2</ele>
        <time>2011-05-15T11:57:45Z</time>
      </trkpt>
      <trkpt lat="45.52347" lon="3.17793">
        <ele>624.8</ele>
        <time>2011-05-15T11:57:49Z</time>
      </trkpt>
      <trkpt lat="45.5238" lon="3.17813">
        <ele>621.8</ele>
        <time>2011-05-15T11:57:53Z</time>
      </trkpt>
      <trkpt lat="45.52409" lon="3.17832">
        <ele>618.4</ele>
        <time>2011-05-15T11:57:57Z</time>
      </trkpt>
      <trkpt lat="45.52437" lon="3.17856">
        <ele>615.4</ele>
        <time>2011-05-15T11:58:01Z</time>
      </trkpt>
      <trkpt lat="45.52467" lon="3.17879">
        <ele>612.6</ele>
        <time>2011-05-15T11:58:05Z</time>
      </trkpt>
      <trkpt lat="45.52496" lon="3.17892">
        <ele>609.4</ele>
        <time>2011-05-15T11:58:09Z</time>
      </trkpt>
      <trkpt lat="45.52516" lon="3.17897">
        <ele>606</ele>
        <time>2011-05-15T11:58:13Z</time>
      </trkpt>
      <trkpt lat="45.52522" lon="3.17915">
        <ele>602.4</ele>
        <time>2011-05-15T11:58:17Z</time>
      </trkpt>
      <trkpt lat="45.52527" lon="3.17958">
        <ele>600.4</ele>
        <time>2011-05-15T11:58:24Z</time>
      </trkpt>
      <trkpt lat="45.52529" lon="3.17986">
        <ele>598.6</ele>
        <time>2011-05-15T11:58:28Z</time>
      </trkpt>
      <trkpt lat="45.5253" lon="3.18061">
        <ele>597.2</ele>
        <time>2011-05-15T11:58:37Z</time>
      </trkpt>
      <trkpt lat="45.52522" lon="3.18116">
        <ele>595.8</ele>
        <time>2011-05-15T11:58:44Z</time>
      </trkpt>
      <trkpt lat="45.52517" lon="3.1816">
        <ele>594</ele>
        <time>2011-05-15T11:58:50Z</time>
      </trkpt>
      <trkpt lat="45.52559" lon="3.18167">
        <ele>593.6</ele>
        <time>2011-05-15T11:58:58Z</time>
      </trkpt>
      <trkpt lat="45.52582" lon="3.18163">
        <ele>591.8</ele>
        <time>2011-05-15T11:59:02Z</time>
      </trkpt>
      <trkpt lat="45.5261" lon="3.18166">
        <ele>590.6</ele>
        <time>2011-05-15T11:59:07Z</time>
      </trkpt>
      <trkpt lat="45.52631" lon="3.18171">
        <ele>588.2</ele>
        <time>2011-05-15T11:59:11Z</time>
      </trkpt>
      <trkpt lat="45.52689" lon="3.18174">
        <ele>586.6</ele>
        <time>2011-05-15T11:59:20Z</time>
      </trkpt>
      <trkpt lat="45.52711" lon="3.18177">
        <ele>585</ele>
        <time>2011-05-15T11:59:24Z</time>
      </trkpt>
      <trkpt lat="45.52732" lon="3.18182">
        <ele>583</ele>
        <time>2011-05-15T11:59:28Z</time>
      </trkpt>
      <trkpt lat="45.52749" lon="3.18188">
        <ele>581.6</ele>
        <time>2011-05-15T11:59:32Z</time>
      </trkpt>
      <trkpt lat="45.52767" lon="3.18196">
        <ele>580.4</ele>
        <time>2011-05-15T11:59:36Z</time>
      </trkpt>
      <trkpt lat="45.52818" lon="3.18222">
        <ele>579</ele>
        <time>2011-05-15T11:59:47Z</time>
      </trkpt>
      <trkpt lat="45.52851" lon="3.18233">
        <ele>577.8</ele>
        <time>2011-05-15T11:59:54Z</time>
      </trkpt>
      <trkpt lat="45.5287" lon="3.18241">
        <ele>575.8</ele>
        <time>2011-05-15T11:59:58Z</time>
      </trkpt>
      <trkpt lat="45.52899" lon="3.18247">
        <ele>574</ele>
        <time>2011-05-15T12:00:04Z</time>
      </trkpt>
      <trkpt lat="45.5292" lon="3.18249">
        <ele>573.2</ele>
        <time>2011-05-15T12:00:09Z</time>
      </trkpt>
      <trkpt lat="45.52951" lon="3.18242">
        <ele>571.6</ele>
        <time>2011-05-15T12:00:16Z</time>
      </trkpt>
      <trkpt lat="45.52968" lon="3.1825">
        <ele>569.8</ele>
        <time>2011-05-15T12:00:20Z</time>
      </trkpt>
      <trkpt lat="45.52999" lon="3.18269">
        <ele>568.8</ele>
        <time>2011-05-15T12:00:33Z</time>
      </trkpt>
      <trkpt lat="45.53033" lon="3.18287">
        <ele>570</ele>
        <time>2011-05-15T12:00:49Z</time>
      </trkpt>
      <trkpt lat="45.53071" lon="3.18297">
        <ele>571</ele>
        <time>2011-05-15T12:01:02Z</time>
      </trkpt>
      <trkpt lat="45.53106" lon="3.18301">
        <ele>572.6</ele>
        <time>2011-05-15T12:01:15Z</time>
      </trkpt>
      <trkpt lat="45.53155" lon="3.18311">
        <ele>573</ele>
        <time>2011-05-15T12:01:33Z</time>
      </trkpt>
      <trkpt lat="45.53206" lon="3.18313">
        <ele>573.4</ele>
        <time>2011-05-15T12:01:55Z</time>
      </trkpt>
      <trkpt lat="45.53215" lon="3.18312">
        <ele>575</ele>
        <time>2011-05-15T12:01:59Z</time>
      </trkpt>
      <trkpt lat="45.53246" lon="3.18308">
        <ele>576</ele>
        <time>2011-05-15T12:02:12Z</time>
      </trkpt>
      <trkpt lat="45.53257" lon="3.18304">
        <ele>577.2</ele>
        <time>2011-05-15T12:02:16Z</time>
      </trkpt>
      <trkpt lat="45.53297" lon="3.18281">
        <ele>578.8</ele>
        <time>2011-05-15T12:02:29Z</time>
      </trkpt>
      <trkpt lat="45.53337" lon="3.18274">
        <ele>579.2</ele>
        <time>2011-05-15T12:02:43Z</time>
      </trkpt>
      <trkpt lat="45.53379" lon="3.18265">
        <ele>579.2</ele>
        <time>2011-05-15T12:02:58Z</time>
      </trkpt>
      <trkpt lat="45.53442" lon="3.18248">
        <ele>578.8</ele>
        <time>2011-05-15T12:03:18Z</time>
      </trkpt>
      <trkpt lat="45.5346" lon="3.18244">
        <ele>577</ele>
        <time>2011-05-15T12:03:22Z</time>
      </trkpt>
      <trkpt lat="45.53484" lon="3.1824">
        <ele>575</ele>
        <time>2011-05-15T12:03:26Z</time>
      </trkpt>
      <trkpt lat="45.53506" lon="3.18238">
        <ele>572</ele>
        <time>2011-05-15T12:03:30Z</time>
      </trkpt>
      <trkpt lat="45.53532" lon="3.18244">
        <ele>569</ele>
        <time>2011-05-15T12:03:34Z</time>
      </trkpt>
      <trkpt lat="45.53558" lon="3.18245">
        <ele>565.8</ele>
        <time>2011-05-15T12:03:38Z</time>
      </trkpt>
      <trkpt lat="45.53584" lon="3.18235">
        <ele>562.6</ele>
        <time>2011-05-15T12:03:42Z</time>
      </trkpt>
      <trkpt lat="45.53611" lon="3.18224">
        <ele>558</ele>
        <time>2011-05-15T12:03:46Z</time>
      </trkpt>
      <trkpt lat="45.53638" lon="3.18213">
        <ele>554.4</ele>
        <time>2011-05-15T12:03:50Z</time>
      </trkpt>
      <trkpt lat="45.53664" lon="3.18202">
        <ele>550.6</ele>
        <time>2011-05-15T12:03:54Z</time>
      </trkpt>
      <trkpt lat="45.53691" lon="3.18195">
        <ele>547.8</ele>
        <time>2011-05-15T12:03:58Z</time>
      </trkpt>
      <trkpt lat="45.53712" lon="3.18192">
        <ele>544.8</ele>
        <time>2011-05-15T12:04:02Z</time>
      </trkpt>
      <trkpt lat="45.53738" lon="3.18186">
        <ele>542.4</ele>
        <time>2011-05-15T12:04:06Z</time>
      </trkpt>
      <trkpt lat="45.53779" lon="3.18179">
        <ele>540.2</ele>
        <time>2011-05-15T12:04:11Z</time>
      </trkpt>
      <trkpt lat="45.5381" lon="3.18175">
        <ele>537.4</ele>
        <time>2011-05-15T12:04:15Z</time>
      </trkpt>
      <trkpt lat="45.5384" lon="3.18171">
        <ele>533.4</ele>
        <time>2011-05-15T12:04:19Z</time>
      </trkpt>
      <trkpt lat="45.53868" lon="3.18169">
        <ele>529.8</ele>
        <time>2011-05-15T12:04:23Z</time>
      </trkpt>
      <trkpt lat="45.53891" lon="3.18172">
        <ele>525.6</ele>
        <time>2011-05-15T12:04:27Z</time>
      </trkpt>
      <trkpt lat="45.53913" lon="3.18176">
        <ele>521.6</ele>
        <time>2011-05-15T12:04:31Z</time>
      </trkpt>
      <trkpt lat="45.53937" lon="3.18174">
        <ele>517.4</ele>
        <time>2011-05-15T12:04:35Z</time>
      </trkpt>
      <trkpt lat="45.53961" lon="3.1817">
        <ele>513.6</ele>
        <time>2011-05-15T12:04:39Z</time>
      </trkpt>
      <trkpt lat="45.53984" lon="3.18168">
        <ele>509.6</ele>
        <time>2011-05-15T12:04:43Z</time>
      </trkpt>
      <trkpt lat="45.54011" lon="3.18167">
        <ele>505.6</ele>
        <time>2011-05-15T12:04:47Z</time>
      </trkpt>
      <trkpt lat="45.54034" lon="3.18164">
        <ele>502</ele>
        <time>2011-05-15T12:04:51Z</time>
      </trkpt>
      <trkpt lat="45.54051" lon="3.18162">
        <ele>498.6</ele>
        <time>2011-05-15T12:04:55Z</time>
      </trkpt>
      <trkpt lat="45.54062" lon="3.18176">
        <ele>495.2</ele>
        <time>2011-05-15T12:04:59Z</time>
      </trkpt>
      <trkpt lat="45.54061" lon="3.18211">
        <ele>494</ele>
        <time>2011-05-15T12:05:05Z</time>
      </trkpt>
      <trkpt lat="45.54058" lon="3.18235">
        <ele>492.2</ele>
        <time>2011-05-15T12:05:09Z</time>
      </trkpt>
      <trkpt lat="45.54044" lon="3.18339">
        <ele>492.2</ele>
        <time>2011-05-15T12:05:27Z</time>
      </trkpt>
      <trkpt lat="45.54042" lon="3.18387">
        <ele>490.4</ele>
        <time>2011-05-15T12:05:35Z</time>
      </trkpt>
      <trkpt lat="45.54041" lon="3.1843">
        <ele>490</ele>
        <time>2011-05-15T12:05:44Z</time>
      </trkpt>
      <trkpt lat="45.54041" lon="3.18489">
        <ele>488.8</ele>
        <time>2011-05-15T12:05:55Z</time>
      </trkpt>
      <trkpt lat="45.54051" lon="3.18555">
        <ele>488</ele>
        <time>2011-05-15T12:06:05Z</time>
      </trkpt>
      <trkpt lat="45.54062" lon="3.18606">
        <ele>485.2</ele>
        <time>2011-05-15T12:06:11Z</time>
      </trkpt>
      <trkpt lat="45.54075" lon="3.18639">
        <ele>483</ele>
        <time>2011-05-15T12:06:16Z</time>
      </trkpt>
      <trkpt lat="45.541" lon="3.18656">
        <ele>480.4</ele>
        <time>2011-05-15T12:06:20Z</time>
      </trkpt>
      <trkpt lat="45.54124" lon="3.18683">
        <ele>477.6</ele>
        <time>2011-05-15T12:06:24Z</time>
      </trkpt>
      <trkpt lat="45.54148" lon="3.18713">
        <ele>474.4</ele>
        <time>2011-05-15T12:06:28Z</time>
      </trkpt>
      <trkpt lat="45.54167" lon="3.18748">
        <ele>471.2</ele>
        <time>2011-05-15T12:06:32Z</time>
      </trkpt>
      <trkpt lat="45.54195" lon="3.18782">
        <ele>467.8</ele>
        <time>2011-05-15T12:06:36Z</time>
      </trkpt>
      <trkpt lat="45.54219" lon="3.18809">
        <ele>463.6</ele>
        <time>2011-05-15T12:06:40Z</time>
      </trkpt>
      <trkpt lat="45.54229" lon="3.18819">
        <ele>458.8</ele>
        <time>2011-05-15T12:06:44Z</time>
      </trkpt>
      <trkpt lat="45.54238" lon="3.18819">
        <ele>455</ele>
        <time>2011-05-15T12:06:48Z</time>
      </trkpt>
      <trkpt lat="45.54245" lon="3.1881">
        <ele>452.6</ele>
        <time>2011-05-15T12:06:52Z</time>
      </trkpt>
      <trkpt lat="45.54266" lon="3.18782">
        <ele>452.4</ele>
        <time>2011-05-15T12:07:07Z</time>
      </trkpt>
      <trkpt lat="45.54271" lon="3.18773">
        <ele>454.2</ele>
        <time>2011-05-15T12:07:11Z</time>
      </trkpt>
      <trkpt lat="45.54291" lon="3.18743">
        <ele>455.4</ele>
        <time>2011-05-15T12:07:24Z</time>
      </trkpt>
      <trkpt lat="45.54324" lon="3.18694">
        <ele>456.4</ele>
        <time>2011-05-15T12:07:42Z</time>
      </trkpt>
      <trkpt lat="45.54339" lon="3.18673">
        <ele>458</ele>
        <time>2011-05-15T12:07:49Z</time>
      </trkpt>
      <trkpt lat="45.5436" lon="3.18641">
        <ele>459.2</ele>
        <time>2011-05-15T12:08:00Z</time>
      </trkpt>
      <trkpt lat="45.54367" lon="3.18631">
        <ele>460.6</ele>
        <time>2011-05-15T12:08:04Z</time>
      </trkpt>
      <trkpt lat="45.54389" lon="3.18595">
        <ele>461.8</ele>
        <time>2011-05-15T12:08:17Z</time>
      </trkpt>
      <trkpt lat="45.54407" lon="3.18563">
        <ele>463</ele>
        <time>2011-05-15T12:08:30Z</time>
      </trkpt>
      <trkpt lat="45.54414" lon="3.18553">
        <ele>464.6</ele>
        <time>2011-05-15T12:08:34Z</time>
      </trkpt>
      <trkpt lat="45.5443" lon="3.18528">
        <ele>465.8</ele>
        <time>2011-05-15T12:08:43Z</time>
      </trkpt>
      <trkpt lat="45.54445" lon="3.18485">
        <ele>466.6</ele>
        <time>2011-05-15T12:08:55Z</time>
      </trkpt>
      <trkpt lat="45.54466" lon="3.18425">
        <ele>465.6</ele>
        <time>2011-05-15T12:09:06Z</time>
      </trkpt>
      <trkpt lat="45.54471" lon="3.18395">
        <ele>463.4</ele>
        <time>2011-05-15T12:09:10Z</time>
      </trkpt>
      <trkpt lat="45.54475" lon="3.1836">
        <ele>461.2</ele>
        <time>2011-05-15T12:09:14Z</time>
      </trkpt>
      <trkpt lat="45.54464" lon="3.1833">
        <ele>459.8</ele>
        <time>2011-05-15T12:09:18Z</time>
      </trkpt>
      <trkpt lat="45.54453" lon="3.18309">
        <ele>458</ele>
        <time>2011-05-15T12:09:22Z</time>
      </trkpt>
      <trkpt lat="45.54399" lon="3.18252">
        <ele>457.6</ele>
        <time>2011-05-15T12:09:41Z</time>
      </trkpt>
      <trkpt lat="45.5439" lon="3.18249">
        <ele>459.2</ele>
        <time>2011-05-15T12:09:45Z</time>
      </trkpt>
      <trkpt lat="45.54377" lon="3.18239">
        <ele>460.4</ele>
        <time>2011-05-15T12:09:52Z</time>
      </trkpt>
      <trkpt lat="45.5435" lon="3.18223">
        <ele>462</ele>
        <time>2011-05-15T12:10:03Z</time>
      </trkpt>
      <trkpt lat="45.54338" lon="3.18216">
        <ele>463.6</ele>
        <time>2011-05-15T12:10:07Z</time>
      </trkpt>
      <trkpt lat="45.54296" lon="3.18173">
        <ele>463.6</ele>
        <time>2011-05-15T12:10:29Z</time>
      </trkpt>
      <trkpt lat="45.54303" lon="3.18151">
        <ele>461.2</ele>
        <time>2011-05-15T12:10:33Z</time>
      </trkpt>
      <trkpt lat="45.54318" lon="3.18147">
        <ele>458.2</ele>
        <time>2011-05-15T12:10:37Z</time>
      </trkpt>
      <trkpt lat="45.54367" lon="3.18143">
        <ele>456.4</ele>
        <time>2011-05-15T12:10:45Z</time>
      </trkpt>
      <trkpt lat="45.54394" lon="3.18135">
        <ele>454</ele>
        <time>2011-05-15T12:10:49Z</time>
      </trkpt>
      <trkpt lat="45.54427" lon="3.18126">
        <ele>452.4</ele>
        <time>2011-05-15T12:10:54Z</time>
      </trkpt>
      <trkpt lat="45.54458" lon="3.18121">
        <ele>450.4</ele>
        <time>2011-05-15T12:10:59Z</time>
      </trkpt>
      <trkpt lat="45.54505" lon="3.18115">
        <ele>449</ele>
        <time>2011-05-15T12:11:07Z</time>
      </trkpt>
      <trkpt lat="45.54528" lon="3.18108">
        <ele>447.2</ele>
        <time>2011-05-15T12:11:11Z</time>
      </trkpt>
      <trkpt lat="45.54572" lon="3.18102">
        <ele>446</ele>
        <time>2011-05-15T12:11:19Z</time>
      </trkpt>
      <trkpt lat="45.54614" lon="3.18103">
        <ele>445</ele>
        <time>2011-05-15T12:11:27Z</time>
      </trkpt>
      <trkpt lat="45.54655" lon="3.18104">
        <ele>443.2</ele>
        <time>2011-05-15T12:11:35Z</time>
      </trkpt>
      <trkpt lat="45.54721" lon="3.18109">
        <ele>442.8</ele>
        <time>2011-05-15T12:11:49Z</time>
      </trkpt>
      <trkpt lat="45.54738" lon="3.18105">
        <ele>441.2</ele>
        <time>2011-05-15T12:11:53Z</time>
      </trkpt>
      <trkpt lat="45.54741" lon="3.1813">
        <ele>440.8</ele>
        <time>2011-05-15T12:11:59Z</time>
      </trkpt>
      <trkpt lat="45.54742" lon="3.18214">
        <ele>440.8</ele>
        <time>2011-05-15T12:12:11Z</time>
      </trkpt>
      <trkpt lat="45.54736" lon="3.18242">
        <ele>439.2</ele>
        <time>2011-05-15T12:12:15Z</time>
      </trkpt>
      <trkpt lat="45.54706" lon="3.1831">
        <ele>438.8</ele>
        <time>2011-05-15T12:12:26Z</time>
      </trkpt>
      <trkpt lat="45.54682" lon="3.18429">
        <ele>438.8</ele>
        <time>2011-05-15T12:12:44Z</time>
      </trkpt>
      <trkpt lat="45.54683" lon="3.18517">
        <ele>438.8</ele>
        <time>2011-05-15T12:12:57Z</time>
      </trkpt>
      <trkpt lat="45.54674" lon="3.18556">
        <ele>437</ele>
        <time>2011-05-15T12:13:01Z</time>
      </trkpt>
      <trkpt lat="45.54641" lon="3.186">
        <ele>436.2</ele>
        <time>2011-05-15T12:13:08Z</time>
      </trkpt>
      <trkpt lat="45.54633" lon="3.18631">
        <ele>434.4</ele>
        <time>2011-05-15T12:13:12Z</time>
      </trkpt>
      <trkpt lat="45.54633" lon="3.18665">
        <ele>434.4</ele>
        <time>2011-05-15T12:13:17Z</time>
      </trkpt>
      <trkpt lat="45.5463" lon="3.18724">
        <ele>434.4</ele>
        <time>2011-05-15T12:13:26Z</time>
      </trkpt>
      <trkpt lat="45.546" lon="3.18784">
        <ele>434.4</ele>
        <time>2011-05-15T12:13:37Z</time>
      </trkpt>
      <trkpt lat="45.54588" lon="3.18856">
        <ele>434.4</ele>
        <time>2011-05-15T12:13:49Z</time>
      </trkpt>
      <trkpt lat="45.54567" lon="3.18915">
        <ele>434.4</ele>
        <time>2011-05-15T12:13:58Z</time>
      </trkpt>
      <trkpt lat="45.54559" lon="3.1894">
        <ele>432.4</ele>
        <time>2011-05-15T12:14:02Z</time>
      </trkpt>
      <trkpt lat="45.54549" lon="3.18975">
        <ele>432.4</ele>
        <time>2011-05-15T12:14:07Z</time>
      </trkpt>
      <trkpt lat="45.54498" lon="3.19052">
        <ele>431.6</ele>
        <time>2011-05-15T12:14:21Z</time>
      </trkpt>
      <trkpt lat="45.54482" lon="3.19073">
        <ele>430.2</ele>
        <time>2011-05-15T12:14:25Z</time>
      </trkpt>
      <trkpt lat="45.54434" lon="3.1914">
        <ele>430.2</ele>
        <time>2011-05-15T12:14:38Z</time>
      </trkpt>
      <trkpt lat="45.5441" lon="3.19206">
        <ele>430.2</ele>
        <time>2011-05-15T12:14:48Z</time>
      </trkpt>
      <trkpt lat="45.54374" lon="3.19322">
        <ele>430.2</ele>
        <time>2011-05-15T12:15:04Z</time>
      </trkpt>
      <trkpt lat="45.54362" lon="3.19406">
        <ele>428.6</ele>
        <time>2011-05-15T12:15:15Z</time>
      </trkpt>
      <trkpt lat="45.54348" lon="3.19473">
        <ele>428.2</ele>
        <time>2011-05-15T12:15:24Z</time>
      </trkpt>
      <trkpt lat="45.54334" lon="3.1952">
        <ele>428.2</ele>
        <time>2011-05-15T12:15:32Z</time>
      </trkpt>
      <trkpt lat="45.54372" lon="3.19552">
        <ele>428.2</ele>
        <time>2011-05-15T12:15:41Z</time>
      </trkpt>
      <trkpt lat="45.54499" lon="3.19647">
        <ele>428.2</ele>
        <time>2011-05-15T12:16:09Z</time>
      </trkpt>
      <trkpt lat="45.54578" lon="3.19702">
        <ele>428.2</ele>
        <time>2011-05-15T12:16:28Z</time>
      </trkpt>
      <trkpt lat="45.54584" lon="3.19744">
        <ele>428.2</ele>
        <time>2011-05-15T12:16:43Z</time>
      </trkpt>
      <trkpt lat="45.54571" lon="3.19764">
        <ele>428.2</ele>
        <time>2011-05-15T12:17:10Z</time>
      </trkpt>
      <trkpt lat="45.5457" lon="3.19753">
        <ele>428.2</ele>
        <time>2011-05-15T12:17:25Z</time>
      </trkpt>
      <trkpt lat="45.54569" lon="3.19751">
        <ele>428.2</ele>
        <time>2011-05-15T12:17:39Z</time>
      </trkpt>
      <trkpt lat="45.54568" lon="3.19762">
        <ele>428.2</ele>
        <time>2011-05-15T12:17:59Z</time>
      </trkpt>
      <trkpt lat="45.54573" lon="3.19749">
        <ele>428.2</ele>
        <time>2011-05-15T12:18:14Z</time>
      </trkpt>
      <trkpt lat="45.54543" lon="3.1975">
        <ele>427.8</ele>
        <time>2011-05-15T12:18:24Z</time>
      </trkpt>
      <trkpt lat="45.54534" lon="3.19755">
        <ele>426.2</ele>
        <time>2011-05-15T12:18:28Z</time>
      </trkpt>
      <trkpt lat="45.54531" lon="3.19758">
        <ele>426.2</ele>
        <time>2011-05-15T12:18:45Z</time>
      </trkpt>
    </trkseg>
  </trk>
</gpx>